<?xml version='1.0' encoding='UTF-8'?><gpx version="1.1" creator="JPX - https://github.com/jenetics/jpx" xmlns="http://www.topografix.com/GPX/1/1"><trk><trkseg><trkpt lat="45.8227505" lon="10.4101715"><ele>1656.0</ele><time>2026-04-27T14:11:02.478Z</time></trkpt><trkpt lat="45.8227651" lon="10.4102817"><ele>1656.0</ele><time>2026-04-27T14:14:21.474Z</time></trkpt><trkpt lat="45.8226991" lon="10.4102377"><ele>1656.0</ele><time>2026-04-27T14:14:23.474Z</time></trkpt><trkpt lat="45.8226801" lon="10.4100724"><ele>1656.0</ele><time>2026-04-27T14:14:25.474Z</time></trkpt><trkpt lat="45.8227102" lon="10.4099769"><ele>1656.0</ele><time>2026-04-27T14:14:26.474Z</time></trkpt><trkpt lat="45.822772" lon="10.4098772"><ele>1656.0</ele><time>2026-04-27T14:14:27.474Z</time></trkpt><trkpt lat="45.8228332" lon="10.4097649"><ele>1655.6</ele><time>2026-04-27T14:14:28.475Z</time></trkpt><trkpt lat="45.8228952" lon="10.4096435"><ele>1655.1999999999998</ele><time>2026-04-27T14:14:29.474Z</time></trkpt><trkpt lat="45.8229425" lon="10.4095043"><ele>1654.8000000000002</ele><time>2026-04-27T14:14:30.475Z</time></trkpt><trkpt lat="45.8229843" lon="10.4093501"><ele>1654.4</ele><time>2026-04-27T14:14:31.474Z</time></trkpt><trkpt lat="45.823025" lon="10.409199"><ele>1654.0</ele><time>2026-04-27T14:14:32.474Z</time></trkpt><trkpt lat="45.8230818" lon="10.4090526"><ele>1654.0</ele><time>2026-04-27T14:14:33.474Z</time></trkpt><trkpt lat="45.8231327" lon="10.4089095"><ele>1654.0</ele><time>2026-04-27T14:14:34.474Z</time></trkpt><trkpt lat="45.8232004" lon="10.408793"><ele>1654.0</ele><time>2026-04-27T14:14:35.475Z</time></trkpt><trkpt lat="45.8232638" lon="10.4086737"><ele>1654.0</ele><time>2026-04-27T14:14:36.474Z</time></trkpt><trkpt lat="45.8233221" lon="10.4085567"><ele>1654.0</ele><time>2026-04-27T14:14:37.474Z</time></trkpt><trkpt lat="45.8233652" lon="10.4084447"><ele>1654.5000000000002</ele><time>2026-04-27T14:14:38.474Z</time></trkpt><trkpt lat="45.8234148" lon="10.4083432"><ele>1655.0</ele><time>2026-04-27T14:14:39.474Z</time></trkpt><trkpt lat="45.8234603" lon="10.4082389"><ele>1655.5</ele><time>2026-04-27T14:14:40.474Z</time></trkpt><trkpt lat="45.8235051" lon="10.4081377"><ele>1656.0</ele><time>2026-04-27T14:14:41.474Z</time></trkpt><trkpt lat="45.8235576" lon="10.4080332"><ele>1656.5000000000002</ele><time>2026-04-27T14:14:42.474Z</time></trkpt><trkpt lat="45.8236086" lon="10.4079323"><ele>1657.0</ele><time>2026-04-27T14:14:43.474Z</time></trkpt><trkpt lat="45.8236475" lon="10.4078353"><ele>1657.0</ele><time>2026-04-27T14:14:44.474Z</time></trkpt><trkpt lat="45.8236715" lon="10.4076715"><ele>1657.0</ele><time>2026-04-27T14:14:46.474Z</time></trkpt><trkpt lat="45.8235603" lon="10.4076805"><ele>1657.0</ele><time>2026-04-27T14:14:48.474Z</time></trkpt><trkpt lat="45.8234748" lon="10.4078261"><ele>1657.0</ele><time>2026-04-27T14:14:50.475Z</time></trkpt><trkpt lat="45.8234184" lon="10.4079339"><ele>1652.0</ele><time>2026-04-27T14:14:51.474Z</time></trkpt><trkpt lat="45.8233463" lon="10.408046"><ele>1647.0</ele><time>2026-04-27T14:14:52.474Z</time></trkpt><trkpt lat="45.8232659" lon="10.4081708"><ele>1642.0</ele><time>2026-04-27T14:14:53.475Z</time></trkpt><trkpt lat="45.8231679" lon="10.408283"><ele>1637.0</ele><time>2026-04-27T14:14:54.474Z</time></trkpt><trkpt lat="45.8230631" lon="10.408389"><ele>1637.0</ele><time>2026-04-27T14:14:55.475Z</time></trkpt><trkpt lat="45.8229714" lon="10.408515"><ele>1637.0</ele><time>2026-04-27T14:14:56.474Z</time></trkpt><trkpt lat="45.822899" lon="10.408653"><ele>1637.0</ele><time>2026-04-27T14:14:57.474Z</time></trkpt><trkpt lat="45.8228375" lon="10.4087766"><ele>1637.0</ele><time>2026-04-27T14:14:58.474Z</time></trkpt><trkpt lat="45.8227944" lon="10.408875"><ele>1637.0</ele><time>2026-04-27T14:14:59.474Z</time></trkpt><trkpt lat="45.8227061" lon="10.4089024"><ele>1636.9999999999998</ele><time>2026-04-27T14:15:01.474Z</time></trkpt><trkpt lat="45.8226686" lon="10.408789"><ele>1637.0</ele><time>2026-04-27T14:15:03.474Z</time></trkpt><trkpt lat="45.8226977" lon="10.4087038"><ele>1637.0</ele><time>2026-04-27T14:15:04.474Z</time></trkpt><trkpt lat="45.8227543" lon="10.4086129"><ele>1637.0</ele><time>2026-04-27T14:15:05.474Z</time></trkpt><trkpt lat="45.8228093" lon="10.408521"><ele>1636.9999999999998</ele><time>2026-04-27T14:15:06.474Z</time></trkpt><trkpt lat="45.8228654" lon="10.408428"><ele>1637.0</ele><time>2026-04-27T14:15:07.475Z</time></trkpt><trkpt lat="45.82292" lon="10.4083263"><ele>1637.0</ele><time>2026-04-27T14:15:08.474Z</time></trkpt><trkpt lat="45.8229739" lon="10.4082202"><ele>1637.0</ele><time>2026-04-27T14:15:09.474Z</time></trkpt><trkpt lat="45.8230186" lon="10.4081114"><ele>1637.0</ele><time>2026-04-27T14:15:10.475Z</time></trkpt><trkpt lat="45.8230665" lon="10.4080021"><ele>1637.0</ele><time>2026-04-27T14:15:11.474Z</time></trkpt><trkpt lat="45.8231108" lon="10.4078878"><ele>1637.0</ele><time>2026-04-27T14:15:12.474Z</time></trkpt><trkpt lat="45.8231438" lon="10.4077603"><ele>1633.9999999999998</ele><time>2026-04-27T14:15:13.474Z</time></trkpt><trkpt lat="45.8231727" lon="10.4076368"><ele>1631.0</ele><time>2026-04-27T14:15:14.474Z</time></trkpt><trkpt lat="45.8232079" lon="10.4075186"><ele>1628.0</ele><time>2026-04-27T14:15:15.474Z</time></trkpt><trkpt lat="45.8232453" lon="10.4074003"><ele>1625.0</ele><time>2026-04-27T14:15:16.474Z</time></trkpt><trkpt lat="45.823283" lon="10.4072849"><ele>1621.9999999999998</ele><time>2026-04-27T14:15:17.474Z</time></trkpt><trkpt lat="45.8233204" lon="10.4071703"><ele>1619.0</ele><time>2026-04-27T14:15:18.474Z</time></trkpt><trkpt lat="45.823359" lon="10.4070564"><ele>1621.4999999999998</ele><time>2026-04-27T14:15:19.474Z</time></trkpt><trkpt lat="45.8233955" lon="10.4069503"><ele>1624.0</ele><time>2026-04-27T14:15:20.474Z</time></trkpt><trkpt lat="45.8234402" lon="10.40685"><ele>1626.5</ele><time>2026-04-27T14:15:21.474Z</time></trkpt><trkpt lat="45.8234875" lon="10.4067531"><ele>1629.0</ele><time>2026-04-27T14:15:22.474Z</time></trkpt><trkpt lat="45.8234875" lon="10.4066509"><ele>1631.4999999999998</ele><time>2026-04-27T14:15:23.474Z</time></trkpt><trkpt lat="45.8234775" lon="10.4065509"><ele>1634.0</ele><time>2026-04-27T14:15:24.474Z</time></trkpt><trkpt lat="45.8233513" lon="10.4065862"><ele>1631.0</ele><time>2026-04-27T14:15:26.474Z</time></trkpt><trkpt lat="45.8232999" lon="10.4066895"><ele>1628.0</ele><time>2026-04-27T14:15:27.474Z</time></trkpt><trkpt lat="45.8232683" lon="10.4068243"><ele>1625.0</ele><time>2026-04-27T14:15:28.474Z</time></trkpt><trkpt lat="45.8232346" lon="10.4069709"><ele>1622.0</ele><time>2026-04-27T14:15:29.474Z</time></trkpt><trkpt lat="45.8231771" lon="10.4071206"><ele>1619.0</ele><time>2026-04-27T14:15:30.474Z</time></trkpt><trkpt lat="45.8231136" lon="10.407282"><ele>1619.0</ele><time>2026-04-27T14:15:31.475Z</time></trkpt><trkpt lat="45.8230347" lon="10.4074389"><ele>1619.0</ele><time>2026-04-27T14:15:32.474Z</time></trkpt><trkpt lat="45.8229504" lon="10.4075802"><ele>1619.0</ele><time>2026-04-27T14:15:33.474Z</time></trkpt><trkpt lat="45.8228803" lon="10.4077142"><ele>1619.0</ele><time>2026-04-27T14:15:34.474Z</time></trkpt><trkpt lat="45.8228264" lon="10.4078012"><ele>1619.0</ele><time>2026-04-27T14:15:35.474Z</time></trkpt><trkpt lat="45.822714" lon="10.4078708"><ele>1619.0</ele><time>2026-04-27T14:15:37.474Z</time></trkpt><trkpt lat="45.8226302" lon="10.4077964"><ele>1619.0</ele><time>2026-04-27T14:15:39.474Z</time></trkpt><trkpt lat="45.8226696" lon="10.4076264"><ele>1619.0</ele><time>2026-04-27T14:15:41.474Z</time></trkpt><trkpt lat="45.822731" lon="10.4075239"><ele>1619.0</ele><time>2026-04-27T14:15:42.474Z</time></trkpt><trkpt lat="45.8227896" lon="10.4074073"><ele>1619.0</ele><time>2026-04-27T14:15:43.474Z</time></trkpt><trkpt lat="45.822843" lon="10.407287"><ele>1619.0</ele><time>2026-04-27T14:15:44.474Z</time></trkpt><trkpt lat="45.8228868" lon="10.4071565"><ele>1619.0</ele><time>2026-04-27T14:15:45.474Z</time></trkpt><trkpt lat="45.8229227" lon="10.4070146"><ele>1619.0</ele><time>2026-04-27T14:15:46.474Z</time></trkpt><trkpt lat="45.8229541" lon="10.406872"><ele>1619.0</ele><time>2026-04-27T14:15:47.474Z</time></trkpt><trkpt lat="45.8229855" lon="10.4067195"><ele>1615.8000000000002</ele><time>2026-04-27T14:15:48.474Z</time></trkpt><trkpt lat="45.8230144" lon="10.4065692"><ele>1612.6000000000001</ele><time>2026-04-27T14:15:49.474Z</time></trkpt><trkpt lat="45.8230423" lon="10.406416"><ele>1609.4</ele><time>2026-04-27T14:15:50.474Z</time></trkpt><trkpt lat="45.8230715" lon="10.4062658"><ele>1606.2</ele><time>2026-04-27T14:15:51.474Z</time></trkpt><trkpt lat="45.823107" lon="10.4061133"><ele>1603.0</ele><time>2026-04-27T14:15:52.474Z</time></trkpt><trkpt lat="45.8231552" lon="10.4059735"><ele>1605.5</ele><time>2026-04-27T14:15:53.474Z</time></trkpt><trkpt lat="45.8232307" lon="10.4058547"><ele>1608.0</ele><time>2026-04-27T14:15:54.474Z</time></trkpt><trkpt lat="45.823318" lon="10.4057482"><ele>1610.5</ele><time>2026-04-27T14:15:55.474Z</time></trkpt><trkpt lat="45.8234046" lon="10.4056404"><ele>1613.0</ele><time>2026-04-27T14:15:56.474Z</time></trkpt><trkpt lat="45.8234899" lon="10.4055262"><ele>1608.75</ele><time>2026-04-27T14:15:57.474Z</time></trkpt><trkpt lat="45.8235728" lon="10.4054089"><ele>1604.5</ele><time>2026-04-27T14:15:58.474Z</time></trkpt><trkpt lat="45.8236565" lon="10.4052908"><ele>1600.25</ele><time>2026-04-27T14:15:59.474Z</time></trkpt><trkpt lat="45.8236938" lon="10.4051234"><ele>1596.0</ele><time>2026-04-27T14:16:00.474Z</time></trkpt><trkpt lat="45.8237111" lon="10.4049453"><ele>1596.0</ele><time>2026-04-27T14:16:01.474Z</time></trkpt><trkpt lat="45.8237088" lon="10.4047496"><ele>1596.0</ele><time>2026-04-27T14:16:02.474Z</time></trkpt><trkpt lat="45.8237023" lon="10.4045507"><ele>1596.0</ele><time>2026-04-27T14:16:03.475Z</time></trkpt><trkpt lat="45.8236836" lon="10.4043183"><ele>1596.0</ele><time>2026-04-27T14:16:04.474Z</time></trkpt><trkpt lat="45.8236747" lon="10.4040738"><ele>1591.6666666666665</ele><time>2026-04-27T14:16:05.474Z</time></trkpt><trkpt lat="45.8236661" lon="10.4038344"><ele>1587.3333333333333</ele><time>2026-04-27T14:16:06.474Z</time></trkpt><trkpt lat="45.823656" lon="10.4035986"><ele>1583.0</ele><time>2026-04-27T14:16:07.474Z</time></trkpt><trkpt lat="45.8236423" lon="10.403369"><ele>1582.75</ele><time>2026-04-27T14:16:08.474Z</time></trkpt><trkpt lat="45.8236182" lon="10.4031504"><ele>1582.5</ele><time>2026-04-27T14:16:09.474Z</time></trkpt><trkpt lat="45.8235913" lon="10.4029419"><ele>1582.25</ele><time>2026-04-27T14:16:10.474Z</time></trkpt><trkpt lat="45.8235495" lon="10.4027519"><ele>1582.0</ele><time>2026-04-27T14:16:11.474Z</time></trkpt><trkpt lat="45.8234888" lon="10.4025707"><ele>1571.75</ele><time>2026-04-27T14:16:12.475Z</time></trkpt><trkpt lat="45.8234244" lon="10.402387"><ele>1561.5</ele><time>2026-04-27T14:16:13.474Z</time></trkpt><trkpt lat="45.82333" lon="10.4022641"><ele>1551.25</ele><time>2026-04-27T14:16:14.474Z</time></trkpt><trkpt lat="45.8232457" lon="10.4021262"><ele>1541.0</ele><time>2026-04-27T14:16:15.474Z</time></trkpt><trkpt lat="45.8232296" lon="10.4020292"><ele>1540.6</ele><time>2026-04-27T14:16:16.474Z</time></trkpt><trkpt lat="45.8232432" lon="10.4019149"><ele>1540.1999999999998</ele><time>2026-04-27T14:16:17.474Z</time></trkpt><trkpt lat="45.8232925" lon="10.4018057"><ele>1539.8000000000002</ele><time>2026-04-27T14:16:18.474Z</time></trkpt><trkpt lat="45.8233706" lon="10.4016932"><ele>1539.4</ele><time>2026-04-27T14:16:19.474Z</time></trkpt><trkpt lat="45.8234398" lon="10.4015498"><ele>1539.0</ele><time>2026-04-27T14:16:20.474Z</time></trkpt><trkpt lat="45.8234586" lon="10.4013679"><ele>1536.0</ele><time>2026-04-27T14:16:21.474Z</time></trkpt><trkpt lat="45.8234584" lon="10.4011611"><ele>1533.0</ele><time>2026-04-27T14:16:22.474Z</time></trkpt><trkpt lat="45.8234686" lon="10.4009534"><ele>1530.0</ele><time>2026-04-27T14:16:23.474Z</time></trkpt><trkpt lat="45.8235152" lon="10.4007501"><ele>1527.0</ele><time>2026-04-27T14:16:24.474Z</time></trkpt><trkpt lat="45.8235606" lon="10.400544"><ele>1532.25</ele><time>2026-04-27T14:16:25.474Z</time></trkpt><trkpt lat="45.8235969" lon="10.4003814"><ele>1537.5</ele><time>2026-04-27T14:16:26.474Z</time></trkpt><trkpt lat="45.8236485" lon="10.4002219"><ele>1542.75</ele><time>2026-04-27T14:16:27.474Z</time></trkpt><trkpt lat="45.8237082" lon="10.4000728"><ele>1548.0</ele><time>2026-04-27T14:16:28.474Z</time></trkpt><trkpt lat="45.8237768" lon="10.399943"><ele>1548.0</ele><time>2026-04-27T14:16:29.474Z</time></trkpt><trkpt lat="45.8238565" lon="10.3998179"><ele>1548.0</ele><time>2026-04-27T14:16:30.475Z</time></trkpt><trkpt lat="45.8239383" lon="10.3996964"><ele>1548.0</ele><time>2026-04-27T14:16:31.474Z</time></trkpt><trkpt lat="45.8240042" lon="10.3995542"><ele>1548.0</ele><time>2026-04-27T14:16:32.474Z</time></trkpt><trkpt lat="45.8240647" lon="10.3994052"><ele>1544.2</ele><time>2026-04-27T14:16:33.474Z</time></trkpt><trkpt lat="45.82412" lon="10.3992594"><ele>1540.4</ele><time>2026-04-27T14:16:34.474Z</time></trkpt><trkpt lat="45.8241759" lon="10.3991762"><ele>1536.6000000000001</ele><time>2026-04-27T14:16:35.475Z</time></trkpt><trkpt lat="45.8242175" lon="10.3990942"><ele>1532.8000000000002</ele><time>2026-04-27T14:16:36.474Z</time></trkpt><trkpt lat="45.824171" lon="10.3989688"><ele>1529.0</ele><time>2026-04-27T14:16:38.474Z</time></trkpt><trkpt lat="45.8240465" lon="10.3989994"><ele>1529.0</ele><time>2026-04-27T14:16:40.474Z</time></trkpt><trkpt lat="45.8239944" lon="10.399096"><ele>1529.0</ele><time>2026-04-27T14:16:41.474Z</time></trkpt><trkpt lat="45.8239503" lon="10.3992241"><ele>1529.0</ele><time>2026-04-27T14:16:42.474Z</time></trkpt><trkpt lat="45.8238895" lon="10.3993496"><ele>1529.0</ele><time>2026-04-27T14:16:43.474Z</time></trkpt><trkpt lat="45.8238026" lon="10.3994582"><ele>1529.0</ele><time>2026-04-27T14:16:44.474Z</time></trkpt><trkpt lat="45.8236946" lon="10.3995578"><ele>1529.0</ele><time>2026-04-27T14:16:45.474Z</time></trkpt><trkpt lat="45.8235805" lon="10.3996559"><ele>1529.0</ele><time>2026-04-27T14:16:46.474Z</time></trkpt><trkpt lat="45.8234656" lon="10.399735"><ele>1529.0</ele><time>2026-04-27T14:16:47.474Z</time></trkpt><trkpt lat="45.8233647" lon="10.3998034"><ele>1529.0</ele><time>2026-04-27T14:16:48.474Z</time></trkpt><trkpt lat="45.8232681" lon="10.3998622"><ele>1524.75</ele><time>2026-04-27T14:16:49.474Z</time></trkpt><trkpt lat="45.82318" lon="10.3999445"><ele>1520.5</ele><time>2026-04-27T14:16:50.474Z</time></trkpt><trkpt lat="45.8231229" lon="10.4000766"><ele>1516.25</ele><time>2026-04-27T14:16:51.474Z</time></trkpt><trkpt lat="45.8231023" lon="10.4002421"><ele>1512.0</ele><time>2026-04-27T14:16:52.474Z</time></trkpt><trkpt lat="45.8231087" lon="10.4004129"><ele>1515.0</ele><time>2026-04-27T14:16:53.474Z</time></trkpt><trkpt lat="45.8231185" lon="10.4005753"><ele>1518.0</ele><time>2026-04-27T14:16:54.474Z</time></trkpt><trkpt lat="45.8231174" lon="10.400736"><ele>1521.0</ele><time>2026-04-27T14:16:55.474Z</time></trkpt><trkpt lat="45.8230905" lon="10.4008477"><ele>1524.0</ele><time>2026-04-27T14:16:56.474Z</time></trkpt><trkpt lat="45.8229999" lon="10.4009297"><ele>1527.0</ele><time>2026-04-27T14:16:58.474Z</time></trkpt><trkpt lat="45.8229318" lon="10.400813"><ele>1527.0</ele><time>2026-04-27T14:17:00.475Z</time></trkpt><trkpt lat="45.8229365" lon="10.4007013"><ele>1527.0</ele><time>2026-04-27T14:17:01.474Z</time></trkpt><trkpt lat="45.8229486" lon="10.4005753"><ele>1527.0</ele><time>2026-04-27T14:17:02.474Z</time></trkpt><trkpt lat="45.8229497" lon="10.4004342"><ele>1527.0</ele><time>2026-04-27T14:17:03.474Z</time></trkpt><trkpt lat="45.8229442" lon="10.4002858"><ele>1527.0</ele><time>2026-04-27T14:17:04.474Z</time></trkpt><trkpt lat="45.822939" lon="10.4001375"><ele>1524.0</ele><time>2026-04-27T14:17:05.474Z</time></trkpt><trkpt lat="45.8229395" lon="10.3999922"><ele>1521.0</ele><time>2026-04-27T14:17:06.474Z</time></trkpt><trkpt lat="45.8229514" lon="10.39985"><ele>1518.0</ele><time>2026-04-27T14:17:07.475Z</time></trkpt><trkpt lat="45.8229859" lon="10.3997151"><ele>1515.0</ele><time>2026-04-27T14:17:08.474Z</time></trkpt><trkpt lat="45.8230446" lon="10.3995968"><ele>1512.0</ele><time>2026-04-27T14:17:09.474Z</time></trkpt><trkpt lat="45.8231081" lon="10.3994836"><ele>1509.0</ele><time>2026-04-27T14:17:10.474Z</time></trkpt><trkpt lat="45.8231928" lon="10.399452"><ele>1506.0</ele><time>2026-04-27T14:17:11.474Z</time></trkpt><trkpt lat="45.8232493" lon="10.3994049"><ele>1503.0</ele><time>2026-04-27T14:17:12.475Z</time></trkpt><trkpt lat="45.8232612" lon="10.3993155"><ele>1500.0</ele><time>2026-04-27T14:17:13.475Z</time></trkpt><trkpt lat="45.8232286" lon="10.399236"><ele>1497.0</ele><time>2026-04-27T14:17:14.474Z</time></trkpt><trkpt lat="45.8231659" lon="10.3992099"><ele>1494.0</ele><time>2026-04-27T14:17:15.474Z</time></trkpt><trkpt lat="45.8230957" lon="10.3992057"><ele>1491.0</ele><time>2026-04-27T14:17:16.474Z</time></trkpt><trkpt lat="45.8230168" lon="10.399308"><ele>1491.0</ele><time>2026-04-27T14:17:17.474Z</time></trkpt><trkpt lat="45.8229272" lon="10.3994239"><ele>1491.0</ele><time>2026-04-27T14:17:18.474Z</time></trkpt><trkpt lat="45.8228346" lon="10.3995517"><ele>1491.0</ele><time>2026-04-27T14:17:19.475Z</time></trkpt><trkpt lat="45.8227518" lon="10.3996937"><ele>1491.0</ele><time>2026-04-27T14:17:20.474Z</time></trkpt><trkpt lat="45.8226882" lon="10.3998541"><ele>1489.75</ele><time>2026-04-27T14:17:21.474Z</time></trkpt><trkpt lat="45.8226572" lon="10.4000366"><ele>1488.5</ele><time>2026-04-27T14:17:22.474Z</time></trkpt><trkpt lat="45.8226467" lon="10.4002244"><ele>1487.25</ele><time>2026-04-27T14:17:23.474Z</time></trkpt><trkpt lat="45.8226362" lon="10.4004091"><ele>1486.0</ele><time>2026-04-27T14:17:24.474Z</time></trkpt><trkpt lat="45.8226082" lon="10.4005829"><ele>1486.0</ele><time>2026-04-27T14:17:25.474Z</time></trkpt><trkpt lat="45.8225914" lon="10.4007278"><ele>1486.0</ele><time>2026-04-27T14:17:26.474Z</time></trkpt><trkpt lat="45.8225698" lon="10.4008486"><ele>1486.0</ele><time>2026-04-27T14:17:27.475Z</time></trkpt><trkpt lat="45.8225377" lon="10.4009326"><ele>1486.0</ele><time>2026-04-27T14:17:28.474Z</time></trkpt><trkpt lat="45.8225003" lon="10.4010203"><ele>1486.0</ele><time>2026-04-27T14:17:29.475Z</time></trkpt><trkpt lat="45.8224253" lon="10.4009561"><ele>1486.0</ele><time>2026-04-27T14:17:31.474Z</time></trkpt><trkpt lat="45.8224176" lon="10.4007782"><ele>1486.0</ele><time>2026-04-27T14:17:33.474Z</time></trkpt><trkpt lat="45.8224388" lon="10.4006504"><ele>1486.0</ele><time>2026-04-27T14:17:34.474Z</time></trkpt><trkpt lat="45.8224404" lon="10.4005255"><ele>1486.0</ele><time>2026-04-27T14:17:35.474Z</time></trkpt><trkpt lat="45.8224175" lon="10.4004124"><ele>1486.0</ele><time>2026-04-27T14:17:36.474Z</time></trkpt><trkpt lat="45.8223833" lon="10.4002835"><ele>1486.0</ele><time>2026-04-27T14:17:37.474Z</time></trkpt><trkpt lat="45.8223543" lon="10.4001616"><ele>1486.0</ele><time>2026-04-27T14:17:38.474Z</time></trkpt><trkpt lat="45.8223205" lon="10.4000405"><ele>1484.0</ele><time>2026-04-27T14:17:39.474Z</time></trkpt><trkpt lat="45.8222773" lon="10.3999203"><ele>1482.0</ele><time>2026-04-27T14:17:40.474Z</time></trkpt><trkpt lat="45.8222492" lon="10.3998005"><ele>1480.0</ele><time>2026-04-27T14:17:41.474Z</time></trkpt><trkpt lat="45.8222393" lon="10.3996863"><ele>1478.0</ele><time>2026-04-27T14:17:42.474Z</time></trkpt><trkpt lat="45.8222887" lon="10.3995639"><ele>1476.0</ele><time>2026-04-27T14:17:43.474Z</time></trkpt><trkpt lat="45.8223721" lon="10.3994516"><ele>1472.5</ele><time>2026-04-27T14:17:44.475Z</time></trkpt><trkpt lat="45.8224352" lon="10.399299"><ele>1469.0</ele><time>2026-04-27T14:17:45.474Z</time></trkpt><trkpt lat="45.8224794" lon="10.3991132"><ele>1465.5</ele><time>2026-04-27T14:17:46.474Z</time></trkpt><trkpt lat="45.8225084" lon="10.3989045"><ele>1462.0</ele><time>2026-04-27T14:17:47.474Z</time></trkpt><trkpt lat="45.822522" lon="10.3986759"><ele>1458.6666666666665</ele><time>2026-04-27T14:17:48.474Z</time></trkpt><trkpt lat="45.8225326" lon="10.3984354"><ele>1455.3333333333333</ele><time>2026-04-27T14:17:49.474Z</time></trkpt><trkpt lat="45.8225329" lon="10.398185"><ele>1452.0</ele><time>2026-04-27T14:17:50.474Z</time></trkpt><trkpt lat="45.8225417" lon="10.3979249"><ele>1449.6666666666667</ele><time>2026-04-27T14:17:51.475Z</time></trkpt><trkpt lat="45.8225361" lon="10.3976616"><ele>1447.3333333333335</ele><time>2026-04-27T14:17:52.474Z</time></trkpt><trkpt lat="45.8225291" lon="10.3974045"><ele>1445.0</ele><time>2026-04-27T14:17:53.474Z</time></trkpt><trkpt lat="45.8225037" lon="10.3971519"><ele>1444.0</ele><time>2026-04-27T14:17:54.474Z</time></trkpt><trkpt lat="45.8224794" lon="10.3969108"><ele>1443.0</ele><time>2026-04-27T14:17:55.474Z</time></trkpt><trkpt lat="45.8224496" lon="10.3966672"><ele>1442.0</ele><time>2026-04-27T14:17:56.474Z</time></trkpt><trkpt lat="45.8224456" lon="10.3964098"><ele>1441.0</ele><time>2026-04-27T14:17:57.474Z</time></trkpt><trkpt lat="45.8224355" lon="10.3961575"><ele>1440.0</ele><time>2026-04-27T14:17:58.474Z</time></trkpt><trkpt lat="45.8224368" lon="10.3959334"><ele>1439.0</ele><time>2026-04-27T14:17:59.474Z</time></trkpt><trkpt lat="45.8223744" lon="10.3957023"><ele>1438.25</ele><time>2026-04-27T14:18:00.474Z</time></trkpt><trkpt lat="45.8223209" lon="10.3954953"><ele>1437.5</ele><time>2026-04-27T14:18:01.475Z</time></trkpt><trkpt lat="45.822264" lon="10.395304"><ele>1436.75</ele><time>2026-04-27T14:18:02.474Z</time></trkpt><trkpt lat="45.8222322" lon="10.3951231"><ele>1436.0</ele><time>2026-04-27T14:18:03.474Z</time></trkpt><trkpt lat="45.8221981" lon="10.3949373"><ele>1436.0</ele><time>2026-04-27T14:18:04.474Z</time></trkpt><trkpt lat="45.8221737" lon="10.3947758"><ele>1436.0</ele><time>2026-04-27T14:18:05.474Z</time></trkpt><trkpt lat="45.8221631" lon="10.3946237"><ele>1436.0</ele><time>2026-04-27T14:18:06.474Z</time></trkpt><trkpt lat="45.8221458" lon="10.3945338"><ele>1436.0</ele><time>2026-04-27T14:18:07.474Z</time></trkpt><trkpt lat="45.8220926" lon="10.3944829"><ele>1436.0</ele><time>2026-04-27T14:18:08.474Z</time></trkpt><trkpt lat="45.8220037" lon="10.3945582"><ele>1436.0</ele><time>2026-04-27T14:18:10.474Z</time></trkpt><trkpt lat="45.8219924" lon="10.3946607"><ele>1436.0</ele><time>2026-04-27T14:18:11.474Z</time></trkpt><trkpt lat="45.8220051" lon="10.3947806"><ele>1436.0</ele><time>2026-04-27T14:18:12.474Z</time></trkpt><trkpt lat="45.8220231" lon="10.3948971"><ele>1436.0</ele><time>2026-04-27T14:18:13.474Z</time></trkpt><trkpt lat="45.8220357" lon="10.3950142"><ele>1436.0</ele><time>2026-04-27T14:18:14.474Z</time></trkpt><trkpt lat="45.8220494" lon="10.3951316"><ele>1436.0</ele><time>2026-04-27T14:18:15.474Z</time></trkpt><trkpt lat="45.8220439" lon="10.3952553"><ele>1436.0</ele><time>2026-04-27T14:18:16.474Z</time></trkpt><trkpt lat="45.8220249" lon="10.3953741"><ele>1436.0</ele><time>2026-04-27T14:18:17.474Z</time></trkpt><trkpt lat="45.8219881" lon="10.3954835"><ele>1436.0</ele><time>2026-04-27T14:18:18.474Z</time></trkpt><trkpt lat="45.8219388" lon="10.3955766"><ele>1436.0</ele><time>2026-04-27T14:18:19.474Z</time></trkpt><trkpt lat="45.8218729" lon="10.3956497"><ele>1436.0</ele><time>2026-04-27T14:18:20.474Z</time></trkpt><trkpt lat="45.821815" lon="10.3957026"><ele>1436.0</ele><time>2026-04-27T14:18:21.474Z</time></trkpt><trkpt lat="45.8217275" lon="10.3957781"><ele>1431.4</ele><time>2026-04-27T14:18:23.474Z</time></trkpt><trkpt lat="45.8216594" lon="10.3958352"><ele>1426.8</ele><time>2026-04-27T14:18:25.474Z</time></trkpt><trkpt lat="45.8215948" lon="10.3959588"><ele>1422.2</ele><time>2026-04-27T14:18:27.474Z</time></trkpt><trkpt lat="45.8215537" lon="10.396051"><ele>1417.6000000000001</ele><time>2026-04-27T14:18:28.474Z</time></trkpt><trkpt lat="45.8215136" lon="10.3961473"><ele>1413.0</ele><time>2026-04-27T14:18:29.475Z</time></trkpt><trkpt lat="45.8214542" lon="10.3962778"><ele>1414.75</ele><time>2026-04-27T14:18:30.474Z</time></trkpt><trkpt lat="45.8214326" lon="10.3964366"><ele>1416.5</ele><time>2026-04-27T14:18:31.474Z</time></trkpt><trkpt lat="45.8214332" lon="10.3966101"><ele>1418.25</ele><time>2026-04-27T14:18:32.474Z</time></trkpt><trkpt lat="45.8214563" lon="10.3967907"><ele>1420.0</ele><time>2026-04-27T14:18:33.474Z</time></trkpt><trkpt lat="45.8214823" lon="10.3969715"><ele>1420.0</ele><time>2026-04-27T14:18:34.474Z</time></trkpt><trkpt lat="45.8214859" lon="10.3971486"><ele>1420.0</ele><time>2026-04-27T14:18:35.474Z</time></trkpt><trkpt lat="45.8215024" lon="10.3972849"><ele>1420.0</ele><time>2026-04-27T14:18:36.474Z</time></trkpt><trkpt lat="45.8214933" lon="10.397397"><ele>1420.0</ele><time>2026-04-27T14:18:37.474Z</time></trkpt><trkpt lat="45.8214659" lon="10.3974832"><ele>1420.0</ele><time>2026-04-27T14:18:38.475Z</time></trkpt><trkpt lat="45.8213864" lon="10.3975101"><ele>1420.0</ele><time>2026-04-27T14:18:40.474Z</time></trkpt><trkpt lat="45.8213707" lon="10.3973437"><ele>1420.0</ele><time>2026-04-27T14:18:42.474Z</time></trkpt><trkpt lat="45.821372" lon="10.3972182"><ele>1420.0</ele><time>2026-04-27T14:18:43.474Z</time></trkpt><trkpt lat="45.8213598" lon="10.3970732"><ele>1420.0</ele><time>2026-04-27T14:18:44.474Z</time></trkpt><trkpt lat="45.8213463" lon="10.3969264"><ele>1420.0</ele><time>2026-04-27T14:18:45.474Z</time></trkpt><trkpt lat="45.8213075" lon="10.3967621"><ele>1420.0</ele><time>2026-04-27T14:18:46.474Z</time></trkpt><trkpt lat="45.8212845" lon="10.3966077"><ele>1420.0</ele><time>2026-04-27T14:18:47.475Z</time></trkpt><trkpt lat="45.8212573" lon="10.3964553"><ele>1420.0</ele><time>2026-04-27T14:18:48.474Z</time></trkpt><trkpt lat="45.8212355" lon="10.3962991"><ele>1420.0</ele><time>2026-04-27T14:18:49.474Z</time></trkpt><trkpt lat="45.8212242" lon="10.3961485"><ele>1420.0</ele><time>2026-04-27T14:18:50.474Z</time></trkpt><trkpt lat="45.8212333" lon="10.3959996"><ele>1420.0</ele><time>2026-04-27T14:18:51.474Z</time></trkpt><trkpt lat="45.8212608" lon="10.3958514"><ele>1418.6</ele><time>2026-04-27T14:18:52.474Z</time></trkpt><trkpt lat="45.8212854" lon="10.395703"><ele>1417.2</ele><time>2026-04-27T14:18:53.474Z</time></trkpt><trkpt lat="45.8213272" lon="10.3955602"><ele>1415.8000000000002</ele><time>2026-04-27T14:18:54.474Z</time></trkpt><trkpt lat="45.821386" lon="10.3954207"><ele>1414.4</ele><time>2026-04-27T14:18:55.474Z</time></trkpt><trkpt lat="45.8214469" lon="10.3952852"><ele>1413.0</ele><time>2026-04-27T14:18:56.474Z</time></trkpt><trkpt lat="45.8214849" lon="10.3951377"><ele>1411.25</ele><time>2026-04-27T14:18:57.474Z</time></trkpt><trkpt lat="45.8214966" lon="10.3949697"><ele>1409.5</ele><time>2026-04-27T14:18:58.474Z</time></trkpt><trkpt lat="45.8215028" lon="10.3948003"><ele>1407.75</ele><time>2026-04-27T14:18:59.474Z</time></trkpt><trkpt lat="45.8214886" lon="10.3946176"><ele>1406.0</ele><time>2026-04-27T14:19:00.474Z</time></trkpt><trkpt lat="45.821457" lon="10.3944272"><ele>1406.0</ele><time>2026-04-27T14:19:01.474Z</time></trkpt><trkpt lat="45.8214246" lon="10.3942369"><ele>1406.0</ele><time>2026-04-27T14:19:02.474Z</time></trkpt><trkpt lat="45.8213812" lon="10.3940204"><ele>1406.0</ele><time>2026-04-27T14:19:03.475Z</time></trkpt><trkpt lat="45.8213727" lon="10.393813"><ele>1406.0</ele><time>2026-04-27T14:19:04.474Z</time></trkpt><trkpt lat="45.821322" lon="10.3932057"><ele>1405.25</ele><time>2026-04-27T14:19:07.483Z</time></trkpt><trkpt lat="45.8212809" lon="10.3930121"><ele>1404.5</ele><time>2026-04-27T14:19:08.476Z</time></trkpt><trkpt lat="45.8212427" lon="10.3928172"><ele>1403.75</ele><time>2026-04-27T14:19:09.479Z</time></trkpt><trkpt lat="45.8212212" lon="10.3926367"><ele>1403.0</ele><time>2026-04-27T14:19:10.476Z</time></trkpt><trkpt lat="45.8211742" lon="10.3924618"><ele>1401.0</ele><time>2026-04-27T14:19:11.481Z</time></trkpt><trkpt lat="45.8211176" lon="10.3923016"><ele>1399.0</ele><time>2026-04-27T14:19:12.481Z</time></trkpt><trkpt lat="45.82104" lon="10.3921791"><ele>1397.0</ele><time>2026-04-27T14:19:13.481Z</time></trkpt><trkpt lat="45.8209711" lon="10.3920798"><ele>1395.0</ele><time>2026-04-27T14:19:14.481Z</time></trkpt><trkpt lat="45.8209385" lon="10.3919767"><ele>1393.0</ele><time>2026-04-27T14:19:15.481Z</time></trkpt><trkpt lat="45.8209381" lon="10.3918847"><ele>1388.5</ele><time>2026-04-27T14:19:16.482Z</time></trkpt><trkpt lat="45.820973" lon="10.3918015"><ele>1384.0</ele><time>2026-04-27T14:19:17.481Z</time></trkpt><trkpt lat="45.8210422" lon="10.3917565"><ele>1379.5</ele><time>2026-04-27T14:19:18.481Z</time></trkpt><trkpt lat="45.8211297" lon="10.3917376"><ele>1375.0</ele><time>2026-04-27T14:19:19.482Z</time></trkpt><trkpt lat="45.8212207" lon="10.3917161"><ele>1370.5</ele><time>2026-04-27T14:19:20.481Z</time></trkpt><trkpt lat="45.821313" lon="10.3917099"><ele>1366.0</ele><time>2026-04-27T14:19:21.481Z</time></trkpt><trkpt lat="45.8214077" lon="10.3917317"><ele>1366.0</ele><time>2026-04-27T14:19:22.481Z</time></trkpt><trkpt lat="45.8215077" lon="10.3917614"><ele>1366.0</ele><time>2026-04-27T14:19:23.481Z</time></trkpt><trkpt lat="45.8216205" lon="10.3917849"><ele>1366.0</ele><time>2026-04-27T14:19:24.481Z</time></trkpt><trkpt lat="45.8217318" lon="10.3917847"><ele>1366.0</ele><time>2026-04-27T14:19:25.482Z</time></trkpt><trkpt lat="45.8218441" lon="10.3917461"><ele>1366.0</ele><time>2026-04-27T14:19:26.481Z</time></trkpt><trkpt lat="45.8219605" lon="10.3916652"><ele>1367.25</ele><time>2026-04-27T14:19:27.481Z</time></trkpt><trkpt lat="45.8220639" lon="10.3915409"><ele>1368.5</ele><time>2026-04-27T14:19:28.481Z</time></trkpt><trkpt lat="45.8221614" lon="10.3914037"><ele>1369.75</ele><time>2026-04-27T14:19:29.481Z</time></trkpt><trkpt lat="45.8222292" lon="10.3912228"><ele>1371.0</ele><time>2026-04-27T14:19:30.482Z</time></trkpt><trkpt lat="45.8222889" lon="10.3910277"><ele>1371.0</ele><time>2026-04-27T14:19:31.481Z</time></trkpt><trkpt lat="45.8222987" lon="10.3908053"><ele>1371.0</ele><time>2026-04-27T14:19:32.482Z</time></trkpt><trkpt lat="45.8222801" lon="10.3905718"><ele>1371.0</ele><time>2026-04-27T14:19:33.482Z</time></trkpt><trkpt lat="45.8222765" lon="10.3903327"><ele>1362.6666666666667</ele><time>2026-04-27T14:19:34.481Z</time></trkpt><trkpt lat="45.822307" lon="10.3900956"><ele>1354.3333333333335</ele><time>2026-04-27T14:19:35.482Z</time></trkpt><trkpt lat="45.8223547" lon="10.3898703"><ele>1346.0</ele><time>2026-04-27T14:19:36.481Z</time></trkpt><trkpt lat="45.8223998" lon="10.3896775"><ele>1339.8</ele><time>2026-04-27T14:19:37.481Z</time></trkpt><trkpt lat="45.8224361" lon="10.3895225"><ele>1333.6</ele><time>2026-04-27T14:19:38.481Z</time></trkpt><trkpt lat="45.8224895" lon="10.3894032"><ele>1327.4</ele><time>2026-04-27T14:19:39.481Z</time></trkpt><trkpt lat="45.8225578" lon="10.3893157"><ele>1321.2</ele><time>2026-04-27T14:19:40.481Z</time></trkpt><trkpt lat="45.8226328" lon="10.3892829"><ele>1315.0</ele><time>2026-04-27T14:19:41.481Z</time></trkpt><trkpt lat="45.8227039" lon="10.389265"><ele>1311.75</ele><time>2026-04-27T14:19:42.482Z</time></trkpt><trkpt lat="45.8227746" lon="10.3893474"><ele>1308.5</ele><time>2026-04-27T14:19:43.481Z</time></trkpt><trkpt lat="45.822835" lon="10.3894971"><ele>1305.25</ele><time>2026-04-27T14:19:44.48Z</time></trkpt><trkpt lat="45.8229293" lon="10.389611"><ele>1302.0</ele><time>2026-04-27T14:19:45.481Z</time></trkpt><trkpt lat="45.823038" lon="10.3896874"><ele>1308.5</ele><time>2026-04-27T14:19:46.481Z</time></trkpt><trkpt lat="45.8231559" lon="10.3897597"><ele>1315.0</ele><time>2026-04-27T14:19:47.481Z</time></trkpt><trkpt lat="45.8232684" lon="10.3898538"><ele>1321.5</ele><time>2026-04-27T14:19:48.481Z</time></trkpt><trkpt lat="45.8233776" lon="10.3899547"><ele>1328.0</ele><time>2026-04-27T14:19:49.481Z</time></trkpt><trkpt lat="45.823491" lon="10.3899937"><ele>1328.0</ele><time>2026-04-27T14:19:50.482Z</time></trkpt><trkpt lat="45.8236151" lon="10.3899891"><ele>1328.0</ele><time>2026-04-27T14:19:51.482Z</time></trkpt><trkpt lat="45.8237382" lon="10.3899899"><ele>1328.0</ele><time>2026-04-27T14:19:52.481Z</time></trkpt><trkpt lat="45.8238438" lon="10.3900381"><ele>1328.0</ele><time>2026-04-27T14:19:53.481Z</time></trkpt><trkpt lat="45.8239307" lon="10.3901234"><ele>1328.0</ele><time>2026-04-27T14:19:54.481Z</time></trkpt><trkpt lat="45.8240179" lon="10.3901961"><ele>1328.0</ele><time>2026-04-27T14:19:55.481Z</time></trkpt><trkpt lat="45.8241144" lon="10.3902272"><ele>1328.0</ele><time>2026-04-27T14:19:56.481Z</time></trkpt><trkpt lat="45.8242149" lon="10.3902178"><ele>1328.0</ele><time>2026-04-27T14:19:57.482Z</time></trkpt><trkpt lat="45.8242975" lon="10.3901384"><ele>1328.0</ele><time>2026-04-27T14:19:58.481Z</time></trkpt><trkpt lat="45.8243688" lon="10.3900066"><ele>1325.5</ele><time>2026-04-27T14:19:59.481Z</time></trkpt><trkpt lat="45.8244551" lon="10.3898752"><ele>1323.0</ele><time>2026-04-27T14:20:00.481Z</time></trkpt><trkpt lat="45.8245774" lon="10.3898013"><ele>1320.5</ele><time>2026-04-27T14:20:01.481Z</time></trkpt><trkpt lat="45.824698" lon="10.3897379"><ele>1318.0</ele><time>2026-04-27T14:20:02.481Z</time></trkpt><trkpt lat="45.8247879" lon="10.389642"><ele>1318.0</ele><time>2026-04-27T14:20:03.481Z</time></trkpt><trkpt lat="45.824858" lon="10.3895376"><ele>1318.0</ele><time>2026-04-27T14:20:04.482Z</time></trkpt><trkpt lat="45.8248734" lon="10.3894161"><ele>1318.0</ele><time>2026-04-27T14:20:05.481Z</time></trkpt><trkpt lat="45.824839" lon="10.3892771"><ele>1318.0</ele><time>2026-04-27T14:20:06.481Z</time></trkpt><trkpt lat="45.8247748" lon="10.3891409"><ele>1318.0</ele><time>2026-04-27T14:20:07.481Z</time></trkpt><trkpt lat="45.8246922" lon="10.3890149"><ele>1318.0</ele><time>2026-04-27T14:20:08.481Z</time></trkpt><trkpt lat="45.8246036" lon="10.3888835"><ele>1318.0</ele><time>2026-04-27T14:20:09.481Z</time></trkpt><trkpt lat="45.8245155" lon="10.3887488"><ele>1318.0</ele><time>2026-04-27T14:20:10.481Z</time></trkpt><trkpt lat="45.8244256" lon="10.3886152"><ele>1318.0</ele><time>2026-04-27T14:20:11.481Z</time></trkpt><trkpt lat="45.8243684" lon="10.3884616"><ele>1319.75</ele><time>2026-04-27T14:20:12.482Z</time></trkpt><trkpt lat="45.8243549" lon="10.3882698"><ele>1321.5</ele><time>2026-04-27T14:20:13.482Z</time></trkpt><trkpt lat="45.8243369" lon="10.3880709"><ele>1323.25</ele><time>2026-04-27T14:20:14.481Z</time></trkpt><trkpt lat="45.8243246" lon="10.3878715"><ele>1325.0</ele><time>2026-04-27T14:20:15.481Z</time></trkpt><trkpt lat="45.8243157" lon="10.3876753"><ele>1323.75</ele><time>2026-04-27T14:20:16.481Z</time></trkpt><trkpt lat="45.8242891" lon="10.3874912"><ele>1322.5</ele><time>2026-04-27T14:20:17.481Z</time></trkpt><trkpt lat="45.8242579" lon="10.387322"><ele>1321.25</ele><time>2026-04-27T14:20:18.481Z</time></trkpt><trkpt lat="45.82423" lon="10.3871513"><ele>1320.0</ele><time>2026-04-27T14:20:19.482Z</time></trkpt><trkpt lat="45.8241766" lon="10.3870277"><ele>1320.0</ele><time>2026-04-27T14:20:20.482Z</time></trkpt><trkpt lat="45.8240153" lon="10.3869804"><ele>1320.0</ele><time>2026-04-27T14:20:21.481Z</time></trkpt><trkpt lat="45.8238718" lon="10.3869332"><ele>1320.0</ele><time>2026-04-27T14:20:22.481Z</time></trkpt><trkpt lat="45.8237441" lon="10.386892"><ele>1320.0</ele><time>2026-04-27T14:20:23.481Z</time></trkpt><trkpt lat="45.8236287" lon="10.3868592"><ele>1320.0</ele><time>2026-04-27T14:20:24.481Z</time></trkpt><trkpt lat="45.823519" lon="10.3868473"><ele>1320.0</ele><time>2026-04-27T14:20:25.481Z</time></trkpt><trkpt lat="45.823427" lon="10.3868493"><ele>1320.0</ele><time>2026-04-27T14:20:26.481Z</time></trkpt><trkpt lat="45.8233601" lon="10.3868215"><ele>1320.0</ele><time>2026-04-27T14:20:27.481Z</time></trkpt><trkpt lat="45.8232946" lon="10.3867149"><ele>1320.0</ele><time>2026-04-27T14:20:29.481Z</time></trkpt><trkpt lat="45.8232786" lon="10.3864823"><ele>1318.4</ele><time>2026-04-27T14:20:31.481Z</time></trkpt><trkpt lat="45.8232532" lon="10.3863491"><ele>1316.8</ele><time>2026-04-27T14:20:32.481Z</time></trkpt><trkpt lat="45.8232078" lon="10.3862351"><ele>1315.1999999999998</ele><time>2026-04-27T14:20:33.481Z</time></trkpt><trkpt lat="45.8231507" lon="10.3861266"><ele>1313.6</ele><time>2026-04-27T14:20:34.481Z</time></trkpt><trkpt lat="45.8230869" lon="10.3860256"><ele>1312.0</ele><time>2026-04-27T14:20:35.481Z</time></trkpt><trkpt lat="45.8230156" lon="10.3859331"><ele>1312.0</ele><time>2026-04-27T14:20:36.482Z</time></trkpt><trkpt lat="45.8229345" lon="10.3858546"><ele>1312.0</ele><time>2026-04-27T14:20:37.481Z</time></trkpt><trkpt lat="45.8228363" lon="10.3857773"><ele>1312.0</ele><time>2026-04-27T14:20:38.481Z</time></trkpt><trkpt lat="45.8227336" lon="10.3856972"><ele>1312.0</ele><time>2026-04-27T14:20:39.481Z</time></trkpt><trkpt lat="45.8225943" lon="10.3856318"><ele>1315.0</ele><time>2026-04-27T14:20:40.481Z</time></trkpt><trkpt lat="45.822448" lon="10.3855939"><ele>1318.0</ele><time>2026-04-27T14:20:41.481Z</time></trkpt><trkpt lat="45.8222936" lon="10.3855471"><ele>1321.0</ele><time>2026-04-27T14:20:42.481Z</time></trkpt><trkpt lat="45.8221318" lon="10.3855046"><ele>1321.0</ele><time>2026-04-27T14:20:43.481Z</time></trkpt><trkpt lat="45.8219661" lon="10.3854665"><ele>1321.0</ele><time>2026-04-27T14:20:44.481Z</time></trkpt><trkpt lat="45.8218049" lon="10.3854242"><ele>1321.0</ele><time>2026-04-27T14:20:45.481Z</time></trkpt><trkpt lat="45.821653" lon="10.3853792"><ele>1318.75</ele><time>2026-04-27T14:20:46.481Z</time></trkpt><trkpt lat="45.8215201" lon="10.3853473"><ele>1316.5</ele><time>2026-04-27T14:20:47.481Z</time></trkpt><trkpt lat="45.8213921" lon="10.385317"><ele>1314.25</ele><time>2026-04-27T14:20:48.481Z</time></trkpt><trkpt lat="45.8212893" lon="10.3852772"><ele>1312.0</ele><time>2026-04-27T14:20:49.481Z</time></trkpt><trkpt lat="45.8212173" lon="10.385228"><ele>1312.0</ele><time>2026-04-27T14:20:50.481Z</time></trkpt><trkpt lat="45.8211523" lon="10.3852394"><ele>1312.0</ele><time>2026-04-27T14:20:51.481Z</time></trkpt><trkpt lat="45.8211077" lon="10.3853047"><ele>1312.0</ele><time>2026-04-27T14:20:52.481Z</time></trkpt><trkpt lat="45.821157" lon="10.3854737"><ele>1312.0</ele><time>2026-04-27T14:20:54.482Z</time></trkpt><trkpt lat="45.8212418" lon="10.3855177"><ele>1312.0</ele><time>2026-04-27T14:20:55.481Z</time></trkpt><trkpt lat="45.8213306" lon="10.38555"><ele>1312.0</ele><time>2026-04-27T14:20:56.481Z</time></trkpt><trkpt lat="45.8214156" lon="10.3855932"><ele>1307.0</ele><time>2026-04-27T14:20:57.481Z</time></trkpt><trkpt lat="45.8215063" lon="10.3856386"><ele>1302.0</ele><time>2026-04-27T14:20:58.481Z</time></trkpt><trkpt lat="45.8215983" lon="10.3856913"><ele>1297.0</ele><time>2026-04-27T14:20:59.482Z</time></trkpt><trkpt lat="45.8216948" lon="10.3857381"><ele>1292.0</ele><time>2026-04-27T14:21:00.481Z</time></trkpt><trkpt lat="45.8217925" lon="10.3857833"><ele>1287.0</ele><time>2026-04-27T14:21:01.481Z</time></trkpt><trkpt lat="45.8218848" lon="10.3858523"><ele>1287.0</ele><time>2026-04-27T14:21:02.482Z</time></trkpt><trkpt lat="45.8219703" lon="10.3859447"><ele>1287.0</ele><time>2026-04-27T14:21:03.481Z</time></trkpt><trkpt lat="45.8220532" lon="10.3860471"><ele>1287.0</ele><time>2026-04-27T14:21:04.481Z</time></trkpt><trkpt lat="45.8221379" lon="10.386146"><ele>1287.0</ele><time>2026-04-27T14:21:05.481Z</time></trkpt><trkpt lat="45.8222365" lon="10.3862053"><ele>1287.0</ele><time>2026-04-27T14:21:06.481Z</time></trkpt><trkpt lat="45.8223422" lon="10.3862492"><ele>1287.0</ele><time>2026-04-27T14:21:07.481Z</time></trkpt><trkpt lat="45.8224333" lon="10.3862929"><ele>1287.0</ele><time>2026-04-27T14:21:08.481Z</time></trkpt><trkpt lat="45.8224935" lon="10.3863399"><ele>1287.0</ele><time>2026-04-27T14:21:09.481Z</time></trkpt><trkpt lat="45.8225384" lon="10.3864766"><ele>1287.0</ele><time>2026-04-27T14:21:11.481Z</time></trkpt><trkpt lat="45.8224302" lon="10.3865043"><ele>1287.0</ele><time>2026-04-27T14:21:13.482Z</time></trkpt><trkpt lat="45.8223517" lon="10.3864279"><ele>1287.0</ele><time>2026-04-27T14:21:14.481Z</time></trkpt><trkpt lat="45.8222584" lon="10.3863626"><ele>1287.0</ele><time>2026-04-27T14:21:15.481Z</time></trkpt><trkpt lat="45.8221441" lon="10.3863254"><ele>1287.0</ele><time>2026-04-27T14:21:16.481Z</time></trkpt><trkpt lat="45.8220168" lon="10.3862694"><ele>1287.0</ele><time>2026-04-27T14:21:17.481Z</time></trkpt><trkpt lat="45.8218943" lon="10.3861724"><ele>1281.0</ele><time>2026-04-27T14:21:18.482Z</time></trkpt><trkpt lat="45.8217555" lon="10.3860984"><ele>1275.0</ele><time>2026-04-27T14:21:19.481Z</time></trkpt><trkpt lat="45.8216027" lon="10.386067"><ele>1269.0</ele><time>2026-04-27T14:21:20.481Z</time></trkpt><trkpt lat="45.8214453" lon="10.3860201"><ele>1269.0</ele><time>2026-04-27T14:21:21.481Z</time></trkpt><trkpt lat="45.821277" lon="10.3859942"><ele>1269.0</ele><time>2026-04-27T14:21:22.481Z</time></trkpt><trkpt lat="45.8211026" lon="10.385978"><ele>1269.0</ele><time>2026-04-27T14:21:23.481Z</time></trkpt><trkpt lat="45.8209326" lon="10.3859605"><ele>1262.5</ele><time>2026-04-27T14:21:24.481Z</time></trkpt><trkpt lat="45.8207789" lon="10.3859572"><ele>1256.0</ele><time>2026-04-27T14:21:25.481Z</time></trkpt><trkpt lat="45.8206487" lon="10.3859532"><ele>1249.5</ele><time>2026-04-27T14:21:26.481Z</time></trkpt><trkpt lat="45.8205366" lon="10.3859334"><ele>1243.0</ele><time>2026-04-27T14:21:27.482Z</time></trkpt><trkpt lat="45.8204257" lon="10.3859106"><ele>1243.0</ele><time>2026-04-27T14:21:28.481Z</time></trkpt><trkpt lat="45.8203192" lon="10.3858145"><ele>1243.0</ele><time>2026-04-27T14:21:29.481Z</time></trkpt><trkpt lat="45.8202214" lon="10.3856729"><ele>1243.0</ele><time>2026-04-27T14:21:30.481Z</time></trkpt><trkpt lat="45.8201064" lon="10.3855503"><ele>1243.0</ele><time>2026-04-27T14:21:31.481Z</time></trkpt><trkpt lat="45.8199804" lon="10.3854545"><ele>1240.0</ele><time>2026-04-27T14:21:32.481Z</time></trkpt><trkpt lat="45.8198797" lon="10.385342"><ele>1237.0</ele><time>2026-04-27T14:21:33.482Z</time></trkpt><trkpt lat="45.8197988" lon="10.385219"><ele>1234.0</ele><time>2026-04-27T14:21:34.481Z</time></trkpt><trkpt lat="45.8197672" lon="10.3850674"><ele>1231.0</ele><time>2026-04-27T14:21:35.481Z</time></trkpt><trkpt lat="45.8197331" lon="10.3849169"><ele>1231.0</ele><time>2026-04-27T14:21:36.482Z</time></trkpt><trkpt lat="45.8198017" lon="10.3847523"><ele>1231.0</ele><time>2026-04-27T14:21:37.481Z</time></trkpt><trkpt lat="45.8198714" lon="10.3845679"><ele>1231.0</ele><time>2026-04-27T14:21:38.481Z</time></trkpt><trkpt lat="45.8199437" lon="10.3843847"><ele>1231.0</ele><time>2026-04-27T14:21:39.481Z</time></trkpt><trkpt lat="45.8200132" lon="10.3841853"><ele>1228.3333333333333</ele><time>2026-04-27T14:21:40.481Z</time></trkpt><trkpt lat="45.820078" lon="10.3839735"><ele>1225.6666666666667</ele><time>2026-04-27T14:21:41.481Z</time></trkpt><trkpt lat="45.8201503" lon="10.3837603"><ele>1223.0</ele><time>2026-04-27T14:21:42.481Z</time></trkpt><trkpt lat="45.820224" lon="10.3835417"><ele>1230.0</ele><time>2026-04-27T14:21:43.481Z</time></trkpt><trkpt lat="45.8202942" lon="10.3833197"><ele>1237.0</ele><time>2026-04-27T14:21:44.481Z</time></trkpt><trkpt lat="45.82038" lon="10.3831173"><ele>1244.0</ele><time>2026-04-27T14:21:45.482Z</time></trkpt><trkpt lat="45.8204486" lon="10.3829394"><ele>1244.0</ele><time>2026-04-27T14:21:46.482Z</time></trkpt><trkpt lat="45.8204954" lon="10.3828127"><ele>1244.0</ele><time>2026-04-27T14:21:47.481Z</time></trkpt><trkpt lat="45.8205162" lon="10.3826969"><ele>1244.0</ele><time>2026-04-27T14:21:48.481Z</time></trkpt><trkpt lat="45.8205102" lon="10.3825864"><ele>1244.0</ele><time>2026-04-27T14:21:49.482Z</time></trkpt><trkpt lat="45.8204687" lon="10.3824873"><ele>1244.0</ele><time>2026-04-27T14:21:50.482Z</time></trkpt><trkpt lat="45.8203862" lon="10.3824168"><ele>1244.0</ele><time>2026-04-27T14:21:51.482Z</time></trkpt><trkpt lat="45.8202923" lon="10.3823587"><ele>1244.0</ele><time>2026-04-27T14:21:52.481Z</time></trkpt><trkpt lat="45.820182" lon="10.3823663"><ele>1244.0</ele><time>2026-04-27T14:21:53.482Z</time></trkpt><trkpt lat="45.8200769" lon="10.3823444"><ele>1244.0</ele><time>2026-04-27T14:21:54.482Z</time></trkpt><trkpt lat="45.8199954" lon="10.3822847"><ele>1244.0</ele><time>2026-04-27T14:21:55.481Z</time></trkpt><trkpt lat="45.8199386" lon="10.3821893"><ele>1244.0</ele><time>2026-04-27T14:21:56.481Z</time></trkpt><trkpt lat="45.8199264" lon="10.3820724"><ele>1232.75</ele><time>2026-04-27T14:21:57.481Z</time></trkpt><trkpt lat="45.8199612" lon="10.381942"><ele>1221.5</ele><time>2026-04-27T14:21:58.481Z</time></trkpt><trkpt lat="45.8200069" lon="10.3818027"><ele>1210.25</ele><time>2026-04-27T14:21:59.481Z</time></trkpt><trkpt lat="45.8200456" lon="10.3816418"><ele>1199.0</ele><time>2026-04-27T14:22:00.481Z</time></trkpt><trkpt lat="45.8200695" lon="10.3814596"><ele>1197.25</ele><time>2026-04-27T14:22:01.481Z</time></trkpt><trkpt lat="45.8200696" lon="10.3812632"><ele>1195.5</ele><time>2026-04-27T14:22:02.481Z</time></trkpt><trkpt lat="45.8200621" lon="10.3810671"><ele>1193.75</ele><time>2026-04-27T14:22:03.481Z</time></trkpt><trkpt lat="45.8200877" lon="10.380872"><ele>1192.0</ele><time>2026-04-27T14:22:04.481Z</time></trkpt><trkpt lat="45.8201487" lon="10.3806836"><ele>1193.25</ele><time>2026-04-27T14:22:05.481Z</time></trkpt><trkpt lat="45.8201872" lon="10.3804996"><ele>1194.5</ele><time>2026-04-27T14:22:06.481Z</time></trkpt><trkpt lat="45.8202272" lon="10.3803126"><ele>1195.75</ele><time>2026-04-27T14:22:07.481Z</time></trkpt><trkpt lat="45.8201817" lon="10.3801899"><ele>1197.0</ele><time>2026-04-27T14:22:08.481Z</time></trkpt><trkpt lat="45.820142" lon="10.3800385"><ele>1197.0</ele><time>2026-04-27T14:22:09.481Z</time></trkpt><trkpt lat="45.8199944" lon="10.3799492"><ele>1197.0</ele><time>2026-04-27T14:22:10.481Z</time></trkpt><trkpt lat="45.8199119" lon="10.3797956"><ele>1197.0</ele><time>2026-04-27T14:22:11.481Z</time></trkpt><trkpt lat="45.8198255" lon="10.3796542"><ele>1197.0</ele><time>2026-04-27T14:22:12.481Z</time></trkpt><trkpt lat="45.8197129" lon="10.3795465"><ele>1194.25</ele><time>2026-04-27T14:22:13.481Z</time></trkpt><trkpt lat="45.8195784" lon="10.3794807"><ele>1191.5</ele><time>2026-04-27T14:22:14.481Z</time></trkpt><trkpt lat="45.8194492" lon="10.379458"><ele>1188.75</ele><time>2026-04-27T14:22:15.481Z</time></trkpt><trkpt lat="45.8193356" lon="10.3794128"><ele>1186.0</ele><time>2026-04-27T14:22:16.481Z</time></trkpt><trkpt lat="45.8192293" lon="10.379292"><ele>1186.0</ele><time>2026-04-27T14:22:17.481Z</time></trkpt><trkpt lat="45.8191381" lon="10.3791369"><ele>1186.0</ele><time>2026-04-27T14:22:18.481Z</time></trkpt><trkpt lat="45.8190403" lon="10.3789849"><ele>1186.0</ele><time>2026-04-27T14:22:19.482Z</time></trkpt><trkpt lat="45.8189377" lon="10.3788296"><ele>1186.0</ele><time>2026-04-27T14:22:20.481Z</time></trkpt><trkpt lat="45.8188126" lon="10.3786942"><ele>1183.0</ele><time>2026-04-27T14:22:21.481Z</time></trkpt><trkpt lat="45.8186694" lon="10.3785879"><ele>1180.0</ele><time>2026-04-27T14:22:22.481Z</time></trkpt><trkpt lat="45.8185462" lon="10.37849"><ele>1177.0</ele><time>2026-04-27T14:22:23.481Z</time></trkpt><trkpt lat="45.8184211" lon="10.3783966"><ele>1174.0</ele><time>2026-04-27T14:22:24.481Z</time></trkpt><trkpt lat="45.8182996" lon="10.3782223"><ele>1174.0</ele><time>2026-04-27T14:22:25.481Z</time></trkpt><trkpt lat="45.8181848" lon="10.3780446"><ele>1174.0</ele><time>2026-04-27T14:22:26.481Z</time></trkpt><trkpt lat="45.8180586" lon="10.3778772"><ele>1174.0</ele><time>2026-04-27T14:22:27.481Z</time></trkpt><trkpt lat="45.817923" lon="10.377703"><ele>1169.3333333333333</ele><time>2026-04-27T14:22:28.482Z</time></trkpt><trkpt lat="45.8177838" lon="10.377539"><ele>1164.6666666666667</ele><time>2026-04-27T14:22:29.481Z</time></trkpt><trkpt lat="45.8176383" lon="10.3773905"><ele>1160.0</ele><time>2026-04-27T14:22:30.481Z</time></trkpt><trkpt lat="45.8174966" lon="10.3772466"><ele>1167.0</ele><time>2026-04-27T14:22:31.481Z</time></trkpt><trkpt lat="45.8173593" lon="10.3771226"><ele>1174.0</ele><time>2026-04-27T14:22:32.482Z</time></trkpt><trkpt lat="45.8172472" lon="10.3770318"><ele>1181.0</ele><time>2026-04-27T14:22:33.481Z</time></trkpt><trkpt lat="45.8171317" lon="10.3769234"><ele>1188.0</ele><time>2026-04-27T14:22:34.481Z</time></trkpt><trkpt lat="45.8170582" lon="10.3767418"><ele>1188.0</ele><time>2026-04-27T14:22:35.481Z</time></trkpt><trkpt lat="45.8169879" lon="10.376556"><ele>1188.0</ele><time>2026-04-27T14:22:36.482Z</time></trkpt><trkpt lat="45.8169224" lon="10.3763532"><ele>1188.0</ele><time>2026-04-27T14:22:37.482Z</time></trkpt><trkpt lat="45.816828" lon="10.3761583"><ele>1178.0</ele><time>2026-04-27T14:22:38.481Z</time></trkpt><trkpt lat="45.8167122" lon="10.3759845"><ele>1168.0</ele><time>2026-04-27T14:22:39.481Z</time></trkpt><trkpt lat="45.8165782" lon="10.3758127"><ele>1158.0</ele><time>2026-04-27T14:22:40.481Z</time></trkpt><trkpt lat="45.8164414" lon="10.375642"><ele>1158.6666666666667</ele><time>2026-04-27T14:22:41.482Z</time></trkpt><trkpt lat="45.8162846" lon="10.3754959"><ele>1159.3333333333335</ele><time>2026-04-27T14:22:42.481Z</time></trkpt><trkpt lat="45.8161235" lon="10.3753645"><ele>1160.0</ele><time>2026-04-27T14:22:43.481Z</time></trkpt><trkpt lat="45.8159737" lon="10.3752155"><ele>1152.0</ele><time>2026-04-27T14:22:44.482Z</time></trkpt><trkpt lat="45.81584" lon="10.3750465"><ele>1144.0</ele><time>2026-04-27T14:22:45.481Z</time></trkpt><trkpt lat="45.8157125" lon="10.3748824"><ele>1136.0</ele><time>2026-04-27T14:22:46.481Z</time></trkpt><trkpt lat="45.8156056" lon="10.3747261"><ele>1132.5</ele><time>2026-04-27T14:22:47.481Z</time></trkpt><trkpt lat="45.8154985" lon="10.3745938"><ele>1129.0</ele><time>2026-04-27T14:22:48.482Z</time></trkpt><trkpt lat="45.8153921" lon="10.374458"><ele>1125.5</ele><time>2026-04-27T14:22:49.481Z</time></trkpt><trkpt lat="45.8152967" lon="10.3744"><ele>1122.0</ele><time>2026-04-27T14:22:50.481Z</time></trkpt><trkpt lat="45.8152242" lon="10.3743302"><ele>1122.0</ele><time>2026-04-27T14:22:51.482Z</time></trkpt><trkpt lat="45.8151874" lon="10.3742448"><ele>1122.0</ele><time>2026-04-27T14:22:52.482Z</time></trkpt><trkpt lat="45.8152505" lon="10.3741373"><ele>1122.0</ele><time>2026-04-27T14:22:54.481Z</time></trkpt><trkpt lat="45.8153244" lon="10.3741559"><ele>1122.0</ele><time>2026-04-27T14:22:55.481Z</time></trkpt><trkpt lat="45.8154141" lon="10.3741843"><ele>1122.0</ele><time>2026-04-27T14:22:56.482Z</time></trkpt><trkpt lat="45.8155177" lon="10.3742229"><ele>1122.0</ele><time>2026-04-27T14:22:57.482Z</time></trkpt><trkpt lat="45.8156248" lon="10.374267"><ele>1122.0</ele><time>2026-04-27T14:22:58.481Z</time></trkpt><trkpt lat="45.8157347" lon="10.3743139"><ele>1122.0</ele><time>2026-04-27T14:22:59.481Z</time></trkpt><trkpt lat="45.8158549" lon="10.374307"><ele>1122.0</ele><time>2026-04-27T14:23:00.481Z</time></trkpt><trkpt lat="45.8159674" lon="10.3742498"><ele>1122.0</ele><time>2026-04-27T14:23:01.481Z</time></trkpt><trkpt lat="45.8160752" lon="10.3741496"><ele>1119.5</ele><time>2026-04-27T14:23:02.481Z</time></trkpt><trkpt lat="45.8161632" lon="10.3740095"><ele>1117.0</ele><time>2026-04-27T14:23:03.482Z</time></trkpt><trkpt lat="45.8162589" lon="10.3738496"><ele>1114.5</ele><time>2026-04-27T14:23:04.481Z</time></trkpt><trkpt lat="45.8163567" lon="10.3736851"><ele>1112.0</ele><time>2026-04-27T14:23:05.481Z</time></trkpt><trkpt lat="45.816455" lon="10.3735148"><ele>1112.0</ele><time>2026-04-27T14:23:06.481Z</time></trkpt><trkpt lat="45.81655" lon="10.3733268"><ele>1112.0</ele><time>2026-04-27T14:23:07.481Z</time></trkpt><trkpt lat="45.8166553" lon="10.3731348"><ele>1112.0</ele><time>2026-04-27T14:23:08.481Z</time></trkpt><trkpt lat="45.816757" lon="10.3729583"><ele>1108.75</ele><time>2026-04-27T14:23:09.481Z</time></trkpt><trkpt lat="45.8168521" lon="10.3728079"><ele>1105.5</ele><time>2026-04-27T14:23:10.481Z</time></trkpt><trkpt lat="45.8169712" lon="10.3727135"><ele>1102.25</ele><time>2026-04-27T14:23:11.481Z</time></trkpt><trkpt lat="45.8170887" lon="10.3726206"><ele>1099.0</ele><time>2026-04-27T14:23:12.481Z</time></trkpt><trkpt lat="45.8172148" lon="10.3725482"><ele>1099.0</ele><time>2026-04-27T14:23:13.481Z</time></trkpt><trkpt lat="45.8173516" lon="10.3725282"><ele>1099.0</ele><time>2026-04-27T14:23:14.481Z</time></trkpt><trkpt lat="45.8175409" lon="10.3725802"><ele>1099.0</ele><time>2026-04-27T14:23:15.481Z</time></trkpt><trkpt lat="45.8176941" lon="10.3725263"><ele>1099.6666666666665</ele><time>2026-04-27T14:23:16.482Z</time></trkpt><trkpt lat="45.8178415" lon="10.372436"><ele>1100.3333333333333</ele><time>2026-04-27T14:23:17.481Z</time></trkpt><trkpt lat="45.8179859" lon="10.3723644"><ele>1101.0</ele><time>2026-04-27T14:23:18.481Z</time></trkpt><trkpt lat="45.8181472" lon="10.3723234"><ele>1101.0</ele><time>2026-04-27T14:23:19.481Z</time></trkpt><trkpt lat="45.818305" lon="10.3722757"><ele>1101.0</ele><time>2026-04-27T14:23:20.481Z</time></trkpt><trkpt lat="45.8184689" lon="10.3722921"><ele>1101.0</ele><time>2026-04-27T14:23:21.481Z</time></trkpt><trkpt lat="45.8186027" lon="10.3722974"><ele>1101.5</ele><time>2026-04-27T14:23:22.481Z</time></trkpt><trkpt lat="45.8187384" lon="10.3722732"><ele>1102.0</ele><time>2026-04-27T14:23:23.481Z</time></trkpt><trkpt lat="45.8188659" lon="10.3721984"><ele>1102.5</ele><time>2026-04-27T14:23:24.481Z</time></trkpt><trkpt lat="45.8189758" lon="10.3720858"><ele>1103.0</ele><time>2026-04-27T14:23:25.481Z</time></trkpt><trkpt lat="45.8190524" lon="10.3719262"><ele>1099.25</ele><time>2026-04-27T14:23:26.481Z</time></trkpt><trkpt lat="45.8190914" lon="10.3717349"><ele>1095.5</ele><time>2026-04-27T14:23:27.481Z</time></trkpt><trkpt lat="45.819145" lon="10.3715315"><ele>1091.75</ele><time>2026-04-27T14:23:28.481Z</time></trkpt><trkpt lat="45.8191865" lon="10.3713187"><ele>1088.0</ele><time>2026-04-27T14:23:29.481Z</time></trkpt><trkpt lat="45.8192376" lon="10.3710951"><ele>1087.5</ele><time>2026-04-27T14:23:30.481Z</time></trkpt><trkpt lat="45.8193093" lon="10.3709073"><ele>1087.0</ele><time>2026-04-27T14:23:31.481Z</time></trkpt><trkpt lat="45.8193897" lon="10.3707568"><ele>1086.5</ele><time>2026-04-27T14:23:32.481Z</time></trkpt><trkpt lat="45.819466" lon="10.3706496"><ele>1086.0</ele><time>2026-04-27T14:23:33.481Z</time></trkpt><trkpt lat="45.8195018" lon="10.3705346"><ele>1086.0</ele><time>2026-04-27T14:23:34.481Z</time></trkpt><trkpt lat="45.8195114" lon="10.3704246"><ele>1086.0</ele><time>2026-04-27T14:23:35.481Z</time></trkpt><trkpt lat="45.8194439" lon="10.370384"><ele>1086.0</ele><time>2026-04-27T14:23:36.481Z</time></trkpt><trkpt lat="45.8193584" lon="10.3704087"><ele>1086.0</ele><time>2026-04-27T14:23:37.481Z</time></trkpt><trkpt lat="45.8192912" lon="10.3705013"><ele>1086.0</ele><time>2026-04-27T14:23:38.481Z</time></trkpt><trkpt lat="45.8192474" lon="10.3706295"><ele>1086.0</ele><time>2026-04-27T14:23:39.481Z</time></trkpt><trkpt lat="45.8191707" lon="10.3707478"><ele>1086.0</ele><time>2026-04-27T14:23:40.481Z</time></trkpt><trkpt lat="45.8190856" lon="10.3708752"><ele>1086.0</ele><time>2026-04-27T14:23:41.481Z</time></trkpt><trkpt lat="45.8190104" lon="10.3710312"><ele>1086.0</ele><time>2026-04-27T14:23:42.481Z</time></trkpt><trkpt lat="45.8189309" lon="10.3711807"><ele>1086.0</ele><time>2026-04-27T14:23:43.481Z</time></trkpt><trkpt lat="45.8188141" lon="10.3713412"><ele>1086.5</ele><time>2026-04-27T14:23:44.481Z</time></trkpt><trkpt lat="45.8187116" lon="10.3714983"><ele>1087.0</ele><time>2026-04-27T14:23:45.481Z</time></trkpt><trkpt lat="45.8185944" lon="10.3716188"><ele>1087.5</ele><time>2026-04-27T14:23:46.481Z</time></trkpt><trkpt lat="45.8184863" lon="10.3717011"><ele>1088.0</ele><time>2026-04-27T14:23:47.481Z</time></trkpt><trkpt lat="45.8183772" lon="10.3717335"><ele>1084.75</ele><time>2026-04-27T14:23:48.481Z</time></trkpt><trkpt lat="45.8182717" lon="10.3717028"><ele>1081.5</ele><time>2026-04-27T14:23:49.481Z</time></trkpt><trkpt lat="45.8181755" lon="10.3716072"><ele>1078.25</ele><time>2026-04-27T14:23:50.481Z</time></trkpt><trkpt lat="45.8180673" lon="10.3715142"><ele>1075.0</ele><time>2026-04-27T14:23:51.481Z</time></trkpt><trkpt lat="45.8179413" lon="10.3714474"><ele>1075.0</ele><time>2026-04-27T14:23:52.481Z</time></trkpt><trkpt lat="45.8177996" lon="10.3714176"><ele>1075.0</ele><time>2026-04-27T14:23:53.481Z</time></trkpt><trkpt lat="45.8176521" lon="10.3714149"><ele>1075.0</ele><time>2026-04-27T14:23:54.481Z</time></trkpt><trkpt lat="45.8175151" lon="10.3714468"><ele>1075.0</ele><time>2026-04-27T14:23:55.481Z</time></trkpt><trkpt lat="45.8174165" lon="10.3714824"><ele>1074.1666666666665</ele><time>2026-04-27T14:23:56.481Z</time></trkpt><trkpt lat="45.8173362" lon="10.371509"><ele>1073.3333333333333</ele><time>2026-04-27T14:23:57.481Z</time></trkpt><trkpt lat="45.8172743" lon="10.3714923"><ele>1072.5</ele><time>2026-04-27T14:23:58.481Z</time></trkpt><trkpt lat="45.8172486" lon="10.3713737"><ele>1071.6666666666667</ele><time>2026-04-27T14:24:00.481Z</time></trkpt><trkpt lat="45.8173136" lon="10.37133"><ele>1070.8333333333335</ele><time>2026-04-27T14:24:01.481Z</time></trkpt><trkpt lat="45.8174032" lon="10.3712915"><ele>1070.0</ele><time>2026-04-27T14:24:02.482Z</time></trkpt><trkpt lat="45.8174986" lon="10.3712521"><ele>1069.0</ele><time>2026-04-27T14:24:03.481Z</time></trkpt><trkpt lat="45.8176073" lon="10.3712431"><ele>1068.0</ele><time>2026-04-27T14:24:04.481Z</time></trkpt><trkpt lat="45.8177156" lon="10.3712374"><ele>1067.0</ele><time>2026-04-27T14:24:05.481Z</time></trkpt><trkpt lat="45.817922" lon="10.3710902"><ele>1066.0</ele><time>2026-04-27T14:24:07.479Z</time></trkpt><trkpt lat="45.8180192" lon="10.3709982"><ele>1066.0</ele><time>2026-04-27T14:24:08.475Z</time></trkpt><trkpt lat="45.8180133" lon="10.3707748"><ele>1066.0</ele><time>2026-04-27T14:24:09.479Z</time></trkpt><trkpt lat="45.8180104" lon="10.3705903"><ele>1066.0</ele><time>2026-04-27T14:24:10.479Z</time></trkpt><trkpt lat="45.8179834" lon="10.3703859"><ele>1066.0</ele><time>2026-04-27T14:24:11.48Z</time></trkpt><trkpt lat="45.8179682" lon="10.3702098"><ele>1066.5</ele><time>2026-04-27T14:24:12.48Z</time></trkpt><trkpt lat="45.8179131" lon="10.3700601"><ele>1067.0</ele><time>2026-04-27T14:24:13.48Z</time></trkpt><trkpt lat="45.817828" lon="10.3699401"><ele>1067.5</ele><time>2026-04-27T14:24:14.481Z</time></trkpt><trkpt lat="45.8177087" lon="10.3698766"><ele>1068.0</ele><time>2026-04-27T14:24:15.48Z</time></trkpt><trkpt lat="45.817571" lon="10.3698707"><ele>1063.5</ele><time>2026-04-27T14:24:16.481Z</time></trkpt><trkpt lat="45.8174317" lon="10.3698544"><ele>1059.0</ele><time>2026-04-27T14:24:17.48Z</time></trkpt><trkpt lat="45.8172879" lon="10.369841"><ele>1054.5</ele><time>2026-04-27T14:24:18.48Z</time></trkpt><trkpt lat="45.8171712" lon="10.3698223"><ele>1050.0</ele><time>2026-04-27T14:24:19.48Z</time></trkpt><trkpt lat="45.8170659" lon="10.3698531"><ele>1050.0</ele><time>2026-04-27T14:24:20.48Z</time></trkpt><trkpt lat="45.8169627" lon="10.3698929"><ele>1050.0</ele><time>2026-04-27T14:24:21.48Z</time></trkpt><trkpt lat="45.8168662" lon="10.3699106"><ele>1050.0</ele><time>2026-04-27T14:24:22.481Z</time></trkpt><trkpt lat="45.8167791" lon="10.3699463"><ele>1050.0</ele><time>2026-04-27T14:24:23.48Z</time></trkpt><trkpt lat="45.8166867" lon="10.3699621"><ele>1050.0</ele><time>2026-04-27T14:24:24.48Z</time></trkpt><trkpt lat="45.8165947" lon="10.369988"><ele>1047.4</ele><time>2026-04-27T14:24:25.48Z</time></trkpt><trkpt lat="45.8165015" lon="10.3700158"><ele>1044.8</ele><time>2026-04-27T14:24:26.48Z</time></trkpt><trkpt lat="45.8163944" lon="10.370009"><ele>1042.2</ele><time>2026-04-27T14:24:27.479Z</time></trkpt><trkpt lat="45.8163002" lon="10.3700326"><ele>1039.6</ele><time>2026-04-27T14:24:28.48Z</time></trkpt><trkpt lat="45.8162022" lon="10.3700442"><ele>1037.0</ele><time>2026-04-27T14:24:29.481Z</time></trkpt><trkpt lat="45.8161223" lon="10.3700651"><ele>1037.0</ele><time>2026-04-27T14:24:30.48Z</time></trkpt><trkpt lat="45.8160557" lon="10.3700752"><ele>1037.0</ele><time>2026-04-27T14:24:31.48Z</time></trkpt><trkpt lat="45.8159468" lon="10.370066"><ele>1037.0</ele><time>2026-04-27T14:24:33.48Z</time></trkpt><trkpt lat="45.8158844" lon="10.3700144"><ele>1037.0</ele><time>2026-04-27T14:24:34.48Z</time></trkpt><trkpt lat="45.8158206" lon="10.3699429"><ele>1037.0</ele><time>2026-04-27T14:24:35.48Z</time></trkpt><trkpt lat="45.8157496" lon="10.3698324"><ele>1037.0</ele><time>2026-04-27T14:24:36.48Z</time></trkpt><trkpt lat="45.8156622" lon="10.3697304"><ele>1035.75</ele><time>2026-04-27T14:24:37.48Z</time></trkpt><trkpt lat="45.8155551" lon="10.3696558"><ele>1034.5</ele><time>2026-04-27T14:24:38.48Z</time></trkpt><trkpt lat="45.8154246" lon="10.369612"><ele>1033.25</ele><time>2026-04-27T14:24:39.48Z</time></trkpt><trkpt lat="45.8152856" lon="10.3695693"><ele>1032.0</ele><time>2026-04-27T14:24:40.48Z</time></trkpt><trkpt lat="45.8151305" lon="10.3695646"><ele>1028.6666666666667</ele><time>2026-04-27T14:24:41.48Z</time></trkpt><trkpt lat="45.8149692" lon="10.3695521"><ele>1025.3333333333335</ele><time>2026-04-27T14:24:42.48Z</time></trkpt><trkpt lat="45.8148185" lon="10.3695295"><ele>1022.0</ele><time>2026-04-27T14:24:43.48Z</time></trkpt><trkpt lat="45.8146519" lon="10.3695306"><ele>1022.0</ele><time>2026-04-27T14:24:44.48Z</time></trkpt><trkpt lat="45.814497" lon="10.3695105"><ele>1022.0</ele><time>2026-04-27T14:24:45.48Z</time></trkpt><trkpt lat="45.8143588" lon="10.3695192"><ele>1022.0</ele><time>2026-04-27T14:24:46.48Z</time></trkpt><trkpt lat="45.8142389" lon="10.3695197"><ele>1022.0</ele><time>2026-04-27T14:24:47.48Z</time></trkpt><trkpt lat="45.8141205" lon="10.3694859"><ele>1018.5</ele><time>2026-04-27T14:24:48.48Z</time></trkpt><trkpt lat="45.8140141" lon="10.3694288"><ele>1015.0</ele><time>2026-04-27T14:24:49.481Z</time></trkpt><trkpt lat="45.8139161" lon="10.3693421"><ele>1011.5</ele><time>2026-04-27T14:24:50.48Z</time></trkpt><trkpt lat="45.8138181" lon="10.3692612"><ele>1008.0</ele><time>2026-04-27T14:24:51.481Z</time></trkpt><trkpt lat="45.8137651" lon="10.3690319"><ele>1008.0</ele><time>2026-04-27T14:24:52.48Z</time></trkpt><trkpt lat="45.8136954" lon="10.3688726"><ele>1008.0</ele><time>2026-04-27T14:24:53.481Z</time></trkpt><trkpt lat="45.8136571" lon="10.368704"><ele>1008.0</ele><time>2026-04-27T14:24:54.48Z</time></trkpt><trkpt lat="45.8136236" lon="10.3685636"><ele>1008.0</ele><time>2026-04-27T14:24:55.48Z</time></trkpt><trkpt lat="45.813574" lon="10.3684938"><ele>1008.0</ele><time>2026-04-27T14:24:56.48Z</time></trkpt><trkpt lat="45.813473" lon="10.3685318"><ele>1008.0</ele><time>2026-04-27T14:24:58.48Z</time></trkpt><trkpt lat="45.8134628" lon="10.3686226"><ele>1008.0</ele><time>2026-04-27T14:24:59.481Z</time></trkpt><trkpt lat="45.8134686" lon="10.3687223"><ele>1008.0</ele><time>2026-04-27T14:25:00.48Z</time></trkpt><trkpt lat="45.8135309" lon="10.3688402"><ele>1008.0</ele><time>2026-04-27T14:25:01.48Z</time></trkpt><trkpt lat="45.8135809" lon="10.3689773"><ele>1008.0</ele><time>2026-04-27T14:25:02.48Z</time></trkpt><trkpt lat="45.8136469" lon="10.369114"><ele>1008.0</ele><time>2026-04-27T14:25:03.48Z</time></trkpt><trkpt lat="45.8136847" lon="10.3692616"><ele>1008.0</ele><time>2026-04-27T14:25:04.48Z</time></trkpt><trkpt lat="45.8137027" lon="10.3694069"><ele>1008.0</ele><time>2026-04-27T14:25:05.481Z</time></trkpt><trkpt lat="45.813689" lon="10.3695389"><ele>1008.0</ele><time>2026-04-27T14:25:06.481Z</time></trkpt><trkpt lat="45.8136408" lon="10.3696552"><ele>1008.0</ele><time>2026-04-27T14:25:07.48Z</time></trkpt><trkpt lat="45.8135702" lon="10.3697418"><ele>1003.25</ele><time>2026-04-27T14:25:08.48Z</time></trkpt><trkpt lat="45.813444" lon="10.369778"><ele>998.5</ele><time>2026-04-27T14:25:09.48Z</time></trkpt><trkpt lat="45.8133289" lon="10.3698313"><ele>993.75</ele><time>2026-04-27T14:25:10.48Z</time></trkpt><trkpt lat="45.813227" lon="10.3698934"><ele>989.0</ele><time>2026-04-27T14:25:11.48Z</time></trkpt><trkpt lat="45.8131195" lon="10.3699335"><ele>989.0</ele><time>2026-04-27T14:25:12.48Z</time></trkpt><trkpt lat="45.8130197" lon="10.3699214"><ele>989.0000000000001</ele><time>2026-04-27T14:25:13.48Z</time></trkpt><trkpt lat="45.8129353" lon="10.3698807"><ele>989.0000000000001</ele><time>2026-04-27T14:25:14.48Z</time></trkpt><trkpt lat="45.8128613" lon="10.3698119"><ele>989.0</ele><time>2026-04-27T14:25:15.48Z</time></trkpt><trkpt lat="45.812799" lon="10.3697109"><ele>989.0</ele><time>2026-04-27T14:25:16.48Z</time></trkpt><trkpt lat="45.8127452" lon="10.3696"><ele>989.0</ele><time>2026-04-27T14:25:17.48Z</time></trkpt><trkpt lat="45.8127442" lon="10.3694161"><ele>989.0</ele><time>2026-04-27T14:25:18.48Z</time></trkpt><trkpt lat="45.8127563" lon="10.3692439"><ele>989.0</ele><time>2026-04-27T14:25:19.48Z</time></trkpt><trkpt lat="45.8127646" lon="10.3690663"><ele>989.0</ele><time>2026-04-27T14:25:20.48Z</time></trkpt><trkpt lat="45.8127728" lon="10.3688744"><ele>990.5</ele><time>2026-04-27T14:25:21.48Z</time></trkpt><trkpt lat="45.8127579" lon="10.3686801"><ele>992.0</ele><time>2026-04-27T14:25:22.48Z</time></trkpt><trkpt lat="45.8127236" lon="10.368497"><ele>993.5</ele><time>2026-04-27T14:25:23.48Z</time></trkpt><trkpt lat="45.8126243" lon="10.3683675"><ele>995.0</ele><time>2026-04-27T14:25:24.481Z</time></trkpt><trkpt lat="45.8124969" lon="10.3682601"><ele>990.5</ele><time>2026-04-27T14:25:25.48Z</time></trkpt><trkpt lat="45.8123766" lon="10.3681649"><ele>986.0</ele><time>2026-04-27T14:25:26.481Z</time></trkpt><trkpt lat="45.812286" lon="10.368063"><ele>981.5</ele><time>2026-04-27T14:25:27.48Z</time></trkpt><trkpt lat="45.8121958" lon="10.3679498"><ele>977.0</ele><time>2026-04-27T14:25:28.48Z</time></trkpt><trkpt lat="45.8121078" lon="10.3678268"><ele>977.0</ele><time>2026-04-27T14:25:29.48Z</time></trkpt><trkpt lat="45.8120265" lon="10.3676495"><ele>977.0</ele><time>2026-04-27T14:25:30.48Z</time></trkpt><trkpt lat="45.8119536" lon="10.3674631"><ele>977.0</ele><time>2026-04-27T14:25:31.48Z</time></trkpt><trkpt lat="45.8118506" lon="10.3672866"><ele>973.3333333333334</ele><time>2026-04-27T14:25:32.48Z</time></trkpt><trkpt lat="45.8117411" lon="10.3671212"><ele>969.6666666666667</ele><time>2026-04-27T14:25:33.48Z</time></trkpt><trkpt lat="45.8116198" lon="10.3669567"><ele>966.0</ele><time>2026-04-27T14:25:34.48Z</time></trkpt><trkpt lat="45.8114783" lon="10.3668114"><ele>966.0</ele><time>2026-04-27T14:25:35.48Z</time></trkpt><trkpt lat="45.8113384" lon="10.3666758"><ele>966.0</ele><time>2026-04-27T14:25:36.48Z</time></trkpt><trkpt lat="45.8111998" lon="10.3665429"><ele>966.0</ele><time>2026-04-27T14:25:37.48Z</time></trkpt><trkpt lat="45.8110728" lon="10.3664123"><ele>964.3333333333333</ele><time>2026-04-27T14:25:38.481Z</time></trkpt><trkpt lat="45.8109518" lon="10.3662624"><ele>962.6666666666666</ele><time>2026-04-27T14:25:39.48Z</time></trkpt><trkpt lat="45.8108244" lon="10.3661068"><ele>961.0</ele><time>2026-04-27T14:25:40.48Z</time></trkpt><trkpt lat="45.8107075" lon="10.3659279"><ele>961.0</ele><time>2026-04-27T14:25:41.48Z</time></trkpt><trkpt lat="45.8105891" lon="10.3657529"><ele>961.0</ele><time>2026-04-27T14:25:42.48Z</time></trkpt><trkpt lat="45.8104632" lon="10.3655782"><ele>961.0</ele><time>2026-04-27T14:25:43.48Z</time></trkpt><trkpt lat="45.8103299" lon="10.3654174"><ele>957.3333333333333</ele><time>2026-04-27T14:25:44.481Z</time></trkpt><trkpt lat="45.8101954" lon="10.3652678"><ele>953.6666666666667</ele><time>2026-04-27T14:25:45.48Z</time></trkpt><trkpt lat="45.8100651" lon="10.3651362"><ele>950.0</ele><time>2026-04-27T14:25:46.48Z</time></trkpt><trkpt lat="45.8099524" lon="10.3650085"><ele>950.0</ele><time>2026-04-27T14:25:47.48Z</time></trkpt><trkpt lat="45.8098491" lon="10.3648746"><ele>950.0</ele><time>2026-04-27T14:25:48.48Z</time></trkpt><trkpt lat="45.8097622" lon="10.3647555"><ele>950.0</ele><time>2026-04-27T14:25:49.48Z</time></trkpt><trkpt lat="45.8096824" lon="10.3646284"><ele>950.0</ele><time>2026-04-27T14:25:50.481Z</time></trkpt><trkpt lat="45.8096186" lon="10.3645035"><ele>953.4</ele><time>2026-04-27T14:25:51.48Z</time></trkpt><trkpt lat="45.8095587" lon="10.3643997"><ele>956.8</ele><time>2026-04-27T14:25:52.48Z</time></trkpt><trkpt lat="45.8094853" lon="10.3643219"><ele>960.2</ele><time>2026-04-27T14:25:53.48Z</time></trkpt><trkpt lat="45.8094173" lon="10.3642431"><ele>963.6</ele><time>2026-04-27T14:25:54.48Z</time></trkpt><trkpt lat="45.8093494" lon="10.3641686"><ele>967.0</ele><time>2026-04-27T14:25:55.48Z</time></trkpt><trkpt lat="45.8093028" lon="10.3640426"><ele>961.0</ele><time>2026-04-27T14:25:56.48Z</time></trkpt><trkpt lat="45.8092528" lon="10.3639586"><ele>955.0</ele><time>2026-04-27T14:25:57.48Z</time></trkpt><trkpt lat="45.8092053" lon="10.363852"><ele>949.0</ele><time>2026-04-27T14:25:58.48Z</time></trkpt><trkpt lat="45.8091626" lon="10.3637432"><ele>943.0</ele><time>2026-04-27T14:25:59.48Z</time></trkpt><trkpt lat="45.8091239" lon="10.3636121"><ele>937.0</ele><time>2026-04-27T14:26:00.48Z</time></trkpt><trkpt lat="45.8090902" lon="10.3634789"><ele>936.9999999999999</ele><time>2026-04-27T14:26:01.48Z</time></trkpt><trkpt lat="45.8090683" lon="10.3633664"><ele>937.0</ele><time>2026-04-27T14:26:02.48Z</time></trkpt><trkpt lat="45.8090538" lon="10.3632589"><ele>937.0</ele><time>2026-04-27T14:26:03.48Z</time></trkpt><trkpt lat="45.8090395" lon="10.3631501"><ele>937.0</ele><time>2026-04-27T14:26:04.48Z</time></trkpt><trkpt lat="45.8090797" lon="10.3630246"><ele>936.9999999999999</ele><time>2026-04-27T14:26:05.48Z</time></trkpt><trkpt lat="45.8090589" lon="10.3629096"><ele>937.0</ele><time>2026-04-27T14:26:06.48Z</time></trkpt><trkpt lat="45.8090179" lon="10.3627981"><ele>937.8</ele><time>2026-04-27T14:26:07.48Z</time></trkpt><trkpt lat="45.8089743" lon="10.3626763"><ele>938.6</ele><time>2026-04-27T14:26:08.48Z</time></trkpt><trkpt lat="45.8089301" lon="10.3625542"><ele>939.3999999999999</ele><time>2026-04-27T14:26:09.48Z</time></trkpt><trkpt lat="45.808884" lon="10.3624362"><ele>940.1999999999999</ele><time>2026-04-27T14:26:10.481Z</time></trkpt><trkpt lat="45.8088522" lon="10.3622972"><ele>941.0</ele><time>2026-04-27T14:26:11.48Z</time></trkpt><trkpt lat="45.8088286" lon="10.3621597"><ele>941.0</ele><time>2026-04-27T14:26:12.48Z</time></trkpt><trkpt lat="45.8088106" lon="10.3620186"><ele>940.9999999999999</ele><time>2026-04-27T14:26:13.48Z</time></trkpt><trkpt lat="45.8088044" lon="10.3618693"><ele>940.9999999999999</ele><time>2026-04-27T14:26:14.48Z</time></trkpt><trkpt lat="45.8087911" lon="10.3617214"><ele>941.0</ele><time>2026-04-27T14:26:15.48Z</time></trkpt><trkpt lat="45.8087659" lon="10.3615808"><ele>941.0</ele><time>2026-04-27T14:26:16.48Z</time></trkpt><trkpt lat="45.8087378" lon="10.3614316"><ele>940.5000000000001</ele><time>2026-04-27T14:26:17.48Z</time></trkpt><trkpt lat="45.8087132" lon="10.3612924"><ele>940.0</ele><time>2026-04-27T14:26:18.48Z</time></trkpt><trkpt lat="45.8086952" lon="10.3611671"><ele>939.5</ele><time>2026-04-27T14:26:19.48Z</time></trkpt><trkpt lat="45.8086721" lon="10.3610372"><ele>939.0</ele><time>2026-04-27T14:26:20.48Z</time></trkpt><trkpt lat="45.8086537" lon="10.3609177"><ele>938.5000000000001</ele><time>2026-04-27T14:26:21.48Z</time></trkpt><trkpt lat="45.8086423" lon="10.360809"><ele>938.0</ele><time>2026-04-27T14:26:22.48Z</time></trkpt><trkpt lat="45.8086209" lon="10.3607068"><ele>938.0</ele><time>2026-04-27T14:26:23.48Z</time></trkpt><trkpt lat="45.8085877" lon="10.3605957"><ele>938.0</ele><time>2026-04-27T14:26:24.481Z</time></trkpt><trkpt lat="45.8085654" lon="10.3604803"><ele>938.0</ele><time>2026-04-27T14:26:25.48Z</time></trkpt><trkpt lat="45.8085482" lon="10.3603464"><ele>938.0</ele><time>2026-04-27T14:26:26.481Z</time></trkpt><trkpt lat="45.8085285" lon="10.3602123"><ele>938.0</ele><time>2026-04-27T14:26:27.48Z</time></trkpt><trkpt lat="45.8085136" lon="10.360081"><ele>937.5000000000001</ele><time>2026-04-27T14:26:28.48Z</time></trkpt><trkpt lat="45.808528" lon="10.3599452"><ele>937.0</ele><time>2026-04-27T14:26:29.48Z</time></trkpt><trkpt lat="45.8085444" lon="10.3598341"><ele>936.5</ele><time>2026-04-27T14:26:30.48Z</time></trkpt><trkpt lat="45.8085641" lon="10.3597054"><ele>936.0</ele><time>2026-04-27T14:26:31.48Z</time></trkpt><trkpt lat="45.8086017" lon="10.3595919"><ele>935.5000000000001</ele><time>2026-04-27T14:26:32.48Z</time></trkpt><trkpt lat="45.8086358" lon="10.3594893"><ele>935.0</ele><time>2026-04-27T14:26:33.48Z</time></trkpt><trkpt lat="45.8086629" lon="10.3593887"><ele>931.2</ele><time>2026-04-27T14:26:34.48Z</time></trkpt><trkpt lat="45.8086785" lon="10.3592674"><ele>927.4</ele><time>2026-04-27T14:26:35.481Z</time></trkpt><trkpt lat="45.8087105" lon="10.3591314"><ele>923.5999999999999</ele><time>2026-04-27T14:26:36.48Z</time></trkpt><trkpt lat="45.8087523" lon="10.3589849"><ele>919.8</ele><time>2026-04-27T14:26:37.48Z</time></trkpt><trkpt lat="45.8088052" lon="10.3588271"><ele>916.0</ele><time>2026-04-27T14:26:38.48Z</time></trkpt><trkpt lat="45.8088557" lon="10.3586692"><ele>911.75</ele><time>2026-04-27T14:26:39.48Z</time></trkpt><trkpt lat="45.80891" lon="10.3584937"><ele>907.5</ele><time>2026-04-27T14:26:40.48Z</time></trkpt><trkpt lat="45.8089631" lon="10.3583146"><ele>903.25</ele><time>2026-04-27T14:26:41.481Z</time></trkpt><trkpt lat="45.8090214" lon="10.3581265"><ele>899.0</ele><time>2026-04-27T14:26:42.481Z</time></trkpt><trkpt lat="45.8090856" lon="10.3579336"><ele>898.3333333333334</ele><time>2026-04-27T14:26:43.48Z</time></trkpt><trkpt lat="45.8091473" lon="10.3577357"><ele>897.6666666666667</ele><time>2026-04-27T14:26:44.48Z</time></trkpt><trkpt lat="45.8092219" lon="10.3575351"><ele>897.0</ele><time>2026-04-27T14:26:45.48Z</time></trkpt><trkpt lat="45.8092945" lon="10.3573326"><ele>912.6666666666667</ele><time>2026-04-27T14:26:46.481Z</time></trkpt><trkpt lat="45.8093585" lon="10.3571304"><ele>928.3333333333334</ele><time>2026-04-27T14:26:47.48Z</time></trkpt><trkpt lat="45.8094041" lon="10.3569228"><ele>944.0</ele><time>2026-04-27T14:26:48.48Z</time></trkpt><trkpt lat="45.8094254" lon="10.356706"><ele>944.0</ele><time>2026-04-27T14:26:49.48Z</time></trkpt><trkpt lat="45.8094516" lon="10.3564895"><ele>944.0</ele><time>2026-04-27T14:26:50.48Z</time></trkpt><trkpt lat="45.8093621" lon="10.3562622"><ele>944.0</ele><time>2026-04-27T14:26:51.48Z</time></trkpt><trkpt lat="45.8093067" lon="10.3560613"><ele>934.75</ele><time>2026-04-27T14:26:52.48Z</time></trkpt><trkpt lat="45.8092711" lon="10.3558513"><ele>925.5</ele><time>2026-04-27T14:26:53.48Z</time></trkpt><trkpt lat="45.8092595" lon="10.3556527"><ele>916.25</ele><time>2026-04-27T14:26:54.48Z</time></trkpt><trkpt lat="45.8092559" lon="10.3554375"><ele>907.0</ele><time>2026-04-27T14:26:55.481Z</time></trkpt><trkpt lat="45.8093359" lon="10.3552457"><ele>907.0</ele><time>2026-04-27T14:26:56.48Z</time></trkpt><trkpt lat="45.8093676" lon="10.3550315"><ele>907.0</ele><time>2026-04-27T14:26:57.48Z</time></trkpt><trkpt lat="45.809405" lon="10.3548159"><ele>907.0</ele><time>2026-04-27T14:26:58.48Z</time></trkpt><trkpt lat="45.80944" lon="10.3546044"><ele>905.3333333333333</ele><time>2026-04-27T14:26:59.48Z</time></trkpt><trkpt lat="45.8094075" lon="10.3543699"><ele>903.6666666666667</ele><time>2026-04-27T14:27:00.48Z</time></trkpt><trkpt lat="45.809363" lon="10.3541424"><ele>902.0</ele><time>2026-04-27T14:27:01.48Z</time></trkpt><trkpt lat="45.8093051" lon="10.3539238"><ele>895.0</ele><time>2026-04-27T14:27:02.48Z</time></trkpt><trkpt lat="45.8092357" lon="10.3537087"><ele>888.0</ele><time>2026-04-27T14:27:03.48Z</time></trkpt><trkpt lat="45.8091793" lon="10.3534894"><ele>881.0</ele><time>2026-04-27T14:27:04.48Z</time></trkpt><trkpt lat="45.8091281" lon="10.3532789"><ele>881.0</ele><time>2026-04-27T14:27:05.48Z</time></trkpt><trkpt lat="45.8091045" lon="10.3530696"><ele>881.0</ele><time>2026-04-27T14:27:06.48Z</time></trkpt><trkpt lat="45.8090769" lon="10.3528583"><ele>881.0</ele><time>2026-04-27T14:27:07.48Z</time></trkpt><trkpt lat="45.8091498" lon="10.3526451"><ele>881.6666666666667</ele><time>2026-04-27T14:27:08.48Z</time></trkpt><trkpt lat="45.8092078" lon="10.3524399"><ele>882.3333333333333</ele><time>2026-04-27T14:27:09.48Z</time></trkpt><trkpt lat="45.8092572" lon="10.3522216"><ele>883.0</ele><time>2026-04-27T14:27:10.481Z</time></trkpt><trkpt lat="45.8092819" lon="10.3519908"><ele>883.0</ele><time>2026-04-27T14:27:11.48Z</time></trkpt><trkpt lat="45.8093006" lon="10.3517569"><ele>883.0</ele><time>2026-04-27T14:27:12.48Z</time></trkpt><trkpt lat="45.8093368" lon="10.3515219"><ele>883.0</ele><time>2026-04-27T14:27:13.481Z</time></trkpt><trkpt lat="45.8093706" lon="10.3512825"><ele>885.0</ele><time>2026-04-27T14:27:14.48Z</time></trkpt><trkpt lat="45.8094066" lon="10.3510431"><ele>887.0</ele><time>2026-04-27T14:27:15.48Z</time></trkpt><trkpt lat="45.8094431" lon="10.350804"><ele>889.0</ele><time>2026-04-27T14:27:16.481Z</time></trkpt><trkpt lat="45.8094825" lon="10.3505577"><ele>887.3333333333333</ele><time>2026-04-27T14:27:17.48Z</time></trkpt><trkpt lat="45.8095309" lon="10.3503039"><ele>885.6666666666667</ele><time>2026-04-27T14:27:18.48Z</time></trkpt><trkpt lat="45.8095719" lon="10.3500587"><ele>884.0</ele><time>2026-04-27T14:27:19.48Z</time></trkpt><trkpt lat="45.8096292" lon="10.3498029"><ele>882.6666666666667</ele><time>2026-04-27T14:27:20.48Z</time></trkpt><trkpt lat="45.8096742" lon="10.3495527"><ele>881.3333333333333</ele><time>2026-04-27T14:27:21.48Z</time></trkpt><trkpt lat="45.8097213" lon="10.3492995"><ele>880.0</ele><time>2026-04-27T14:27:22.48Z</time></trkpt><trkpt lat="45.8097686" lon="10.3490502"><ele>875.3333333333333</ele><time>2026-04-27T14:27:23.48Z</time></trkpt><trkpt lat="45.809832" lon="10.3488187"><ele>870.6666666666667</ele><time>2026-04-27T14:27:24.48Z</time></trkpt><trkpt lat="45.809882" lon="10.3485699"><ele>866.0</ele><time>2026-04-27T14:27:25.48Z</time></trkpt><trkpt lat="45.8099432" lon="10.3483178"><ele>866.0</ele><time>2026-04-27T14:27:26.481Z</time></trkpt><trkpt lat="45.8099815" lon="10.34806"><ele>866.0</ele><time>2026-04-27T14:27:27.48Z</time></trkpt><trkpt lat="45.8099998" lon="10.3478053"><ele>866.0</ele><time>2026-04-27T14:27:28.48Z</time></trkpt><trkpt lat="45.8100009" lon="10.3475506"><ele>866.6666666666667</ele><time>2026-04-27T14:27:29.48Z</time></trkpt><trkpt lat="45.810006" lon="10.3472988"><ele>867.3333333333333</ele><time>2026-04-27T14:27:30.481Z</time></trkpt><trkpt lat="45.8100107" lon="10.3470617"><ele>868.0</ele><time>2026-04-27T14:27:31.48Z</time></trkpt><trkpt lat="45.8100143" lon="10.3468203"><ele>868.0</ele><time>2026-04-27T14:27:32.48Z</time></trkpt><trkpt lat="45.8100205" lon="10.3465873"><ele>868.0</ele><time>2026-04-27T14:27:33.48Z</time></trkpt><trkpt lat="45.8100269" lon="10.3463588"><ele>868.0</ele><time>2026-04-27T14:27:34.48Z</time></trkpt><trkpt lat="45.8101232" lon="10.3461652"><ele>883.3333333333333</ele><time>2026-04-27T14:27:35.48Z</time></trkpt><trkpt lat="45.8101752" lon="10.3459493"><ele>898.6666666666667</ele><time>2026-04-27T14:27:36.48Z</time></trkpt><trkpt lat="45.8102147" lon="10.3457279"><ele>914.0</ele><time>2026-04-27T14:27:37.48Z</time></trkpt><trkpt lat="45.810228" lon="10.345505"><ele>914.0</ele><time>2026-04-27T14:27:38.48Z</time></trkpt><trkpt lat="45.8102272" lon="10.3452888"><ele>914.0</ele><time>2026-04-27T14:27:39.48Z</time></trkpt><trkpt lat="45.8102109" lon="10.3450817"><ele>914.0</ele><time>2026-04-27T14:27:40.48Z</time></trkpt><trkpt lat="45.8101962" lon="10.3448706"><ele>914.0</ele><time>2026-04-27T14:27:41.481Z</time></trkpt><trkpt lat="45.810178" lon="10.3446707"><ele>912.5</ele><time>2026-04-27T14:27:42.48Z</time></trkpt><trkpt lat="45.8101613" lon="10.344466"><ele>911.0</ele><time>2026-04-27T14:27:43.481Z</time></trkpt><trkpt lat="45.8101493" lon="10.34428"><ele>909.5</ele><time>2026-04-27T14:27:44.48Z</time></trkpt><trkpt lat="45.8101552" lon="10.3441088"><ele>908.0</ele><time>2026-04-27T14:27:45.48Z</time></trkpt><trkpt lat="45.8101553" lon="10.3439325"><ele>904.8</ele><time>2026-04-27T14:27:46.48Z</time></trkpt><trkpt lat="45.8101593" lon="10.343774"><ele>901.5999999999999</ele><time>2026-04-27T14:27:47.481Z</time></trkpt><trkpt lat="45.8101654" lon="10.343622"><ele>898.4000000000001</ele><time>2026-04-27T14:27:48.48Z</time></trkpt><trkpt lat="45.8101702" lon="10.3434644"><ele>895.2</ele><time>2026-04-27T14:27:49.48Z</time></trkpt><trkpt lat="45.8101799" lon="10.3433066"><ele>892.0</ele><time>2026-04-27T14:27:50.48Z</time></trkpt><trkpt lat="45.8101883" lon="10.3431509"><ele>887.75</ele><time>2026-04-27T14:27:51.48Z</time></trkpt><trkpt lat="45.8101938" lon="10.3429872"><ele>883.5</ele><time>2026-04-27T14:27:52.48Z</time></trkpt><trkpt lat="45.8101999" lon="10.3428205"><ele>879.25</ele><time>2026-04-27T14:27:53.48Z</time></trkpt><trkpt lat="45.8102071" lon="10.3426591"><ele>875.0</ele><time>2026-04-27T14:27:54.48Z</time></trkpt><trkpt lat="45.8102089" lon="10.342492"><ele>875.0</ele><time>2026-04-27T14:27:55.48Z</time></trkpt><trkpt lat="45.8102153" lon="10.3423235"><ele>875.0</ele><time>2026-04-27T14:27:56.48Z</time></trkpt><trkpt lat="45.8102286" lon="10.3421566"><ele>875.0</ele><time>2026-04-27T14:27:57.48Z</time></trkpt><trkpt lat="45.810236" lon="10.3419869"><ele>875.0</ele><time>2026-04-27T14:27:58.48Z</time></trkpt><trkpt lat="45.8102443" lon="10.3417665"><ele>872.5</ele><time>2026-04-27T14:27:59.48Z</time></trkpt><trkpt lat="45.8102502" lon="10.3415809"><ele>870.0</ele><time>2026-04-27T14:28:00.48Z</time></trkpt><trkpt lat="45.8102492" lon="10.3413609"><ele>867.5</ele><time>2026-04-27T14:28:01.481Z</time></trkpt><trkpt lat="45.8102576" lon="10.3411625"><ele>865.0</ele><time>2026-04-27T14:28:02.48Z</time></trkpt><trkpt lat="45.8101746" lon="10.340944"><ele>859.0</ele><time>2026-04-27T14:28:03.481Z</time></trkpt><trkpt lat="45.8101407" lon="10.3407383"><ele>853.0</ele><time>2026-04-27T14:28:04.48Z</time></trkpt><trkpt lat="45.8100868" lon="10.3405237"><ele>847.0</ele><time>2026-04-27T14:28:05.481Z</time></trkpt><trkpt lat="45.8100422" lon="10.3403143"><ele>846.6666666666666</ele><time>2026-04-27T14:28:06.48Z</time></trkpt><trkpt lat="45.8099952" lon="10.3400671"><ele>846.3333333333333</ele><time>2026-04-27T14:28:07.48Z</time></trkpt><trkpt lat="45.8099589" lon="10.3398399"><ele>846.0</ele><time>2026-04-27T14:28:08.48Z</time></trkpt><trkpt lat="45.8099902" lon="10.3396088"><ele>846.0</ele><time>2026-04-27T14:28:09.48Z</time></trkpt><trkpt lat="45.8099811" lon="10.3393774"><ele>846.0</ele><time>2026-04-27T14:28:10.481Z</time></trkpt><trkpt lat="45.809975" lon="10.3391846"><ele>846.0</ele><time>2026-04-27T14:28:11.48Z</time></trkpt><trkpt lat="45.8099684" lon="10.3389698"><ele>846.0</ele><time>2026-04-27T14:28:12.48Z</time></trkpt><trkpt lat="45.8099577" lon="10.3387839"><ele>845.25</ele><time>2026-04-27T14:28:13.48Z</time></trkpt><trkpt lat="45.8099484" lon="10.3385823"><ele>844.5</ele><time>2026-04-27T14:28:14.48Z</time></trkpt><trkpt lat="45.8099615" lon="10.3383883"><ele>843.75</ele><time>2026-04-27T14:28:15.481Z</time></trkpt><trkpt lat="45.8099547" lon="10.3381882"><ele>843.0</ele><time>2026-04-27T14:28:16.48Z</time></trkpt><trkpt lat="45.8099506" lon="10.3379963"><ele>842.0</ele><time>2026-04-27T14:28:17.48Z</time></trkpt><trkpt lat="45.809943" lon="10.3378146"><ele>841.0</ele><time>2026-04-27T14:28:18.48Z</time></trkpt><trkpt lat="45.8099327" lon="10.3376231"><ele>840.0</ele><time>2026-04-27T14:28:19.48Z</time></trkpt><trkpt lat="45.8099369" lon="10.3374461"><ele>839.0</ele><time>2026-04-27T14:28:20.48Z</time></trkpt><trkpt lat="45.8099328" lon="10.33726"><ele>839.25</ele><time>2026-04-27T14:28:21.48Z</time></trkpt><trkpt lat="45.8099169" lon="10.3370902"><ele>839.5</ele><time>2026-04-27T14:28:22.48Z</time></trkpt><trkpt lat="45.8099055" lon="10.3369111"><ele>839.75</ele><time>2026-04-27T14:28:23.48Z</time></trkpt><trkpt lat="45.8098538" lon="10.3367493"><ele>840.0</ele><time>2026-04-27T14:28:24.48Z</time></trkpt><trkpt lat="45.8098241" lon="10.3365806"><ele>840.0</ele><time>2026-04-27T14:28:25.481Z</time></trkpt><trkpt lat="45.80976" lon="10.3364476"><ele>840.0</ele><time>2026-04-27T14:28:26.48Z</time></trkpt><trkpt lat="45.8097149" lon="10.3362905"><ele>840.0</ele><time>2026-04-27T14:28:27.48Z</time></trkpt><trkpt lat="45.8096615" lon="10.336128"><ele>840.0</ele><time>2026-04-27T14:28:28.48Z</time></trkpt><trkpt lat="45.8096163" lon="10.3359642"><ele>840.25</ele><time>2026-04-27T14:28:29.48Z</time></trkpt><trkpt lat="45.8095642" lon="10.3357956"><ele>840.5</ele><time>2026-04-27T14:28:30.48Z</time></trkpt><trkpt lat="45.8095154" lon="10.3356246"><ele>840.75</ele><time>2026-04-27T14:28:31.48Z</time></trkpt><trkpt lat="45.8094769" lon="10.3354419"><ele>841.0</ele><time>2026-04-27T14:28:32.48Z</time></trkpt><trkpt lat="45.8094305" lon="10.3352657"><ele>840.5</ele><time>2026-04-27T14:28:33.48Z</time></trkpt><trkpt lat="45.8093774" lon="10.3350961"><ele>840.0</ele><time>2026-04-27T14:28:34.48Z</time></trkpt><trkpt lat="45.809314" lon="10.3349323"><ele>839.5</ele><time>2026-04-27T14:28:35.48Z</time></trkpt><trkpt lat="45.8092217" lon="10.334793"><ele>839.0</ele><time>2026-04-27T14:28:36.481Z</time></trkpt><trkpt lat="45.8091174" lon="10.3346646"><ele>838.25</ele><time>2026-04-27T14:28:37.48Z</time></trkpt><trkpt lat="45.8090338" lon="10.334524"><ele>837.5</ele><time>2026-04-27T14:28:38.48Z</time></trkpt><trkpt lat="45.808957" lon="10.3344075"><ele>836.75</ele><time>2026-04-27T14:28:39.481Z</time></trkpt><trkpt lat="45.808875" lon="10.3342829"><ele>836.0</ele><time>2026-04-27T14:28:40.48Z</time></trkpt><trkpt lat="45.8088089" lon="10.3341803"><ele>836.0</ele><time>2026-04-27T14:28:41.48Z</time></trkpt><trkpt lat="45.8087396" lon="10.3340749"><ele>836.0</ele><time>2026-04-27T14:28:42.48Z</time></trkpt><trkpt lat="45.8087926" lon="10.3338755"><ele>836.0</ele><time>2026-04-27T14:28:43.48Z</time></trkpt><trkpt lat="45.8087722" lon="10.3337196"><ele>836.0</ele><time>2026-04-27T14:28:44.48Z</time></trkpt><trkpt lat="45.8087522" lon="10.3335802"><ele>836.1666666666667</ele><time>2026-04-27T14:28:45.48Z</time></trkpt><trkpt lat="45.8087461" lon="10.3334887"><ele>836.3333333333334</ele><time>2026-04-27T14:28:46.48Z</time></trkpt><trkpt lat="45.808752" lon="10.3333968"><ele>836.5</ele><time>2026-04-27T14:28:49.48Z</time></trkpt><trkpt lat="45.8087194" lon="10.3333161"><ele>836.6666666666667</ele><time>2026-04-27T14:29:33.477Z</time></trkpt><trkpt lat="45.8086764" lon="10.3331618"><ele>836.8333333333334</ele><time>2026-04-27T14:29:34.477Z</time></trkpt><trkpt lat="45.8086433" lon="10.3330345"><ele>837.0</ele><time>2026-04-27T14:29:35.477Z</time></trkpt><trkpt lat="45.8085883" lon="10.3328921"><ele>837.5</ele><time>2026-04-27T14:29:36.477Z</time></trkpt><trkpt lat="45.8085493" lon="10.33276"><ele>838.0</ele><time>2026-04-27T14:29:37.477Z</time></trkpt><trkpt lat="45.8084972" lon="10.3325481"><ele>838.5</ele><time>2026-04-27T14:29:38.477Z</time></trkpt><trkpt lat="45.808445" lon="10.3323912"><ele>839.0</ele><time>2026-04-27T14:29:39.477Z</time></trkpt><trkpt lat="45.8084222" lon="10.3321226"><ele>833.0</ele><time>2026-04-27T14:29:40.477Z</time></trkpt><trkpt lat="45.8084179" lon="10.331906"><ele>827.0</ele><time>2026-04-27T14:29:41.477Z</time></trkpt><trkpt lat="45.808398" lon="10.3316867"><ele>821.0</ele><time>2026-04-27T14:29:42.477Z</time></trkpt><trkpt lat="45.8083715" lon="10.3314522"><ele>820.3333333333334</ele><time>2026-04-27T14:29:43.478Z</time></trkpt><trkpt lat="45.8083725" lon="10.3312244"><ele>819.6666666666667</ele><time>2026-04-27T14:29:44.477Z</time></trkpt><trkpt lat="45.8083836" lon="10.3309931"><ele>819.0</ele><time>2026-04-27T14:29:45.477Z</time></trkpt><trkpt lat="45.8083934" lon="10.330766"><ele>818.0</ele><time>2026-04-27T14:29:46.477Z</time></trkpt><trkpt lat="45.8084449" lon="10.330526"><ele>817.0</ele><time>2026-04-27T14:29:47.478Z</time></trkpt><trkpt lat="45.8085514" lon="10.330345"><ele>816.0</ele><time>2026-04-27T14:29:48.478Z</time></trkpt><trkpt lat="45.8086103" lon="10.3301283"><ele>819.0</ele><time>2026-04-27T14:29:49.477Z</time></trkpt><trkpt lat="45.8086819" lon="10.3298923"><ele>822.0</ele><time>2026-04-27T14:29:50.478Z</time></trkpt><trkpt lat="45.8087549" lon="10.3296617"><ele>825.0</ele><time>2026-04-27T14:29:51.477Z</time></trkpt><trkpt lat="45.8087088" lon="10.329372"><ele>825.0</ele><time>2026-04-27T14:29:52.477Z</time></trkpt><trkpt lat="45.8087291" lon="10.3291228"><ele>825.0</ele><time>2026-04-27T14:29:53.477Z</time></trkpt><trkpt lat="45.8086636" lon="10.3288658"><ele>825.0</ele><time>2026-04-27T14:29:54.477Z</time></trkpt><trkpt lat="45.8086418" lon="10.3286145"><ele>822.0</ele><time>2026-04-27T14:29:55.477Z</time></trkpt><trkpt lat="45.8085808" lon="10.328398"><ele>819.0</ele><time>2026-04-27T14:29:56.478Z</time></trkpt><trkpt lat="45.8085391" lon="10.328163"><ele>816.0</ele><time>2026-04-27T14:29:57.477Z</time></trkpt><trkpt lat="45.8085895" lon="10.327907"><ele>814.6666666666667</ele><time>2026-04-27T14:29:58.477Z</time></trkpt><trkpt lat="45.8085992" lon="10.3276634"><ele>813.3333333333334</ele><time>2026-04-27T14:29:59.478Z</time></trkpt><trkpt lat="45.8086103" lon="10.3274236"><ele>812.0</ele><time>2026-04-27T14:30:00.477Z</time></trkpt><trkpt lat="45.8086096" lon="10.3271963"><ele>812.0</ele><time>2026-04-27T14:30:01.477Z</time></trkpt><trkpt lat="45.8085803" lon="10.3269755"><ele>812.0</ele><time>2026-04-27T14:30:02.477Z</time></trkpt><trkpt lat="45.8085161" lon="10.3267769"><ele>812.0</ele><time>2026-04-27T14:30:03.477Z</time></trkpt><trkpt lat="45.8084585" lon="10.3265769"><ele>809.0</ele><time>2026-04-27T14:30:04.478Z</time></trkpt><trkpt lat="45.8083355" lon="10.3264194"><ele>806.0</ele><time>2026-04-27T14:30:05.477Z</time></trkpt><trkpt lat="45.8082363" lon="10.3262552"><ele>803.0</ele><time>2026-04-27T14:30:06.477Z</time></trkpt><trkpt lat="45.8081074" lon="10.326116"><ele>809.3333333333334</ele><time>2026-04-27T14:30:07.477Z</time></trkpt><trkpt lat="45.8079902" lon="10.3259641"><ele>815.6666666666667</ele><time>2026-04-27T14:30:08.477Z</time></trkpt><trkpt lat="45.8078813" lon="10.3257561"><ele>822.0</ele><time>2026-04-27T14:30:09.477Z</time></trkpt><trkpt lat="45.8077746" lon="10.325568"><ele>819.3333333333333</ele><time>2026-04-27T14:30:10.477Z</time></trkpt><trkpt lat="45.8076745" lon="10.3253742"><ele>816.6666666666666</ele><time>2026-04-27T14:30:11.477Z</time></trkpt><trkpt lat="45.8075664" lon="10.3251968"><ele>814.0</ele><time>2026-04-27T14:30:12.477Z</time></trkpt><trkpt lat="45.8074674" lon="10.3250257"><ele>814.0</ele><time>2026-04-27T14:30:13.477Z</time></trkpt><trkpt lat="45.8073819" lon="10.3248675"><ele>814.0</ele><time>2026-04-27T14:30:14.477Z</time></trkpt><trkpt lat="45.8072871" lon="10.3247484"><ele>814.0</ele><time>2026-04-27T14:30:15.478Z</time></trkpt><trkpt lat="45.8071992" lon="10.3246172"><ele>814.0</ele><time>2026-04-27T14:30:16.477Z</time></trkpt><trkpt lat="45.807071" lon="10.3246128"><ele>812.75</ele><time>2026-04-27T14:30:17.478Z</time></trkpt><trkpt lat="45.8069416" lon="10.3246184"><ele>811.5</ele><time>2026-04-27T14:30:18.477Z</time></trkpt><trkpt lat="45.806853" lon="10.3246765"><ele>810.25</ele><time>2026-04-27T14:30:19.477Z</time></trkpt><trkpt lat="45.8067292" lon="10.3247515"><ele>809.0</ele><time>2026-04-27T14:30:20.477Z</time></trkpt><trkpt lat="45.8066068" lon="10.3247554"><ele>812.0</ele><time>2026-04-27T14:30:21.478Z</time></trkpt><trkpt lat="45.8064805" lon="10.3247253"><ele>815.0</ele><time>2026-04-27T14:30:22.478Z</time></trkpt><trkpt lat="45.8063449" lon="10.3246862"><ele>818.0</ele><time>2026-04-27T14:30:23.477Z</time></trkpt><trkpt lat="45.806212" lon="10.3246465"><ele>821.0</ele><time>2026-04-27T14:30:24.477Z</time></trkpt><trkpt lat="45.806096" lon="10.3245759"><ele>815.5</ele><time>2026-04-27T14:30:25.478Z</time></trkpt><trkpt lat="45.805979" lon="10.3245055"><ele>810.0</ele><time>2026-04-27T14:30:26.477Z</time></trkpt><trkpt lat="45.8058991" lon="10.3244084"><ele>804.5</ele><time>2026-04-27T14:30:27.477Z</time></trkpt><trkpt lat="45.8058853" lon="10.3242128"><ele>799.0</ele><time>2026-04-27T14:30:28.477Z</time></trkpt><trkpt lat="45.8058706" lon="10.3240396"><ele>798.25</ele><time>2026-04-27T14:30:29.477Z</time></trkpt><trkpt lat="45.8058432" lon="10.3238528"><ele>797.5</ele><time>2026-04-27T14:30:30.477Z</time></trkpt><trkpt lat="45.8058028" lon="10.3236645"><ele>796.75</ele><time>2026-04-27T14:30:31.477Z</time></trkpt><trkpt lat="45.8057643" lon="10.3234723"><ele>796.0</ele><time>2026-04-27T14:30:32.478Z</time></trkpt><trkpt lat="45.8057233" lon="10.3232765"><ele>794.3333333333333</ele><time>2026-04-27T14:30:33.478Z</time></trkpt><trkpt lat="45.8057704" lon="10.3230381"><ele>792.6666666666667</ele><time>2026-04-27T14:30:34.478Z</time></trkpt><trkpt lat="45.8058276" lon="10.3228426"><ele>791.0</ele><time>2026-04-27T14:30:35.477Z</time></trkpt><trkpt lat="45.8059083" lon="10.3226762"><ele>799.25</ele><time>2026-04-27T14:30:36.477Z</time></trkpt><trkpt lat="45.8059982" lon="10.3225111"><ele>807.5</ele><time>2026-04-27T14:30:37.477Z</time></trkpt><trkpt lat="45.8060935" lon="10.3223478"><ele>815.75</ele><time>2026-04-27T14:30:38.477Z</time></trkpt><trkpt lat="45.8061458" lon="10.3221405"><ele>824.0</ele><time>2026-04-27T14:30:39.477Z</time></trkpt><trkpt lat="45.8060744" lon="10.3218995"><ele>824.0</ele><time>2026-04-27T14:30:40.477Z</time></trkpt><trkpt lat="45.8060476" lon="10.3216918"><ele>824.0</ele><time>2026-04-27T14:30:41.477Z</time></trkpt><trkpt lat="45.8059823" lon="10.321491"><ele>824.0</ele><time>2026-04-27T14:30:42.477Z</time></trkpt><trkpt lat="45.8058921" lon="10.3213179"><ele>817.0</ele><time>2026-04-27T14:30:43.477Z</time></trkpt><trkpt lat="45.8057722" lon="10.3211819"><ele>810.0</ele><time>2026-04-27T14:30:44.477Z</time></trkpt><trkpt lat="45.8056328" lon="10.3210744"><ele>803.0</ele><time>2026-04-27T14:30:45.478Z</time></trkpt><trkpt lat="45.8054818" lon="10.3209913"><ele>803.0</ele><time>2026-04-27T14:30:46.477Z</time></trkpt><trkpt lat="45.805335" lon="10.3209013"><ele>803.0</ele><time>2026-04-27T14:30:47.477Z</time></trkpt><trkpt lat="45.8051787" lon="10.320851"><ele>803.0</ele><time>2026-04-27T14:30:48.477Z</time></trkpt><trkpt lat="45.805007" lon="10.3208398"><ele>798.0</ele><time>2026-04-27T14:30:49.477Z</time></trkpt><trkpt lat="45.8048537" lon="10.3207904"><ele>793.0</ele><time>2026-04-27T14:30:50.477Z</time></trkpt><trkpt lat="45.8046963" lon="10.3207153"><ele>788.0</ele><time>2026-04-27T14:30:51.477Z</time></trkpt><trkpt lat="45.8045452" lon="10.3206249"><ele>785.25</ele><time>2026-04-27T14:30:52.477Z</time></trkpt><trkpt lat="45.8044071" lon="10.3205153"><ele>782.5</ele><time>2026-04-27T14:30:53.478Z</time></trkpt><trkpt lat="45.8042863" lon="10.3204133"><ele>779.75</ele><time>2026-04-27T14:30:54.477Z</time></trkpt><trkpt lat="45.8041954" lon="10.3202789"><ele>777.0</ele><time>2026-04-27T14:30:55.477Z</time></trkpt><trkpt lat="45.8041006" lon="10.3201502"><ele>777.0</ele><time>2026-04-27T14:30:56.477Z</time></trkpt><trkpt lat="45.804095" lon="10.3199646"><ele>777.0</ele><time>2026-04-27T14:30:57.477Z</time></trkpt><trkpt lat="45.8041112" lon="10.3197788"><ele>777.0</ele><time>2026-04-27T14:30:58.477Z</time></trkpt><trkpt lat="45.8041329" lon="10.3195796"><ele>777.0</ele><time>2026-04-27T14:30:59.477Z</time></trkpt><trkpt lat="45.8041521" lon="10.3193729"><ele>778.6666666666667</ele><time>2026-04-27T14:31:00.478Z</time></trkpt><trkpt lat="45.8041882" lon="10.3191627"><ele>780.3333333333334</ele><time>2026-04-27T14:31:01.477Z</time></trkpt><trkpt lat="45.8042507" lon="10.3189642"><ele>782.0</ele><time>2026-04-27T14:31:02.477Z</time></trkpt><trkpt lat="45.8043214" lon="10.3187605"><ele>789.0</ele><time>2026-04-27T14:31:03.478Z</time></trkpt><trkpt lat="45.8043933" lon="10.3185536"><ele>796.0</ele><time>2026-04-27T14:31:04.477Z</time></trkpt><trkpt lat="45.8044669" lon="10.3183492"><ele>803.0</ele><time>2026-04-27T14:31:05.477Z</time></trkpt><trkpt lat="45.8045275" lon="10.3181279"><ele>801.3333333333334</ele><time>2026-04-27T14:31:06.477Z</time></trkpt><trkpt lat="45.8045942" lon="10.3179151"><ele>799.6666666666667</ele><time>2026-04-27T14:31:07.477Z</time></trkpt><trkpt lat="45.8045287" lon="10.317658"><ele>798.0</ele><time>2026-04-27T14:31:08.477Z</time></trkpt><trkpt lat="45.8045032" lon="10.3174203"><ele>793.6666666666667</ele><time>2026-04-27T14:31:09.477Z</time></trkpt><trkpt lat="45.8044767" lon="10.3171765"><ele>789.3333333333334</ele><time>2026-04-27T14:31:10.477Z</time></trkpt><trkpt lat="45.8044529" lon="10.3169362"><ele>785.0</ele><time>2026-04-27T14:31:11.478Z</time></trkpt><trkpt lat="45.8044255" lon="10.316694"><ele>785.0</ele><time>2026-04-27T14:31:12.477Z</time></trkpt><trkpt lat="45.8045086" lon="10.3164234"><ele>785.0</ele><time>2026-04-27T14:31:13.477Z</time></trkpt><trkpt lat="45.8045528" lon="10.3161778"><ele>785.0</ele><time>2026-04-27T14:31:14.477Z</time></trkpt><trkpt lat="45.8045844" lon="10.3159348"><ele>784.6666666666667</ele><time>2026-04-27T14:31:15.477Z</time></trkpt><trkpt lat="45.8046053" lon="10.3156937"><ele>784.3333333333333</ele><time>2026-04-27T14:31:16.477Z</time></trkpt><trkpt lat="45.8046193" lon="10.3154512"><ele>784.0</ele><time>2026-04-27T14:31:17.477Z</time></trkpt><trkpt lat="45.8045969" lon="10.3152312"><ele>784.0</ele><time>2026-04-27T14:31:18.477Z</time></trkpt><trkpt lat="45.8045336" lon="10.3150347"><ele>784.0</ele><time>2026-04-27T14:31:19.477Z</time></trkpt><trkpt lat="45.8044837" lon="10.3148282"><ele>784.0</ele><time>2026-04-27T14:31:20.477Z</time></trkpt><trkpt lat="45.804345" lon="10.3146938"><ele>779.3333333333333</ele><time>2026-04-27T14:31:21.478Z</time></trkpt><trkpt lat="45.8042037" lon="10.3145665"><ele>774.6666666666667</ele><time>2026-04-27T14:31:22.477Z</time></trkpt><trkpt lat="45.8041382" lon="10.3143714"><ele>770.0</ele><time>2026-04-27T14:31:23.477Z</time></trkpt><trkpt lat="45.8040661" lon="10.3141769"><ele>770.0</ele><time>2026-04-27T14:31:24.477Z</time></trkpt><trkpt lat="45.8039566" lon="10.3140244"><ele>770.0</ele><time>2026-04-27T14:31:25.477Z</time></trkpt><trkpt lat="45.803825" lon="10.3138919"><ele>770.0</ele><time>2026-04-27T14:31:26.477Z</time></trkpt><trkpt lat="45.8036818" lon="10.3138045"><ele>769.6666666666667</ele><time>2026-04-27T14:31:27.477Z</time></trkpt><trkpt lat="45.8035381" lon="10.3137355"><ele>769.3333333333333</ele><time>2026-04-27T14:31:28.477Z</time></trkpt><trkpt lat="45.80339" lon="10.313673"><ele>769.0</ele><time>2026-04-27T14:31:29.477Z</time></trkpt><trkpt lat="45.8032386" lon="10.3136152"><ele>769.0</ele><time>2026-04-27T14:31:30.477Z</time></trkpt><trkpt lat="45.8030755" lon="10.3135613"><ele>769.0</ele><time>2026-04-27T14:31:31.477Z</time></trkpt><trkpt lat="45.8029846" lon="10.3133777"><ele>769.0</ele><time>2026-04-27T14:31:32.477Z</time></trkpt><trkpt lat="45.8029082" lon="10.3132223"><ele>768.75</ele><time>2026-04-27T14:31:33.477Z</time></trkpt><trkpt lat="45.8028536" lon="10.3130444"><ele>768.5</ele><time>2026-04-27T14:31:34.477Z</time></trkpt><trkpt lat="45.8028263" lon="10.3128525"><ele>768.25</ele><time>2026-04-27T14:31:35.477Z</time></trkpt><trkpt lat="45.8028322" lon="10.3126561"><ele>768.0</ele><time>2026-04-27T14:31:36.477Z</time></trkpt><trkpt lat="45.8028729" lon="10.3124654"><ele>768.0</ele><time>2026-04-27T14:31:37.477Z</time></trkpt><trkpt lat="45.8029419" lon="10.3122864"><ele>768.0</ele><time>2026-04-27T14:31:38.477Z</time></trkpt><trkpt lat="45.8030058" lon="10.3121046"><ele>768.0</ele><time>2026-04-27T14:31:39.477Z</time></trkpt><trkpt lat="45.8031154" lon="10.3119621"><ele>768.0</ele><time>2026-04-27T14:31:40.477Z</time></trkpt><trkpt lat="45.8031361" lon="10.3117384"><ele>765.3333333333334</ele><time>2026-04-27T14:31:41.477Z</time></trkpt><trkpt lat="45.8031441" lon="10.3115223"><ele>762.6666666666667</ele><time>2026-04-27T14:31:42.477Z</time></trkpt><trkpt lat="45.8031489" lon="10.3113108"><ele>760.0</ele><time>2026-04-27T14:31:43.477Z</time></trkpt><trkpt lat="45.8031587" lon="10.3110928"><ele>758.3333333333334</ele><time>2026-04-27T14:31:44.477Z</time></trkpt><trkpt lat="45.8031619" lon="10.3108694"><ele>756.6666666666666</ele><time>2026-04-27T14:31:45.477Z</time></trkpt><trkpt lat="45.8031729" lon="10.3106476"><ele>755.0</ele><time>2026-04-27T14:31:46.477Z</time></trkpt><trkpt lat="45.8031701" lon="10.3104176"><ele>755.0</ele><time>2026-04-27T14:31:47.478Z</time></trkpt><trkpt lat="45.8031664" lon="10.3101879"><ele>755.0</ele><time>2026-04-27T14:31:48.477Z</time></trkpt><trkpt lat="45.8031272" lon="10.3099538"><ele>755.0</ele><time>2026-04-27T14:31:49.477Z</time></trkpt><trkpt lat="45.8030116" lon="10.3097632"><ele>756.6666666666666</ele><time>2026-04-27T14:31:50.477Z</time></trkpt><trkpt lat="45.8029366" lon="10.3095505"><ele>758.3333333333334</ele><time>2026-04-27T14:31:51.477Z</time></trkpt><trkpt lat="45.8028837" lon="10.3093319"><ele>760.0</ele><time>2026-04-27T14:31:52.477Z</time></trkpt><trkpt lat="45.8028414" lon="10.3091094"><ele>753.0</ele><time>2026-04-27T14:31:53.477Z</time></trkpt><trkpt lat="45.8027988" lon="10.3088835"><ele>746.0</ele><time>2026-04-27T14:31:54.477Z</time></trkpt><trkpt lat="45.8028014" lon="10.3086703"><ele>739.0</ele><time>2026-04-27T14:31:55.478Z</time></trkpt><trkpt lat="45.8027886" lon="10.3084545"><ele>739.0</ele><time>2026-04-27T14:31:56.477Z</time></trkpt><trkpt lat="45.8028641" lon="10.3082829"><ele>739.0</ele><time>2026-04-27T14:31:57.477Z</time></trkpt><trkpt lat="45.8028907" lon="10.3080885"><ele>739.0</ele><time>2026-04-27T14:31:58.477Z</time></trkpt><trkpt lat="45.8030927" lon="10.3080707"><ele>740.0</ele><time>2026-04-27T14:31:59.477Z</time></trkpt><trkpt lat="45.80319" lon="10.3079522"><ele>741.0</ele><time>2026-04-27T14:32:00.478Z</time></trkpt><trkpt lat="45.8033969" lon="10.3079777"><ele>742.0</ele><time>2026-04-27T14:32:01.477Z</time></trkpt><trkpt lat="45.8035273" lon="10.307913"><ele>749.0</ele><time>2026-04-27T14:32:02.477Z</time></trkpt><trkpt lat="45.8036879" lon="10.3078414"><ele>756.0</ele><time>2026-04-27T14:32:03.477Z</time></trkpt><trkpt lat="45.8038037" lon="10.3077401"><ele>763.0</ele><time>2026-04-27T14:32:04.477Z</time></trkpt><trkpt lat="45.8038693" lon="10.3076063"><ele>770.0</ele><time>2026-04-27T14:32:05.477Z</time></trkpt><trkpt lat="45.803892" lon="10.3074289"><ele>770.0</ele><time>2026-04-27T14:32:06.477Z</time></trkpt><trkpt lat="45.8039094" lon="10.3072582"><ele>770.0</ele><time>2026-04-27T14:32:07.478Z</time></trkpt><trkpt lat="45.8038256" lon="10.3070899"><ele>770.0</ele><time>2026-04-27T14:32:08.477Z</time></trkpt><trkpt lat="45.803757" lon="10.3069056"><ele>770.0</ele><time>2026-04-27T14:32:09.477Z</time></trkpt><trkpt lat="45.8036927" lon="10.3067193"><ele>767.6666666666667</ele><time>2026-04-27T14:32:10.477Z</time></trkpt><trkpt lat="45.8035888" lon="10.3065746"><ele>765.3333333333334</ele><time>2026-04-27T14:32:11.477Z</time></trkpt><trkpt lat="45.8034262" lon="10.3065337"><ele>763.0</ele><time>2026-04-27T14:32:12.477Z</time></trkpt><trkpt lat="45.8033237" lon="10.3063934"><ele>757.5</ele><time>2026-04-27T14:32:13.477Z</time></trkpt><trkpt lat="45.8032482" lon="10.3062341"><ele>752.0</ele><time>2026-04-27T14:32:14.477Z</time></trkpt><trkpt lat="45.8032109" lon="10.3060711"><ele>746.5</ele><time>2026-04-27T14:32:15.478Z</time></trkpt><trkpt lat="45.8031684" lon="10.3059038"><ele>741.0</ele><time>2026-04-27T14:32:16.477Z</time></trkpt><trkpt lat="45.8031964" lon="10.3057106"><ele>736.3333333333334</ele><time>2026-04-27T14:32:17.477Z</time></trkpt><trkpt lat="45.8032065" lon="10.305527"><ele>731.6666666666667</ele><time>2026-04-27T14:32:18.478Z</time></trkpt><trkpt lat="45.803348" lon="10.3053491"><ele>727.0</ele><time>2026-04-27T14:32:19.477Z</time></trkpt><trkpt lat="45.8034144" lon="10.3051404"><ele>727.0</ele><time>2026-04-27T14:32:20.477Z</time></trkpt><trkpt lat="45.8034308" lon="10.3049132"><ele>727.0</ele><time>2026-04-27T14:32:21.477Z</time></trkpt><trkpt lat="45.8034112" lon="10.3046959"><ele>727.0</ele><time>2026-04-27T14:32:22.477Z</time></trkpt><trkpt lat="45.8033957" lon="10.3044698"><ele>730.3333333333334</ele><time>2026-04-27T14:32:23.477Z</time></trkpt><trkpt lat="45.8032896" lon="10.3042878"><ele>733.6666666666666</ele><time>2026-04-27T14:32:24.477Z</time></trkpt><trkpt lat="45.8031763" lon="10.304098"><ele>737.0</ele><time>2026-04-27T14:32:25.477Z</time></trkpt><trkpt lat="45.8030184" lon="10.3040457"><ele>739.0</ele><time>2026-04-27T14:32:26.478Z</time></trkpt><trkpt lat="45.8029085" lon="10.3038972"><ele>741.0</ele><time>2026-04-27T14:32:27.477Z</time></trkpt><trkpt lat="45.8028306" lon="10.3037395"><ele>743.0</ele><time>2026-04-27T14:32:28.477Z</time></trkpt><trkpt lat="45.8027888" lon="10.3035662"><ele>745.0</ele><time>2026-04-27T14:32:29.478Z</time></trkpt><trkpt lat="45.802775" lon="10.3033968"><ele>745.0</ele><time>2026-04-27T14:32:30.477Z</time></trkpt><trkpt lat="45.8027951" lon="10.3032255"><ele>745.0</ele><time>2026-04-27T14:32:31.477Z</time></trkpt><trkpt lat="45.8028606" lon="10.3030629"><ele>745.0</ele><time>2026-04-27T14:32:32.477Z</time></trkpt><trkpt lat="45.8029141" lon="10.3029012"><ele>745.0</ele><time>2026-04-27T14:32:33.477Z</time></trkpt><trkpt lat="45.8030082" lon="10.3027738"><ele>742.0</ele><time>2026-04-27T14:32:34.477Z</time></trkpt><trkpt lat="45.8030917" lon="10.3026862"><ele>739.0</ele><time>2026-04-27T14:32:35.477Z</time></trkpt><trkpt lat="45.8031609" lon="10.3025726"><ele>736.0</ele><time>2026-04-27T14:32:36.477Z</time></trkpt><trkpt lat="45.8032232" lon="10.3024471"><ele>733.0</ele><time>2026-04-27T14:32:37.477Z</time></trkpt><trkpt lat="45.8032757" lon="10.302323"><ele>730.0</ele><time>2026-04-27T14:32:38.477Z</time></trkpt><trkpt lat="45.8033188" lon="10.3021895"><ele>727.8</ele><time>2026-04-27T14:32:39.477Z</time></trkpt><trkpt lat="45.8033506" lon="10.3020525"><ele>725.6</ele><time>2026-04-27T14:32:40.477Z</time></trkpt><trkpt lat="45.8033605" lon="10.3019119"><ele>723.4000000000001</ele><time>2026-04-27T14:32:41.477Z</time></trkpt><trkpt lat="45.8033752" lon="10.3017712"><ele>721.2</ele><time>2026-04-27T14:32:42.477Z</time></trkpt><trkpt lat="45.8033601" lon="10.3016282"><ele>719.0</ele><time>2026-04-27T14:32:43.477Z</time></trkpt><trkpt lat="45.8033669" lon="10.3014722"><ele>721.4000000000001</ele><time>2026-04-27T14:32:44.477Z</time></trkpt><trkpt lat="45.8033526" lon="10.3013363"><ele>723.8</ele><time>2026-04-27T14:32:45.477Z</time></trkpt><trkpt lat="45.8033197" lon="10.3011978"><ele>726.2</ele><time>2026-04-27T14:32:46.478Z</time></trkpt><trkpt lat="45.8032653" lon="10.3010825"><ele>728.5999999999999</ele><time>2026-04-27T14:32:47.478Z</time></trkpt><trkpt lat="45.8031936" lon="10.3009906"><ele>731.0</ele><time>2026-04-27T14:32:48.477Z</time></trkpt><trkpt lat="45.8031149" lon="10.3009141"><ele>731.0</ele><time>2026-04-27T14:32:49.478Z</time></trkpt><trkpt lat="45.8030335" lon="10.3008451"><ele>731.0</ele><time>2026-04-27T14:32:50.478Z</time></trkpt><trkpt lat="45.8029475" lon="10.3007719"><ele>731.0</ele><time>2026-04-27T14:32:51.477Z</time></trkpt><trkpt lat="45.8028618" lon="10.300697"><ele>731.0</ele><time>2026-04-27T14:32:52.477Z</time></trkpt><trkpt lat="45.8027924" lon="10.3006065"><ele>731.0</ele><time>2026-04-27T14:32:53.478Z</time></trkpt><trkpt lat="45.8027375" lon="10.3004989"><ele>729.1999999999999</ele><time>2026-04-27T14:32:54.477Z</time></trkpt><trkpt lat="45.8026968" lon="10.3003809"><ele>727.4</ele><time>2026-04-27T14:32:55.477Z</time></trkpt><trkpt lat="45.8026666" lon="10.3002465"><ele>725.6</ele><time>2026-04-27T14:32:56.478Z</time></trkpt><trkpt lat="45.8026358" lon="10.3001074"><ele>723.8</ele><time>2026-04-27T14:32:57.477Z</time></trkpt><trkpt lat="45.8025973" lon="10.2999558"><ele>722.0</ele><time>2026-04-27T14:32:58.478Z</time></trkpt><trkpt lat="45.802555" lon="10.2997775"><ele>720.75</ele><time>2026-04-27T14:32:59.477Z</time></trkpt><trkpt lat="45.802517" lon="10.2996047"><ele>719.5</ele><time>2026-04-27T14:33:00.477Z</time></trkpt><trkpt lat="45.8024829" lon="10.2994253"><ele>718.25</ele><time>2026-04-27T14:33:01.477Z</time></trkpt><trkpt lat="45.8024485" lon="10.2992441"><ele>717.0</ele><time>2026-04-27T14:33:02.477Z</time></trkpt><trkpt lat="45.8024113" lon="10.2990662"><ele>719.75</ele><time>2026-04-27T14:33:03.477Z</time></trkpt><trkpt lat="45.8023636" lon="10.2989016"><ele>722.5</ele><time>2026-04-27T14:33:04.477Z</time></trkpt><trkpt lat="45.8022603" lon="10.2988006"><ele>725.25</ele><time>2026-04-27T14:33:05.477Z</time></trkpt><trkpt lat="45.8021502" lon="10.2987216"><ele>728.0</ele><time>2026-04-27T14:33:06.477Z</time></trkpt><trkpt lat="45.8020438" lon="10.2986526"><ele>728.0</ele><time>2026-04-27T14:33:07.477Z</time></trkpt><trkpt lat="45.8019489" lon="10.2985734"><ele>728.0</ele><time>2026-04-27T14:33:08.477Z</time></trkpt><trkpt lat="45.8018612" lon="10.2984858"><ele>728.0</ele><time>2026-04-27T14:33:09.477Z</time></trkpt><trkpt lat="45.8017825" lon="10.2983902"><ele>728.0</ele><time>2026-04-27T14:33:10.477Z</time></trkpt><trkpt lat="45.801713" lon="10.2982846"><ele>728.0</ele><time>2026-04-27T14:33:11.477Z</time></trkpt><trkpt lat="45.801646" lon="10.2981762"><ele>723.8</ele><time>2026-04-27T14:33:12.477Z</time></trkpt><trkpt lat="45.8015879" lon="10.2980483"><ele>719.5999999999999</ele><time>2026-04-27T14:33:13.477Z</time></trkpt><trkpt lat="45.8015808" lon="10.2978991"><ele>715.4000000000001</ele><time>2026-04-27T14:33:14.477Z</time></trkpt><trkpt lat="45.8015943" lon="10.2977442"><ele>711.2</ele><time>2026-04-27T14:33:15.478Z</time></trkpt><trkpt lat="45.8016259" lon="10.2975884"><ele>707.0</ele><time>2026-04-27T14:33:16.477Z</time></trkpt><trkpt lat="45.8016613" lon="10.2974229"><ele>706.75</ele><time>2026-04-27T14:33:17.478Z</time></trkpt><trkpt lat="45.8016938" lon="10.2972487"><ele>706.5</ele><time>2026-04-27T14:33:18.477Z</time></trkpt><trkpt lat="45.8017314" lon="10.2970714"><ele>706.25</ele><time>2026-04-27T14:33:19.478Z</time></trkpt><trkpt lat="45.8017698" lon="10.2968956"><ele>706.0</ele><time>2026-04-27T14:33:20.477Z</time></trkpt><trkpt lat="45.801807" lon="10.2967261"><ele>708.75</ele><time>2026-04-27T14:33:21.477Z</time></trkpt><trkpt lat="45.801881" lon="10.2965689"><ele>711.5</ele><time>2026-04-27T14:33:22.477Z</time></trkpt><trkpt lat="45.8019804" lon="10.2964385"><ele>714.25</ele><time>2026-04-27T14:33:23.478Z</time></trkpt><trkpt lat="45.802078" lon="10.2963234"><ele>717.0</ele><time>2026-04-27T14:33:24.477Z</time></trkpt><trkpt lat="45.8021562" lon="10.2962003"><ele>717.0</ele><time>2026-04-27T14:33:25.477Z</time></trkpt><trkpt lat="45.8022148" lon="10.296059"><ele>717.0</ele><time>2026-04-27T14:33:26.477Z</time></trkpt><trkpt lat="45.8022553" lon="10.2959061"><ele>717.0</ele><time>2026-04-27T14:33:27.478Z</time></trkpt><trkpt lat="45.8022744" lon="10.2957444"><ele>717.0</ele><time>2026-04-27T14:33:28.477Z</time></trkpt><trkpt lat="45.8022929" lon="10.2955842"><ele>715.75</ele><time>2026-04-27T14:33:29.477Z</time></trkpt><trkpt lat="45.8022951" lon="10.2954216"><ele>714.5</ele><time>2026-04-27T14:33:30.478Z</time></trkpt><trkpt lat="45.802283" lon="10.2952552"><ele>713.25</ele><time>2026-04-27T14:33:31.477Z</time></trkpt><trkpt lat="45.8022684" lon="10.295091"><ele>712.0</ele><time>2026-04-27T14:33:32.477Z</time></trkpt><trkpt lat="45.8022408" lon="10.2949299"><ele>712.0</ele><time>2026-04-27T14:33:33.477Z</time></trkpt><trkpt lat="45.8021979" lon="10.2947753"><ele>712.0</ele><time>2026-04-27T14:33:34.478Z</time></trkpt><trkpt lat="45.8021465" lon="10.2946353"><ele>712.0</ele><time>2026-04-27T14:33:35.477Z</time></trkpt><trkpt lat="45.8020964" lon="10.2944976"><ele>712.0</ele><time>2026-04-27T14:33:36.477Z</time></trkpt><trkpt lat="45.8020488" lon="10.2943594"><ele>712.0</ele><time>2026-04-27T14:33:37.477Z</time></trkpt><trkpt lat="45.8020031" lon="10.2942238"><ele>710.2</ele><time>2026-04-27T14:33:38.477Z</time></trkpt><trkpt lat="45.8019509" lon="10.2941007"><ele>708.4000000000001</ele><time>2026-04-27T14:33:39.477Z</time></trkpt><trkpt lat="45.8019051" lon="10.2939781"><ele>706.5999999999999</ele><time>2026-04-27T14:33:40.477Z</time></trkpt><trkpt lat="45.8018609" lon="10.2938586"><ele>704.8</ele><time>2026-04-27T14:33:41.477Z</time></trkpt><trkpt lat="45.8018208" lon="10.2937416"><ele>703.0</ele><time>2026-04-27T14:33:42.477Z</time></trkpt><trkpt lat="45.8017755" lon="10.2936311"><ele>703.0</ele><time>2026-04-27T14:33:43.478Z</time></trkpt><trkpt lat="45.8017286" lon="10.2935223"><ele>703.0</ele><time>2026-04-27T14:33:44.477Z</time></trkpt><trkpt lat="45.8016872" lon="10.2934142"><ele>703.0</ele><time>2026-04-27T14:33:45.477Z</time></trkpt><trkpt lat="45.8016452" lon="10.2933093"><ele>703.0</ele><time>2026-04-27T14:33:46.477Z</time></trkpt><trkpt lat="45.8016029" lon="10.2932037"><ele>703.0</ele><time>2026-04-27T14:33:47.478Z</time></trkpt><trkpt lat="45.8015619" lon="10.2931004"><ele>703.0</ele><time>2026-04-27T14:33:48.477Z</time></trkpt><trkpt lat="45.8015114" lon="10.2930043"><ele>703.0</ele><time>2026-04-27T14:33:49.477Z</time></trkpt><trkpt lat="45.8014684" lon="10.2929078"><ele>703.0</ele><time>2026-04-27T14:33:50.477Z</time></trkpt><trkpt lat="45.8014356" lon="10.2928105"><ele>703.0</ele><time>2026-04-27T14:33:51.477Z</time></trkpt><trkpt lat="45.8014035" lon="10.2927108"><ele>703.0</ele><time>2026-04-27T14:33:52.477Z</time></trkpt><trkpt lat="45.8013696" lon="10.2926051"><ele>703.0</ele><time>2026-04-27T14:33:53.477Z</time></trkpt><trkpt lat="45.8013886" lon="10.2924923"><ele>703.0</ele><time>2026-04-27T14:33:54.477Z</time></trkpt><trkpt lat="45.8014066" lon="10.2923846"><ele>703.0</ele><time>2026-04-27T14:33:55.478Z</time></trkpt><trkpt lat="45.8014323" lon="10.2922703"><ele>703.0</ele><time>2026-04-27T14:33:56.477Z</time></trkpt><trkpt lat="45.801462" lon="10.2921394"><ele>703.0</ele><time>2026-04-27T14:33:57.477Z</time></trkpt><trkpt lat="45.801491" lon="10.2919987"><ele>703.0</ele><time>2026-04-27T14:33:58.477Z</time></trkpt><trkpt lat="45.8015229" lon="10.2918549"><ele>703.0</ele><time>2026-04-27T14:33:59.478Z</time></trkpt><trkpt lat="45.8015578" lon="10.291702"><ele>700.8</ele><time>2026-04-27T14:34:00.477Z</time></trkpt><trkpt lat="45.8015915" lon="10.2915496"><ele>698.5999999999999</ele><time>2026-04-27T14:34:01.477Z</time></trkpt><trkpt lat="45.8016293" lon="10.2913983"><ele>696.4000000000001</ele><time>2026-04-27T14:34:02.477Z</time></trkpt><trkpt lat="45.8016232" lon="10.2912572"><ele>694.2</ele><time>2026-04-27T14:34:03.477Z</time></trkpt><trkpt lat="45.8015869" lon="10.2911169"><ele>692.0</ele><time>2026-04-27T14:34:04.477Z</time></trkpt><trkpt lat="45.8015269" lon="10.2909894"><ele>689.6666666666666</ele><time>2026-04-27T14:34:05.477Z</time></trkpt><trkpt lat="45.8014465" lon="10.2908844"><ele>687.3333333333334</ele><time>2026-04-27T14:34:06.477Z</time></trkpt><trkpt lat="45.8011721" lon="10.2907078"><ele>685.0</ele><time>2026-04-27T14:34:09.48Z</time></trkpt><trkpt lat="45.8010708" lon="10.2906837"><ele>685.25</ele><time>2026-04-27T14:34:10.479Z</time></trkpt><trkpt lat="45.800967" lon="10.2906913"><ele>685.5</ele><time>2026-04-27T14:34:11.48Z</time></trkpt><trkpt lat="45.8008605" lon="10.2906972"><ele>685.75</ele><time>2026-04-27T14:34:12.471Z</time></trkpt><trkpt lat="45.800748" lon="10.2907938"><ele>686.0</ele><time>2026-04-27T14:34:13.479Z</time></trkpt><trkpt lat="45.8006401" lon="10.2908934"><ele>686.0</ele><time>2026-04-27T14:34:14.479Z</time></trkpt><trkpt lat="45.8005317" lon="10.2909849"><ele>686.0</ele><time>2026-04-27T14:34:15.479Z</time></trkpt><trkpt lat="45.8004289" lon="10.2910805"><ele>686.0</ele><time>2026-04-27T14:34:16.479Z</time></trkpt><trkpt lat="45.8003288" lon="10.29117"><ele>686.0</ele><time>2026-04-27T14:34:17.479Z</time></trkpt><trkpt lat="45.8002286" lon="10.2912315"><ele>685.25</ele><time>2026-04-27T14:34:18.479Z</time></trkpt><trkpt lat="45.8001197" lon="10.2912591"><ele>684.5</ele><time>2026-04-27T14:34:19.479Z</time></trkpt><trkpt lat="45.8000172" lon="10.2911675"><ele>683.75</ele><time>2026-04-27T14:34:20.479Z</time></trkpt><trkpt lat="45.7999356" lon="10.2909936"><ele>683.0</ele><time>2026-04-27T14:34:21.479Z</time></trkpt><trkpt lat="45.7998634" lon="10.2908187"><ele>683.0</ele><time>2026-04-27T14:34:22.479Z</time></trkpt><trkpt lat="45.7998015" lon="10.2906403"><ele>683.0</ele><time>2026-04-27T14:34:23.479Z</time></trkpt><trkpt lat="45.7997555" lon="10.2904484"><ele>683.0</ele><time>2026-04-27T14:34:24.479Z</time></trkpt><trkpt lat="45.7997197" lon="10.2902513"><ele>683.0</ele><time>2026-04-27T14:34:25.479Z</time></trkpt><trkpt lat="45.7996821" lon="10.2900544"><ele>685.25</ele><time>2026-04-27T14:34:26.48Z</time></trkpt><trkpt lat="45.7996377" lon="10.2898536"><ele>687.5</ele><time>2026-04-27T14:34:27.479Z</time></trkpt><trkpt lat="45.7995966" lon="10.2896575"><ele>689.75</ele><time>2026-04-27T14:34:28.479Z</time></trkpt><trkpt lat="45.7995541" lon="10.2894583"><ele>692.0</ele><time>2026-04-27T14:34:29.479Z</time></trkpt><trkpt lat="45.7995124" lon="10.2892622"><ele>697.75</ele><time>2026-04-27T14:34:30.479Z</time></trkpt><trkpt lat="45.7994727" lon="10.2890704"><ele>703.5</ele><time>2026-04-27T14:34:31.479Z</time></trkpt><trkpt lat="45.7994344" lon="10.2888781"><ele>709.25</ele><time>2026-04-27T14:34:32.479Z</time></trkpt><trkpt lat="45.799397" lon="10.2886869"><ele>715.0</ele><time>2026-04-27T14:34:33.479Z</time></trkpt><trkpt lat="45.799362" lon="10.2885023"><ele>707.25</ele><time>2026-04-27T14:34:34.479Z</time></trkpt><trkpt lat="45.7993208" lon="10.288326"><ele>699.5</ele><time>2026-04-27T14:34:35.479Z</time></trkpt><trkpt lat="45.7992872" lon="10.2881586"><ele>691.75</ele><time>2026-04-27T14:34:36.479Z</time></trkpt><trkpt lat="45.7992535" lon="10.2879839"><ele>684.0</ele><time>2026-04-27T14:34:37.479Z</time></trkpt><trkpt lat="45.7992164" lon="10.2878093"><ele>684.0</ele><time>2026-04-27T14:34:38.479Z</time></trkpt><trkpt lat="45.79917" lon="10.2877009"><ele>684.0</ele><time>2026-04-27T14:34:39.479Z</time></trkpt><trkpt lat="45.7990879" lon="10.2875861"><ele>684.0</ele><time>2026-04-27T14:34:40.479Z</time></trkpt><trkpt lat="45.7990181" lon="10.2874649"><ele>684.0</ele><time>2026-04-27T14:34:41.479Z</time></trkpt><trkpt lat="45.798956" lon="10.2873402"><ele>684.0</ele><time>2026-04-27T14:34:42.48Z</time></trkpt><trkpt lat="45.7988913" lon="10.287216"><ele>684.4000000000001</ele><time>2026-04-27T14:34:43.479Z</time></trkpt><trkpt lat="45.7988561" lon="10.2870798"><ele>684.8</ele><time>2026-04-27T14:34:44.479Z</time></trkpt><trkpt lat="45.798824" lon="10.2869397"><ele>685.2</ele><time>2026-04-27T14:34:45.479Z</time></trkpt><trkpt lat="45.7988946" lon="10.286778"><ele>685.5999999999999</ele><time>2026-04-27T14:34:46.479Z</time></trkpt><trkpt lat="45.7989073" lon="10.2866306"><ele>686.0</ele><time>2026-04-27T14:34:47.479Z</time></trkpt><trkpt lat="45.7989206" lon="10.28648"><ele>688.4</ele><time>2026-04-27T14:34:48.479Z</time></trkpt><trkpt lat="45.7989211" lon="10.2863272"><ele>690.8</ele><time>2026-04-27T14:34:49.479Z</time></trkpt><trkpt lat="45.7989078" lon="10.2861728"><ele>693.1999999999999</ele><time>2026-04-27T14:34:50.479Z</time></trkpt><trkpt lat="45.7988721" lon="10.2860269"><ele>695.5999999999999</ele><time>2026-04-27T14:34:51.479Z</time></trkpt><trkpt lat="45.7988177" lon="10.2858921"><ele>698.0</ele><time>2026-04-27T14:34:52.479Z</time></trkpt><trkpt lat="45.7987687" lon="10.285752"><ele>698.0</ele><time>2026-04-27T14:34:53.48Z</time></trkpt><trkpt lat="45.798696" lon="10.2856354"><ele>698.0</ele><time>2026-04-27T14:34:54.479Z</time></trkpt><trkpt lat="45.7986157" lon="10.2855489"><ele>698.0</ele><time>2026-04-27T14:34:55.479Z</time></trkpt><trkpt lat="45.7985271" lon="10.2854513"><ele>698.0</ele><time>2026-04-27T14:34:56.479Z</time></trkpt><trkpt lat="45.7984303" lon="10.285364"><ele>698.0</ele><time>2026-04-27T14:34:57.479Z</time></trkpt><trkpt lat="45.7983282" lon="10.2852995"><ele>691.5999999999999</ele><time>2026-04-27T14:34:58.479Z</time></trkpt><trkpt lat="45.7982236" lon="10.2852636"><ele>685.1999999999999</ele><time>2026-04-27T14:34:59.479Z</time></trkpt><trkpt lat="45.7981204" lon="10.2852553"><ele>678.8</ele><time>2026-04-27T14:35:00.479Z</time></trkpt><trkpt lat="45.7980175" lon="10.2852848"><ele>672.4</ele><time>2026-04-27T14:35:01.479Z</time></trkpt><trkpt lat="45.7979158" lon="10.2853001"><ele>666.0</ele><time>2026-04-27T14:35:02.479Z</time></trkpt><trkpt lat="45.7978232" lon="10.2852844"><ele>666.0</ele><time>2026-04-27T14:35:03.479Z</time></trkpt><trkpt lat="45.797737" lon="10.2852163"><ele>666.0</ele><time>2026-04-27T14:35:06.479Z</time></trkpt><trkpt lat="45.7976862" lon="10.2851588"><ele>666.0</ele><time>2026-04-27T14:35:08.48Z</time></trkpt><trkpt lat="45.7976118" lon="10.2851149"><ele>666.0</ele><time>2026-04-27T14:35:31.48Z</time></trkpt><trkpt lat="45.797608" lon="10.2849733"><ele>666.0</ele><time>2026-04-27T14:35:34.479Z</time></trkpt><trkpt lat="45.7976378" lon="10.2848039"><ele>667.3333333333334</ele><time>2026-04-27T14:35:36.479Z</time></trkpt><trkpt lat="45.7976552" lon="10.2846982"><ele>668.6666666666666</ele><time>2026-04-27T14:35:37.479Z</time></trkpt><trkpt lat="45.7976891" lon="10.2845988"><ele>670.0</ele><time>2026-04-27T14:35:38.479Z</time></trkpt><trkpt lat="45.7977288" lon="10.2844893"><ele>671.3333333333333</ele><time>2026-04-27T14:35:39.479Z</time></trkpt><trkpt lat="45.797766" lon="10.284382"><ele>672.6666666666666</ele><time>2026-04-27T14:35:40.479Z</time></trkpt><trkpt lat="45.7978071" lon="10.2842474"><ele>674.0</ele><time>2026-04-27T14:35:41.479Z</time></trkpt><trkpt lat="45.7978302" lon="10.2840906"><ele>674.0</ele><time>2026-04-27T14:35:42.479Z</time></trkpt><trkpt lat="45.7978642" lon="10.283956"><ele>674.0</ele><time>2026-04-27T14:35:43.479Z</time></trkpt><trkpt lat="45.797834" lon="10.2838274"><ele>674.0</ele><time>2026-04-27T14:35:44.48Z</time></trkpt><trkpt lat="45.7978347" lon="10.2837041"><ele>674.0</ele><time>2026-04-27T14:35:45.48Z</time></trkpt><trkpt lat="45.7978131" lon="10.2835728"><ele>674.0</ele><time>2026-04-27T14:35:46.479Z</time></trkpt><trkpt lat="45.7977985" lon="10.2834454"><ele>672.5</ele><time>2026-04-27T14:35:47.479Z</time></trkpt><trkpt lat="45.7977487" lon="10.2833333"><ele>671.0</ele><time>2026-04-27T14:35:48.479Z</time></trkpt><trkpt lat="45.7977017" lon="10.2832297"><ele>669.5</ele><time>2026-04-27T14:35:49.48Z</time></trkpt><trkpt lat="45.7976566" lon="10.2831235"><ele>668.0</ele><time>2026-04-27T14:35:50.479Z</time></trkpt><trkpt lat="45.7975998" lon="10.2830334"><ele>666.5</ele><time>2026-04-27T14:35:51.479Z</time></trkpt><trkpt lat="45.7975206" lon="10.2829872"><ele>665.0</ele><time>2026-04-27T14:35:52.479Z</time></trkpt><trkpt lat="45.7974427" lon="10.2829321"><ele>665.0</ele><time>2026-04-27T14:35:53.479Z</time></trkpt><trkpt lat="45.7973688" lon="10.2828745"><ele>665.0</ele><time>2026-04-27T14:35:54.479Z</time></trkpt><trkpt lat="45.7972992" lon="10.2828138"><ele>665.0</ele><time>2026-04-27T14:35:55.479Z</time></trkpt><trkpt lat="45.7972324" lon="10.2827553"><ele>665.0</ele><time>2026-04-27T14:35:56.479Z</time></trkpt><trkpt lat="45.7971707" lon="10.282687"><ele>665.0</ele><time>2026-04-27T14:35:57.479Z</time></trkpt><trkpt lat="45.7971184" lon="10.2826044"><ele>665.0</ele><time>2026-04-27T14:35:58.48Z</time></trkpt><trkpt lat="45.7970637" lon="10.2825273"><ele>665.0</ele><time>2026-04-27T14:35:59.479Z</time></trkpt><trkpt lat="45.7970344" lon="10.2824077"><ele>665.0</ele><time>2026-04-27T14:36:00.479Z</time></trkpt><trkpt lat="45.797047" lon="10.2822649"><ele>665.0</ele><time>2026-04-27T14:36:01.479Z</time></trkpt><trkpt lat="45.7970524" lon="10.2821332"><ele>665.0</ele><time>2026-04-27T14:36:02.479Z</time></trkpt><trkpt lat="45.7970796" lon="10.2819988"><ele>665.0</ele><time>2026-04-27T14:36:03.479Z</time></trkpt><trkpt lat="45.7970943" lon="10.2818626"><ele>665.4</ele><time>2026-04-27T14:36:04.479Z</time></trkpt><trkpt lat="45.7971155" lon="10.2817234"><ele>665.8</ele><time>2026-04-27T14:36:05.479Z</time></trkpt><trkpt lat="45.7971314" lon="10.281581"><ele>666.2</ele><time>2026-04-27T14:36:06.479Z</time></trkpt><trkpt lat="45.7971477" lon="10.2814412"><ele>666.6</ele><time>2026-04-27T14:36:07.479Z</time></trkpt><trkpt lat="45.7971451" lon="10.2812914"><ele>667.0</ele><time>2026-04-27T14:36:08.479Z</time></trkpt><trkpt lat="45.7971113" lon="10.2811446"><ele>668.6</ele><time>2026-04-27T14:36:09.479Z</time></trkpt><trkpt lat="45.7970953" lon="10.2809954"><ele>670.2</ele><time>2026-04-27T14:36:10.479Z</time></trkpt><trkpt lat="45.797066" lon="10.280848"><ele>671.8</ele><time>2026-04-27T14:36:11.479Z</time></trkpt><trkpt lat="45.7970287" lon="10.2807038"><ele>673.4</ele><time>2026-04-27T14:36:12.479Z</time></trkpt><trkpt lat="45.796987" lon="10.2805582"><ele>675.0</ele><time>2026-04-27T14:36:13.479Z</time></trkpt><trkpt lat="45.7969474" lon="10.2804173"><ele>681.75</ele><time>2026-04-27T14:36:14.48Z</time></trkpt><trkpt lat="45.7969147" lon="10.2802713"><ele>688.5</ele><time>2026-04-27T14:36:15.479Z</time></trkpt><trkpt lat="45.7968766" lon="10.2801259"><ele>695.25</ele><time>2026-04-27T14:36:16.479Z</time></trkpt><trkpt lat="45.7968333" lon="10.2799667"><ele>702.0</ele><time>2026-04-27T14:36:17.479Z</time></trkpt><trkpt lat="45.7967683" lon="10.2797988"><ele>691.0</ele><time>2026-04-27T14:36:18.479Z</time></trkpt><trkpt lat="45.7967182" lon="10.2796258"><ele>680.0</ele><time>2026-04-27T14:36:19.479Z</time></trkpt><trkpt lat="45.7966627" lon="10.2794507"><ele>669.0</ele><time>2026-04-27T14:36:20.479Z</time></trkpt><trkpt lat="45.7966058" lon="10.2792697"><ele>658.0</ele><time>2026-04-27T14:36:21.479Z</time></trkpt><trkpt lat="45.7965556" lon="10.2790828"><ele>663.5</ele><time>2026-04-27T14:36:22.479Z</time></trkpt><trkpt lat="45.7964978" lon="10.2789005"><ele>669.0</ele><time>2026-04-27T14:36:23.479Z</time></trkpt><trkpt lat="45.7964413" lon="10.278715"><ele>674.5</ele><time>2026-04-27T14:36:24.48Z</time></trkpt><trkpt lat="45.7963825" lon="10.2785252"><ele>680.0</ele><time>2026-04-27T14:36:25.479Z</time></trkpt><trkpt lat="45.7963196" lon="10.2783443"><ele>680.0</ele><time>2026-04-27T14:36:26.479Z</time></trkpt><trkpt lat="45.7962455" lon="10.2781646"><ele>680.0</ele><time>2026-04-27T14:36:27.479Z</time></trkpt><trkpt lat="45.7961596" lon="10.2779951"><ele>680.0</ele><time>2026-04-27T14:36:28.479Z</time></trkpt><trkpt lat="45.7960599" lon="10.2778347"><ele>680.0</ele><time>2026-04-27T14:36:29.479Z</time></trkpt><trkpt lat="45.7959502" lon="10.2776923"><ele>670.6666666666666</ele><time>2026-04-27T14:36:30.479Z</time></trkpt><trkpt lat="45.7958301" lon="10.2775607"><ele>661.3333333333334</ele><time>2026-04-27T14:36:31.479Z</time></trkpt><trkpt lat="45.7957006" lon="10.2774497"><ele>652.0</ele><time>2026-04-27T14:36:32.48Z</time></trkpt><trkpt lat="45.7955716" lon="10.2773331"><ele>651.0</ele><time>2026-04-27T14:36:33.479Z</time></trkpt><trkpt lat="45.7954343" lon="10.2772188"><ele>650.0</ele><time>2026-04-27T14:36:34.48Z</time></trkpt><trkpt lat="45.7952664" lon="10.2772399"><ele>649.0</ele><time>2026-04-27T14:36:35.479Z</time></trkpt><trkpt lat="45.7951084" lon="10.2772161"><ele>647.6666666666667</ele><time>2026-04-27T14:36:36.479Z</time></trkpt><trkpt lat="45.7949616" lon="10.277165"><ele>646.3333333333334</ele><time>2026-04-27T14:36:37.479Z</time></trkpt><trkpt lat="45.7948075" lon="10.2771394"><ele>645.0</ele><time>2026-04-27T14:36:38.479Z</time></trkpt><trkpt lat="45.794663" lon="10.2771095"><ele>645.0</ele><time>2026-04-27T14:36:39.479Z</time></trkpt><trkpt lat="45.7945236" lon="10.2770787"><ele>645.0</ele><time>2026-04-27T14:36:40.479Z</time></trkpt><trkpt lat="45.794384" lon="10.2770474"><ele>645.0</ele><time>2026-04-27T14:36:41.479Z</time></trkpt><trkpt lat="45.7942561" lon="10.2770251"><ele>645.0</ele><time>2026-04-27T14:36:42.479Z</time></trkpt><trkpt lat="45.7941226" lon="10.2769988"><ele>643.0</ele><time>2026-04-27T14:36:43.479Z</time></trkpt><trkpt lat="45.7939999" lon="10.2770071"><ele>641.0</ele><time>2026-04-27T14:36:44.479Z</time></trkpt><trkpt lat="45.7938725" lon="10.2770106"><ele>639.0</ele><time>2026-04-27T14:36:45.479Z</time></trkpt><trkpt lat="45.793745" lon="10.2770271"><ele>637.0</ele><time>2026-04-27T14:36:46.479Z</time></trkpt><trkpt lat="45.7936196" lon="10.2770403"><ele>637.5</ele><time>2026-04-27T14:36:47.479Z</time></trkpt><trkpt lat="45.7935047" lon="10.2770432"><ele>638.0</ele><time>2026-04-27T14:36:48.479Z</time></trkpt><trkpt lat="45.7933841" lon="10.2770504"><ele>638.5</ele><time>2026-04-27T14:36:49.479Z</time></trkpt><trkpt lat="45.7932819" lon="10.2770269"><ele>639.0</ele><time>2026-04-27T14:36:50.48Z</time></trkpt><trkpt lat="45.7932014" lon="10.2769098"><ele>639.0</ele><time>2026-04-27T14:36:51.479Z</time></trkpt><trkpt lat="45.7931191" lon="10.2768137"><ele>639.0</ele><time>2026-04-27T14:36:52.479Z</time></trkpt><trkpt lat="45.7930485" lon="10.276686"><ele>639.0</ele><time>2026-04-27T14:36:53.479Z</time></trkpt><trkpt lat="45.7929856" lon="10.2765375"><ele>639.0</ele><time>2026-04-27T14:36:54.479Z</time></trkpt><trkpt lat="45.792929" lon="10.2763796"><ele>644.5</ele><time>2026-04-27T14:36:55.48Z</time></trkpt><trkpt lat="45.7928716" lon="10.2762153"><ele>650.0</ele><time>2026-04-27T14:36:56.48Z</time></trkpt><trkpt lat="45.7928155" lon="10.2760508"><ele>655.5</ele><time>2026-04-27T14:36:57.48Z</time></trkpt><trkpt lat="45.7927681" lon="10.275886"><ele>661.0</ele><time>2026-04-27T14:36:58.48Z</time></trkpt><trkpt lat="45.7927276" lon="10.2757433"><ele>663.1999999999999</ele><time>2026-04-27T14:36:59.479Z</time></trkpt><trkpt lat="45.7926885" lon="10.275596"><ele>665.4</ele><time>2026-04-27T14:37:00.479Z</time></trkpt><trkpt lat="45.7926478" lon="10.2754548"><ele>667.6</ele><time>2026-04-27T14:37:01.479Z</time></trkpt><trkpt lat="45.7926042" lon="10.2753151"><ele>669.8</ele><time>2026-04-27T14:37:02.48Z</time></trkpt><trkpt lat="45.7925646" lon="10.2751767"><ele>672.0</ele><time>2026-04-27T14:37:03.48Z</time></trkpt><trkpt lat="45.7925237" lon="10.2750411"><ele>665.8</ele><time>2026-04-27T14:37:04.479Z</time></trkpt><trkpt lat="45.7924835" lon="10.2749089"><ele>659.6</ele><time>2026-04-27T14:37:05.479Z</time></trkpt><trkpt lat="45.7924444" lon="10.2747753"><ele>653.4</ele><time>2026-04-27T14:37:06.479Z</time></trkpt><trkpt lat="45.7924139" lon="10.2746483"><ele>647.1999999999999</ele><time>2026-04-27T14:37:07.479Z</time></trkpt><trkpt lat="45.7923755" lon="10.2745198"><ele>641.0</ele><time>2026-04-27T14:37:08.479Z</time></trkpt><trkpt lat="45.7923288" lon="10.2744099"><ele>641.0</ele><time>2026-04-27T14:37:09.479Z</time></trkpt><trkpt lat="45.792286" lon="10.2742861"><ele>641.0</ele><time>2026-04-27T14:37:10.479Z</time></trkpt><trkpt lat="45.7922501" lon="10.2741577"><ele>641.0</ele><time>2026-04-27T14:37:11.479Z</time></trkpt><trkpt lat="45.7922176" lon="10.2740265"><ele>641.0</ele><time>2026-04-27T14:37:12.479Z</time></trkpt><trkpt lat="45.7921508" lon="10.2737606"><ele>641.4</ele><time>2026-04-27T14:37:14.479Z</time></trkpt><trkpt lat="45.792122" lon="10.2736254"><ele>641.8</ele><time>2026-04-27T14:37:15.479Z</time></trkpt><trkpt lat="45.7920903" lon="10.2734921"><ele>642.1999999999999</ele><time>2026-04-27T14:37:16.479Z</time></trkpt><trkpt lat="45.7920704" lon="10.2733634"><ele>642.5999999999999</ele><time>2026-04-27T14:37:17.48Z</time></trkpt><trkpt lat="45.792013" lon="10.2732425"><ele>643.0</ele><time>2026-04-27T14:37:18.479Z</time></trkpt><trkpt lat="45.7919641" lon="10.2731269"><ele>644.2</ele><time>2026-04-27T14:37:19.48Z</time></trkpt><trkpt lat="45.791901" lon="10.2730209"><ele>645.4</ele><time>2026-04-27T14:37:20.479Z</time></trkpt><trkpt lat="45.7918422" lon="10.2729115"><ele>646.6</ele><time>2026-04-27T14:37:21.48Z</time></trkpt><trkpt lat="45.7917668" lon="10.2728209"><ele>647.8000000000001</ele><time>2026-04-27T14:37:22.479Z</time></trkpt><trkpt lat="45.7917097" lon="10.2726955"><ele>649.0</ele><time>2026-04-27T14:37:23.479Z</time></trkpt><trkpt lat="45.7916725" lon="10.2725707"><ele>645.2</ele><time>2026-04-27T14:37:24.479Z</time></trkpt><trkpt lat="45.7916469" lon="10.2724362"><ele>641.4000000000001</ele><time>2026-04-27T14:37:25.48Z</time></trkpt><trkpt lat="45.7916242" lon="10.2723016"><ele>637.6</ele><time>2026-04-27T14:37:26.479Z</time></trkpt><trkpt lat="45.7916005" lon="10.2721642"><ele>633.8</ele><time>2026-04-27T14:37:27.479Z</time></trkpt><trkpt lat="45.7915596" lon="10.2720325"><ele>630.0</ele><time>2026-04-27T14:37:28.479Z</time></trkpt><trkpt lat="45.7915413" lon="10.2718835"><ele>630.0</ele><time>2026-04-27T14:37:29.479Z</time></trkpt><trkpt lat="45.7915261" lon="10.2717466"><ele>630.0</ele><time>2026-04-27T14:37:30.48Z</time></trkpt><trkpt lat="45.7915017" lon="10.2716015"><ele>630.0</ele><time>2026-04-27T14:37:31.479Z</time></trkpt><trkpt lat="45.7914785" lon="10.2714577"><ele>630.0</ele><time>2026-04-27T14:37:32.479Z</time></trkpt><trkpt lat="45.7914579" lon="10.271315"><ele>630.0</ele><time>2026-04-27T14:37:33.479Z</time></trkpt><trkpt lat="45.7914386" lon="10.2711749"><ele>630.8</ele><time>2026-04-27T14:37:34.48Z</time></trkpt><trkpt lat="45.7914102" lon="10.2710321"><ele>631.6</ele><time>2026-04-27T14:37:35.479Z</time></trkpt><trkpt lat="45.7913873" lon="10.2708904"><ele>632.4</ele><time>2026-04-27T14:37:36.479Z</time></trkpt><trkpt lat="45.7913477" lon="10.2707505"><ele>633.2</ele><time>2026-04-27T14:37:37.479Z</time></trkpt><trkpt lat="45.791303" lon="10.2706145"><ele>634.0</ele><time>2026-04-27T14:37:38.48Z</time></trkpt><trkpt lat="45.7912531" lon="10.2704802"><ele>634.8</ele><time>2026-04-27T14:37:39.479Z</time></trkpt><trkpt lat="45.7912038" lon="10.2703465"><ele>635.5999999999999</ele><time>2026-04-27T14:37:40.479Z</time></trkpt><trkpt lat="45.7911513" lon="10.2702136"><ele>636.4</ele><time>2026-04-27T14:37:41.48Z</time></trkpt><trkpt lat="45.7910984" lon="10.2700807"><ele>637.1999999999999</ele><time>2026-04-27T14:37:42.48Z</time></trkpt><trkpt lat="45.7910304" lon="10.2699522"><ele>638.0</ele><time>2026-04-27T14:37:43.48Z</time></trkpt><trkpt lat="45.7909425" lon="10.2698307"><ele>635.0</ele><time>2026-04-27T14:37:44.479Z</time></trkpt><trkpt lat="45.7908553" lon="10.2697085"><ele>632.0</ele><time>2026-04-27T14:37:45.479Z</time></trkpt><trkpt lat="45.7907709" lon="10.2695903"><ele>629.0</ele><time>2026-04-27T14:37:46.479Z</time></trkpt><trkpt lat="45.7906848" lon="10.2694809"><ele>626.0</ele><time>2026-04-27T14:37:47.479Z</time></trkpt><trkpt lat="45.790594" lon="10.269374"><ele>626.0</ele><time>2026-04-27T14:37:48.479Z</time></trkpt><trkpt lat="45.7905031" lon="10.2692652"><ele>626.0</ele><time>2026-04-27T14:37:49.479Z</time></trkpt><trkpt lat="45.7904119" lon="10.2691564"><ele>626.0</ele><time>2026-04-27T14:37:50.48Z</time></trkpt><trkpt lat="45.7903341" lon="10.2690239"><ele>626.0</ele><time>2026-04-27T14:37:51.479Z</time></trkpt><trkpt lat="45.7902514" lon="10.2688915"><ele>623.25</ele><time>2026-04-27T14:37:52.479Z</time></trkpt><trkpt lat="45.790183" lon="10.2687292"><ele>620.5</ele><time>2026-04-27T14:37:53.479Z</time></trkpt><trkpt lat="45.7901118" lon="10.2685779"><ele>617.75</ele><time>2026-04-27T14:37:54.479Z</time></trkpt><trkpt lat="45.7900427" lon="10.2684168"><ele>615.0</ele><time>2026-04-27T14:37:55.479Z</time></trkpt><trkpt lat="45.7899784" lon="10.268254"><ele>617.0</ele><time>2026-04-27T14:37:56.479Z</time></trkpt><trkpt lat="45.7899247" lon="10.2680757"><ele>619.0</ele><time>2026-04-27T14:37:57.479Z</time></trkpt><trkpt lat="45.7898843" lon="10.2678958"><ele>621.0</ele><time>2026-04-27T14:37:58.479Z</time></trkpt><trkpt lat="45.7898407" lon="10.2677166"><ele>623.0</ele><time>2026-04-27T14:37:59.479Z</time></trkpt><trkpt lat="45.7898001" lon="10.2675382"><ele>623.0</ele><time>2026-04-27T14:38:00.479Z</time></trkpt><trkpt lat="45.789764" lon="10.2673658"><ele>623.0</ele><time>2026-04-27T14:38:01.479Z</time></trkpt><trkpt lat="45.7897028" lon="10.2672107"><ele>623.0</ele><time>2026-04-27T14:38:02.479Z</time></trkpt><trkpt lat="45.789652" lon="10.2670532"><ele>623.0</ele><time>2026-04-27T14:38:03.479Z</time></trkpt><trkpt lat="45.7896022" lon="10.2669127"><ele>624.1999999999999</ele><time>2026-04-27T14:38:04.48Z</time></trkpt><trkpt lat="45.7895455" lon="10.2667809"><ele>625.4</ele><time>2026-04-27T14:38:05.479Z</time></trkpt><trkpt lat="45.7894885" lon="10.266646"><ele>626.5999999999999</ele><time>2026-04-27T14:38:06.48Z</time></trkpt><trkpt lat="45.789424" lon="10.2665284"><ele>627.8</ele><time>2026-04-27T14:38:07.479Z</time></trkpt><trkpt lat="45.7893352" lon="10.266418"><ele>629.0</ele><time>2026-04-27T14:38:08.479Z</time></trkpt><trkpt lat="45.789246" lon="10.266317"><ele>625.25</ele><time>2026-04-27T14:38:09.479Z</time></trkpt><trkpt lat="45.7891547" lon="10.2662192"><ele>621.5</ele><time>2026-04-27T14:38:10.479Z</time></trkpt><trkpt lat="45.7890566" lon="10.2661302"><ele>617.75</ele><time>2026-04-27T14:38:11.479Z</time></trkpt><trkpt lat="45.7889611" lon="10.2660374"><ele>614.0</ele><time>2026-04-27T14:38:12.479Z</time></trkpt><trkpt lat="45.7888495" lon="10.2659539"><ele>614.0</ele><time>2026-04-27T14:38:13.479Z</time></trkpt><trkpt lat="45.7887413" lon="10.2658907"><ele>614.0</ele><time>2026-04-27T14:38:14.48Z</time></trkpt><trkpt lat="45.7886317" lon="10.2658252"><ele>614.0</ele><time>2026-04-27T14:38:15.479Z</time></trkpt><trkpt lat="45.7885238" lon="10.2657557"><ele>614.0</ele><time>2026-04-27T14:38:16.479Z</time></trkpt><trkpt lat="45.7884173" lon="10.265683"><ele>614.5</ele><time>2026-04-27T14:38:17.479Z</time></trkpt><trkpt lat="45.7883072" lon="10.2656091"><ele>615.0</ele><time>2026-04-27T14:38:18.48Z</time></trkpt><trkpt lat="45.788197" lon="10.2655363"><ele>615.5</ele><time>2026-04-27T14:38:19.479Z</time></trkpt><trkpt lat="45.7880868" lon="10.2654569"><ele>616.0</ele><time>2026-04-27T14:38:20.48Z</time></trkpt><trkpt lat="45.7879768" lon="10.2653816"><ele>616.0</ele><time>2026-04-27T14:38:21.479Z</time></trkpt><trkpt lat="45.787871" lon="10.2653051"><ele>616.0</ele><time>2026-04-27T14:38:22.479Z</time></trkpt><trkpt lat="45.7877593" lon="10.2652277"><ele>616.0</ele><time>2026-04-27T14:38:23.479Z</time></trkpt><trkpt lat="45.7876519" lon="10.2651536"><ele>616.0</ele><time>2026-04-27T14:38:24.479Z</time></trkpt><trkpt lat="45.7875424" lon="10.2650831"><ele>615.75</ele><time>2026-04-27T14:38:25.479Z</time></trkpt><trkpt lat="45.7874379" lon="10.2650024"><ele>615.5</ele><time>2026-04-27T14:38:26.48Z</time></trkpt><trkpt lat="45.7873408" lon="10.26491"><ele>615.25</ele><time>2026-04-27T14:38:27.479Z</time></trkpt><trkpt lat="45.7872504" lon="10.2648072"><ele>615.0</ele><time>2026-04-27T14:38:28.48Z</time></trkpt><trkpt lat="45.787163" lon="10.2646901"><ele>615.0</ele><time>2026-04-27T14:38:29.479Z</time></trkpt><trkpt lat="45.7870754" lon="10.264573"><ele>615.0</ele><time>2026-04-27T14:38:30.479Z</time></trkpt><trkpt lat="45.7869884" lon="10.2644596"><ele>615.0</ele><time>2026-04-27T14:38:31.48Z</time></trkpt><trkpt lat="45.7868999" lon="10.2643447"><ele>615.0</ele><time>2026-04-27T14:38:32.479Z</time></trkpt><trkpt lat="45.7868182" lon="10.2642212"><ele>611.6</ele><time>2026-04-27T14:38:33.48Z</time></trkpt><trkpt lat="45.7867436" lon="10.2641144"><ele>608.2</ele><time>2026-04-27T14:38:34.479Z</time></trkpt><trkpt lat="45.7866705" lon="10.2640146"><ele>604.8</ele><time>2026-04-27T14:38:35.479Z</time></trkpt><trkpt lat="45.786592" lon="10.263914"><ele>601.4</ele><time>2026-04-27T14:38:36.479Z</time></trkpt><trkpt lat="45.7865165" lon="10.2638109"><ele>598.0</ele><time>2026-04-27T14:38:37.479Z</time></trkpt><trkpt lat="45.7864415" lon="10.2637035"><ele>598.0</ele><time>2026-04-27T14:38:38.48Z</time></trkpt><trkpt lat="45.7863606" lon="10.263597"><ele>598.0</ele><time>2026-04-27T14:38:39.479Z</time></trkpt><trkpt lat="45.7862814" lon="10.2634901"><ele>598.0</ele><time>2026-04-27T14:38:40.479Z</time></trkpt><trkpt lat="45.7862027" lon="10.2633871"><ele>598.0</ele><time>2026-04-27T14:38:41.48Z</time></trkpt><trkpt lat="45.7861184" lon="10.2632967"><ele>598.0</ele><time>2026-04-27T14:38:42.479Z</time></trkpt><trkpt lat="45.7860364" lon="10.2631956"><ele>596.6</ele><time>2026-04-27T14:38:43.48Z</time></trkpt><trkpt lat="45.7859121" lon="10.2631619"><ele>595.1999999999999</ele><time>2026-04-27T14:38:44.479Z</time></trkpt><trkpt lat="45.7858149" lon="10.2630981"><ele>593.8</ele><time>2026-04-27T14:38:45.479Z</time></trkpt><trkpt lat="45.7857205" lon="10.2631044"><ele>592.4</ele><time>2026-04-27T14:38:46.479Z</time></trkpt><trkpt lat="45.785619" lon="10.2630759"><ele>591.0</ele><time>2026-04-27T14:38:47.48Z</time></trkpt><trkpt lat="45.7855038" lon="10.2631388"><ele>591.0</ele><time>2026-04-27T14:38:48.48Z</time></trkpt><trkpt lat="45.7853944" lon="10.2631539"><ele>591.0</ele><time>2026-04-27T14:38:49.479Z</time></trkpt><trkpt lat="45.7852902" lon="10.2631836"><ele>591.0</ele><time>2026-04-27T14:38:50.479Z</time></trkpt><trkpt lat="45.7851872" lon="10.2632205"><ele>591.0</ele><time>2026-04-27T14:38:51.479Z</time></trkpt><trkpt lat="45.7850854" lon="10.2632549"><ele>591.0</ele><time>2026-04-27T14:38:52.479Z</time></trkpt><trkpt lat="45.7849822" lon="10.2632796"><ele>590.4</ele><time>2026-04-27T14:38:53.479Z</time></trkpt><trkpt lat="45.784878" lon="10.2633019"><ele>589.8</ele><time>2026-04-27T14:38:54.48Z</time></trkpt><trkpt lat="45.7847764" lon="10.2633188"><ele>589.1999999999999</ele><time>2026-04-27T14:38:55.479Z</time></trkpt><trkpt lat="45.7846718" lon="10.2633104"><ele>588.6</ele><time>2026-04-27T14:38:56.479Z</time></trkpt><trkpt lat="45.7845815" lon="10.2632333"><ele>588.0</ele><time>2026-04-27T14:38:57.479Z</time></trkpt><trkpt lat="45.7844854" lon="10.2631777"><ele>588.0</ele><time>2026-04-27T14:38:58.479Z</time></trkpt><trkpt lat="45.78439" lon="10.2631242"><ele>588.0</ele><time>2026-04-27T14:38:59.479Z</time></trkpt><trkpt lat="45.7842927" lon="10.2630744"><ele>588.0</ele><time>2026-04-27T14:39:00.479Z</time></trkpt><trkpt lat="45.7841965" lon="10.263026"><ele>588.0</ele><time>2026-04-27T14:39:01.479Z</time></trkpt><trkpt lat="45.7840964" lon="10.262973"><ele>588.0</ele><time>2026-04-27T14:39:02.479Z</time></trkpt><trkpt lat="45.7839975" lon="10.2629223"><ele>589.8</ele><time>2026-04-27T14:39:03.479Z</time></trkpt><trkpt lat="45.7839005" lon="10.2628703"><ele>591.5999999999999</ele><time>2026-04-27T14:39:04.479Z</time></trkpt><trkpt lat="45.7838005" lon="10.2628277"><ele>593.4000000000001</ele><time>2026-04-27T14:39:05.48Z</time></trkpt><trkpt lat="45.7837015" lon="10.2627757"><ele>595.2</ele><time>2026-04-27T14:39:06.48Z</time></trkpt><trkpt lat="45.7836011" lon="10.262717"><ele>597.0</ele><time>2026-04-27T14:39:07.48Z</time></trkpt><trkpt lat="45.7834024" lon="10.2626291"><ele>597.0</ele><time>2026-04-27T14:39:09.575Z</time></trkpt><trkpt lat="45.783299" lon="10.2625945"><ele>597.0</ele><time>2026-04-27T14:39:10.58Z</time></trkpt><trkpt lat="45.7831971" lon="10.262569"><ele>597.0</ele><time>2026-04-27T14:39:11.578Z</time></trkpt><trkpt lat="45.7830936" lon="10.2625687"><ele>597.0</ele><time>2026-04-27T14:39:12.48Z</time></trkpt><trkpt lat="45.7829912" lon="10.2625598"><ele>597.0</ele><time>2026-04-27T14:39:13.54Z</time></trkpt><trkpt lat="45.7828861" lon="10.2625816"><ele>597.0</ele><time>2026-04-27T14:39:14.586Z</time></trkpt><trkpt lat="45.7827768" lon="10.2626023"><ele>597.0</ele><time>2026-04-27T14:39:15.586Z</time></trkpt><trkpt lat="45.7826651" lon="10.2626145"><ele>597.0</ele><time>2026-04-27T14:39:16.586Z</time></trkpt><trkpt lat="45.7825489" lon="10.2626328"><ele>597.0</ele><time>2026-04-27T14:39:17.586Z</time></trkpt><trkpt lat="45.7824254" lon="10.2626533"><ele>594.0</ele><time>2026-04-27T14:39:18.587Z</time></trkpt><trkpt lat="45.7822986" lon="10.2626608"><ele>591.0</ele><time>2026-04-27T14:39:19.586Z</time></trkpt><trkpt lat="45.782169" lon="10.2626822"><ele>588.0</ele><time>2026-04-27T14:39:20.586Z</time></trkpt><trkpt lat="45.7820462" lon="10.2626998"><ele>585.0</ele><time>2026-04-27T14:39:21.586Z</time></trkpt><trkpt lat="45.781921" lon="10.2627167"><ele>583.0</ele><time>2026-04-27T14:39:22.586Z</time></trkpt><trkpt lat="45.7818101" lon="10.2627165"><ele>581.0</ele><time>2026-04-27T14:39:23.521Z</time></trkpt><trkpt lat="45.7816832" lon="10.2627504"><ele>579.0</ele><time>2026-04-27T14:39:24.526Z</time></trkpt><trkpt lat="45.7815575" lon="10.2627731"><ele>577.0</ele><time>2026-04-27T14:39:25.586Z</time></trkpt><trkpt lat="45.7814408" lon="10.2627783"><ele>577.0</ele><time>2026-04-27T14:39:26.586Z</time></trkpt><trkpt lat="45.7813228" lon="10.2627906"><ele>577.0</ele><time>2026-04-27T14:39:27.587Z</time></trkpt><trkpt lat="45.7812079" lon="10.2628031"><ele>577.0</ele><time>2026-04-27T14:39:28.586Z</time></trkpt><trkpt lat="45.7810917" lon="10.2628172"><ele>577.0</ele><time>2026-04-27T14:39:29.584Z</time></trkpt><trkpt lat="45.7809747" lon="10.2628325"><ele>577.0</ele><time>2026-04-27T14:39:30.586Z</time></trkpt><trkpt lat="45.7808572" lon="10.2628482"><ele>577.0</ele><time>2026-04-27T14:39:31.587Z</time></trkpt><trkpt lat="45.7807463" lon="10.2628588"><ele>577.0</ele><time>2026-04-27T14:39:32.587Z</time></trkpt><trkpt lat="45.7806375" lon="10.2628715"><ele>577.0</ele><time>2026-04-27T14:39:33.586Z</time></trkpt><trkpt lat="45.7805273" lon="10.2628864"><ele>577.0</ele><time>2026-04-27T14:39:34.586Z</time></trkpt><trkpt lat="45.7804183" lon="10.262898"><ele>577.0</ele><time>2026-04-27T14:39:35.586Z</time></trkpt><trkpt lat="45.7803083" lon="10.2629138"><ele>577.0</ele><time>2026-04-27T14:39:36.514Z</time></trkpt><trkpt lat="45.7801987" lon="10.2629274"><ele>577.0</ele><time>2026-04-27T14:39:37.527Z</time></trkpt><trkpt lat="45.7800953" lon="10.2629358"><ele>577.0</ele><time>2026-04-27T14:39:38.522Z</time></trkpt><trkpt lat="45.7799858" lon="10.262949"><ele>577.0</ele><time>2026-04-27T14:39:39.586Z</time></trkpt><trkpt lat="45.7798672" lon="10.2629633"><ele>575.0</ele><time>2026-04-27T14:39:40.586Z</time></trkpt><trkpt lat="45.7797545" lon="10.2629795"><ele>573.0</ele><time>2026-04-27T14:39:41.586Z</time></trkpt><trkpt lat="45.7796461" lon="10.2629953"><ele>571.0</ele><time>2026-04-27T14:39:42.587Z</time></trkpt><trkpt lat="45.7795353" lon="10.2630068"><ele>569.0</ele><time>2026-04-27T14:39:43.586Z</time></trkpt><trkpt lat="45.7794193" lon="10.2630188"><ele>567.5</ele><time>2026-04-27T14:39:44.587Z</time></trkpt><trkpt lat="45.7793048" lon="10.263022"><ele>566.0</ele><time>2026-04-27T14:39:45.586Z</time></trkpt><trkpt lat="45.7791961" lon="10.2630063"><ele>564.5</ele><time>2026-04-27T14:39:46.586Z</time></trkpt><trkpt lat="45.779084" lon="10.2629938"><ele>563.0</ele><time>2026-04-27T14:39:47.586Z</time></trkpt><trkpt lat="45.7789745" lon="10.262917"><ele>563.0</ele><time>2026-04-27T14:39:48.586Z</time></trkpt><trkpt lat="45.7788673" lon="10.2628628"><ele>563.0</ele><time>2026-04-27T14:39:49.586Z</time></trkpt><trkpt lat="45.778787" lon="10.2627382"><ele>563.0</ele><time>2026-04-27T14:39:50.586Z</time></trkpt><trkpt lat="45.7787005" lon="10.2626372"><ele>563.0</ele><time>2026-04-27T14:39:51.583Z</time></trkpt><trkpt lat="45.7786115" lon="10.262539"><ele>562.0</ele><time>2026-04-27T14:39:52.587Z</time></trkpt><trkpt lat="45.7785175" lon="10.2624422"><ele>561.0</ele><time>2026-04-27T14:39:53.586Z</time></trkpt><trkpt lat="45.7784198" lon="10.262342"><ele>560.0</ele><time>2026-04-27T14:39:54.587Z</time></trkpt><trkpt lat="45.7783243" lon="10.2622311"><ele>559.0</ele><time>2026-04-27T14:39:55.55Z</time></trkpt><trkpt lat="45.7782247" lon="10.2621253"><ele>559.0</ele><time>2026-04-27T14:39:56.586Z</time></trkpt><trkpt lat="45.7781243" lon="10.2620191"><ele>559.0</ele><time>2026-04-27T14:39:57.586Z</time></trkpt><trkpt lat="45.7780176" lon="10.2619077"><ele>559.0</ele><time>2026-04-27T14:39:58.586Z</time></trkpt><trkpt lat="45.7779141" lon="10.2617957"><ele>559.0</ele><time>2026-04-27T14:39:59.586Z</time></trkpt><trkpt lat="45.7778032" lon="10.2616903"><ele>558.75</ele><time>2026-04-27T14:40:00.586Z</time></trkpt><trkpt lat="45.7776795" lon="10.2616103"><ele>558.5</ele><time>2026-04-27T14:40:01.587Z</time></trkpt><trkpt lat="45.7775578" lon="10.2615612"><ele>558.25</ele><time>2026-04-27T14:40:02.586Z</time></trkpt><trkpt lat="45.7774353" lon="10.2615298"><ele>558.0</ele><time>2026-04-27T14:40:03.586Z</time></trkpt><trkpt lat="45.7773112" lon="10.2615245"><ele>558.0</ele><time>2026-04-27T14:40:04.586Z</time></trkpt><trkpt lat="45.7771857" lon="10.261511"><ele>558.0</ele><time>2026-04-27T14:40:05.586Z</time></trkpt><trkpt lat="45.7770594" lon="10.2615483"><ele>558.0</ele><time>2026-04-27T14:40:06.586Z</time></trkpt><trkpt lat="45.776948" lon="10.2616361"><ele>558.0</ele><time>2026-04-27T14:40:07.586Z</time></trkpt><trkpt lat="45.7768379" lon="10.2617172"><ele>558.5</ele><time>2026-04-27T14:40:08.586Z</time></trkpt><trkpt lat="45.7767325" lon="10.261802"><ele>559.0</ele><time>2026-04-27T14:40:09.586Z</time></trkpt><trkpt lat="45.7766283" lon="10.2618901"><ele>559.5</ele><time>2026-04-27T14:40:10.587Z</time></trkpt><trkpt lat="45.776525" lon="10.2619748"><ele>560.0</ele><time>2026-04-27T14:40:11.527Z</time></trkpt><trkpt lat="45.7764263" lon="10.2620658"><ele>560.0</ele><time>2026-04-27T14:40:12.528Z</time></trkpt><trkpt lat="45.7763276" lon="10.2621517"><ele>560.0</ele><time>2026-04-27T14:40:13.586Z</time></trkpt><trkpt lat="45.7762289" lon="10.2622395"><ele>560.0</ele><time>2026-04-27T14:40:14.586Z</time></trkpt><trkpt lat="45.7761293" lon="10.2623219"><ele>560.0</ele><time>2026-04-27T14:40:15.586Z</time></trkpt><trkpt lat="45.7760335" lon="10.2624003"><ele>559.6</ele><time>2026-04-27T14:40:16.586Z</time></trkpt><trkpt lat="45.7759365" lon="10.262487"><ele>559.2</ele><time>2026-04-27T14:40:17.586Z</time></trkpt><trkpt lat="45.7758429" lon="10.2625726"><ele>558.8</ele><time>2026-04-27T14:40:18.586Z</time></trkpt><trkpt lat="45.7757485" lon="10.2626551"><ele>558.4</ele><time>2026-04-27T14:40:19.586Z</time></trkpt><trkpt lat="45.7756545" lon="10.2627344"><ele>558.0</ele><time>2026-04-27T14:40:20.586Z</time></trkpt><trkpt lat="45.7755565" lon="10.262798"><ele>558.0</ele><time>2026-04-27T14:40:21.586Z</time></trkpt><trkpt lat="45.7754524" lon="10.2628553"><ele>558.0</ele><time>2026-04-27T14:40:22.586Z</time></trkpt><trkpt lat="45.7753471" lon="10.2629145"><ele>558.0</ele><time>2026-04-27T14:40:23.586Z</time></trkpt><trkpt lat="45.7752283" lon="10.2629465"><ele>558.0</ele><time>2026-04-27T14:40:24.586Z</time></trkpt><trkpt lat="45.7751015" lon="10.2629171"><ele>559.25</ele><time>2026-04-27T14:40:25.587Z</time></trkpt><trkpt lat="45.7749806" lon="10.2628978"><ele>560.5</ele><time>2026-04-27T14:40:26.586Z</time></trkpt><trkpt lat="45.7748558" lon="10.2628666"><ele>561.75</ele><time>2026-04-27T14:40:27.586Z</time></trkpt><trkpt lat="45.7747306" lon="10.262822"><ele>563.0</ele><time>2026-04-27T14:40:28.586Z</time></trkpt><trkpt lat="45.7746093" lon="10.2627673"><ele>563.0</ele><time>2026-04-27T14:40:29.514Z</time></trkpt><trkpt lat="45.7744944" lon="10.26269"><ele>563.0</ele><time>2026-04-27T14:40:30.586Z</time></trkpt><trkpt lat="45.7743823" lon="10.2626093"><ele>563.0</ele><time>2026-04-27T14:40:31.586Z</time></trkpt><trkpt lat="45.7742685" lon="10.2625295"><ele>563.0</ele><time>2026-04-27T14:40:32.587Z</time></trkpt><trkpt lat="45.7741579" lon="10.2624356"><ele>562.0</ele><time>2026-04-27T14:40:33.586Z</time></trkpt><trkpt lat="45.774034" lon="10.2623566"><ele>561.0</ele><time>2026-04-27T14:40:34.578Z</time></trkpt><trkpt lat="45.7739185" lon="10.2622976"><ele>560.0</ele><time>2026-04-27T14:40:35.586Z</time></trkpt><trkpt lat="45.7738049" lon="10.2622444"><ele>559.0</ele><time>2026-04-27T14:40:36.586Z</time></trkpt><trkpt lat="45.7736927" lon="10.2621954"><ele>567.25</ele><time>2026-04-27T14:40:37.562Z</time></trkpt><trkpt lat="45.7735791" lon="10.262151"><ele>575.5</ele><time>2026-04-27T14:40:38.586Z</time></trkpt><trkpt lat="45.7734645" lon="10.2621149"><ele>583.75</ele><time>2026-04-27T14:40:39.586Z</time></trkpt><trkpt lat="45.7733526" lon="10.2620822"><ele>592.0</ele><time>2026-04-27T14:40:40.586Z</time></trkpt><trkpt lat="45.7732392" lon="10.2620714"><ele>592.0</ele><time>2026-04-27T14:40:41.586Z</time></trkpt><trkpt lat="45.7731262" lon="10.2620813"><ele>592.0</ele><time>2026-04-27T14:40:42.586Z</time></trkpt><trkpt lat="45.7730137" lon="10.2621165"><ele>592.0</ele><time>2026-04-27T14:40:43.587Z</time></trkpt><trkpt lat="45.7729106" lon="10.2621686"><ele>592.0</ele><time>2026-04-27T14:40:44.586Z</time></trkpt><trkpt lat="45.7728023" lon="10.2622169"><ele>582.0</ele><time>2026-04-27T14:40:45.513Z</time></trkpt><trkpt lat="45.7726981" lon="10.2622891"><ele>572.0</ele><time>2026-04-27T14:40:46.527Z</time></trkpt><trkpt lat="45.7725889" lon="10.2623196"><ele>562.0</ele><time>2026-04-27T14:40:47.586Z</time></trkpt><trkpt lat="45.7724791" lon="10.2623343"><ele>552.0</ele><time>2026-04-27T14:40:48.586Z</time></trkpt><trkpt lat="45.7723657" lon="10.2623384"><ele>552.0</ele><time>2026-04-27T14:40:49.587Z</time></trkpt><trkpt lat="45.7722561" lon="10.2623147"><ele>552.0</ele><time>2026-04-27T14:40:50.586Z</time></trkpt><trkpt lat="45.772145" lon="10.2622783"><ele>552.0</ele><time>2026-04-27T14:40:51.586Z</time></trkpt><trkpt lat="45.7720345" lon="10.2622434"><ele>552.0</ele><time>2026-04-27T14:40:52.587Z</time></trkpt><trkpt lat="45.7719236" lon="10.2622096"><ele>561.25</ele><time>2026-04-27T14:40:53.586Z</time></trkpt><trkpt lat="45.7718113" lon="10.2621739"><ele>570.5</ele><time>2026-04-27T14:40:54.586Z</time></trkpt><trkpt lat="45.7717025" lon="10.2621385"><ele>579.75</ele><time>2026-04-27T14:40:55.586Z</time></trkpt><trkpt lat="45.7715883" lon="10.2621459"><ele>589.0</ele><time>2026-04-27T14:40:56.586Z</time></trkpt><trkpt lat="45.7714761" lon="10.262156"><ele>589.0</ele><time>2026-04-27T14:40:57.586Z</time></trkpt><trkpt lat="45.7713619" lon="10.2621851"><ele>589.0</ele><time>2026-04-27T14:40:58.586Z</time></trkpt><trkpt lat="45.7712524" lon="10.262233"><ele>589.0</ele><time>2026-04-27T14:40:59.586Z</time></trkpt><trkpt lat="45.7711422" lon="10.2622732"><ele>589.0</ele><time>2026-04-27T14:41:00.586Z</time></trkpt><trkpt lat="45.7710392" lon="10.2623432"><ele>580.0</ele><time>2026-04-27T14:41:01.587Z</time></trkpt><trkpt lat="45.7709391" lon="10.2624094"><ele>571.0</ele><time>2026-04-27T14:41:02.586Z</time></trkpt><trkpt lat="45.770833" lon="10.2624634"><ele>562.0</ele><time>2026-04-27T14:41:03.586Z</time></trkpt><trkpt lat="45.7707248" lon="10.2625107"><ele>553.0</ele><time>2026-04-27T14:41:04.587Z</time></trkpt><trkpt lat="45.7706179" lon="10.26253"><ele>544.0</ele><time>2026-04-27T14:41:05.586Z</time></trkpt><trkpt lat="45.7705055" lon="10.2625327"><ele>544.0</ele><time>2026-04-27T14:41:06.586Z</time></trkpt><trkpt lat="45.7703972" lon="10.2625384"><ele>544.0</ele><time>2026-04-27T14:41:07.586Z</time></trkpt><trkpt lat="45.7702909" lon="10.2625025"><ele>544.0</ele><time>2026-04-27T14:41:08.586Z</time></trkpt><trkpt lat="45.7701791" lon="10.2624725"><ele>544.0</ele><time>2026-04-27T14:41:09.586Z</time></trkpt><trkpt lat="45.7700512" lon="10.2624277"><ele>543.0</ele><time>2026-04-27T14:41:10.586Z</time></trkpt><trkpt lat="45.7699338" lon="10.2623884"><ele>542.0</ele><time>2026-04-27T14:41:11.586Z</time></trkpt><trkpt lat="45.7698129" lon="10.2623528"><ele>541.0</ele><time>2026-04-27T14:41:12.587Z</time></trkpt><trkpt lat="45.7696959" lon="10.262315"><ele>540.0</ele><time>2026-04-27T14:41:13.586Z</time></trkpt><trkpt lat="45.7695704" lon="10.2622776"><ele>544.25</ele><time>2026-04-27T14:41:14.586Z</time></trkpt><trkpt lat="45.7694497" lon="10.2622394"><ele>548.5</ele><time>2026-04-27T14:41:15.586Z</time></trkpt><trkpt lat="45.7693274" lon="10.2622027"><ele>552.75</ele><time>2026-04-27T14:41:16.587Z</time></trkpt><trkpt lat="45.7692053" lon="10.2621653"><ele>557.0</ele><time>2026-04-27T14:41:17.586Z</time></trkpt><trkpt lat="45.7690894" lon="10.2621104"><ele>557.0</ele><time>2026-04-27T14:41:18.528Z</time></trkpt><trkpt lat="45.7689549" lon="10.2620762"><ele>557.0</ele><time>2026-04-27T14:41:19.537Z</time></trkpt><trkpt lat="45.7688193" lon="10.2620296"><ele>557.0</ele><time>2026-04-27T14:41:20.586Z</time></trkpt><trkpt lat="45.7686832" lon="10.2619848"><ele>557.0</ele><time>2026-04-27T14:41:21.586Z</time></trkpt><trkpt lat="45.7685423" lon="10.2619583"><ele>559.75</ele><time>2026-04-27T14:41:22.586Z</time></trkpt><trkpt lat="45.7684056" lon="10.2619546"><ele>562.5</ele><time>2026-04-27T14:41:23.586Z</time></trkpt><trkpt lat="45.768273" lon="10.2619687"><ele>565.25</ele><time>2026-04-27T14:41:24.586Z</time></trkpt><trkpt lat="45.7681365" lon="10.2619909"><ele>568.0</ele><time>2026-04-27T14:41:25.586Z</time></trkpt><trkpt lat="45.768002" lon="10.2620119"><ele>568.0</ele><time>2026-04-27T14:41:26.586Z</time></trkpt><trkpt lat="45.7678734" lon="10.2620489"><ele>568.0</ele><time>2026-04-27T14:41:27.587Z</time></trkpt><trkpt lat="45.7677531" lon="10.2620598"><ele>568.0</ele><time>2026-04-27T14:41:28.586Z</time></trkpt><trkpt lat="45.7676236" lon="10.2620627"><ele>568.0</ele><time>2026-04-27T14:41:29.586Z</time></trkpt><trkpt lat="45.7675032" lon="10.2620319"><ele>562.25</ele><time>2026-04-27T14:41:30.587Z</time></trkpt><trkpt lat="45.7673825" lon="10.2619906"><ele>556.5</ele><time>2026-04-27T14:41:31.586Z</time></trkpt><trkpt lat="45.767263" lon="10.2619382"><ele>550.75</ele><time>2026-04-27T14:41:32.586Z</time></trkpt><trkpt lat="45.7671549" lon="10.2618662"><ele>545.0</ele><time>2026-04-27T14:41:33.586Z</time></trkpt><trkpt lat="45.7670637" lon="10.2617655"><ele>545.0</ele><time>2026-04-27T14:41:34.585Z</time></trkpt><trkpt lat="45.7669669" lon="10.2616761"><ele>545.0</ele><time>2026-04-27T14:41:35.586Z</time></trkpt><trkpt lat="45.7669136" lon="10.2615319"><ele>545.0</ele><time>2026-04-27T14:41:36.587Z</time></trkpt><trkpt lat="45.7668659" lon="10.2613821"><ele>545.0</ele><time>2026-04-27T14:41:37.513Z</time></trkpt><trkpt lat="45.7668949" lon="10.2611947"><ele>547.5</ele><time>2026-04-27T14:41:38.586Z</time></trkpt><trkpt lat="45.7669101" lon="10.2610292"><ele>550.0</ele><time>2026-04-27T14:41:39.577Z</time></trkpt><trkpt lat="45.7669368" lon="10.2608542"><ele>552.5</ele><time>2026-04-27T14:41:40.586Z</time></trkpt><trkpt lat="45.7669701" lon="10.2606811"><ele>555.0</ele><time>2026-04-27T14:41:41.586Z</time></trkpt><trkpt lat="45.7670006" lon="10.2605079"><ele>555.25</ele><time>2026-04-27T14:41:42.586Z</time></trkpt><trkpt lat="45.7670328" lon="10.2603319"><ele>555.5</ele><time>2026-04-27T14:41:43.587Z</time></trkpt><trkpt lat="45.7670596" lon="10.260154"><ele>555.75</ele><time>2026-04-27T14:41:44.586Z</time></trkpt><trkpt lat="45.7670877" lon="10.2599765"><ele>556.0</ele><time>2026-04-27T14:41:45.586Z</time></trkpt><trkpt lat="45.7670963" lon="10.2597844"><ele>556.75</ele><time>2026-04-27T14:41:46.586Z</time></trkpt><trkpt lat="45.7671101" lon="10.2596013"><ele>557.5</ele><time>2026-04-27T14:41:47.51Z</time></trkpt><trkpt lat="45.7670566" lon="10.2594071"><ele>558.25</ele><time>2026-04-27T14:41:48.524Z</time></trkpt><trkpt lat="45.7670204" lon="10.2592273"><ele>559.0</ele><time>2026-04-27T14:41:49.529Z</time></trkpt><trkpt lat="45.7669572" lon="10.2590492"><ele>562.25</ele><time>2026-04-27T14:41:50.544Z</time></trkpt><trkpt lat="45.7669101" lon="10.258863"><ele>565.5</ele><time>2026-04-27T14:41:51.53Z</time></trkpt><trkpt lat="45.7668597" lon="10.2586729"><ele>568.75</ele><time>2026-04-27T14:41:52.527Z</time></trkpt><trkpt lat="45.7668097" lon="10.258487"><ele>572.0</ele><time>2026-04-27T14:41:53.551Z</time></trkpt><trkpt lat="45.7667602" lon="10.2583188"><ele>569.75</ele><time>2026-04-27T14:41:54.517Z</time></trkpt><trkpt lat="45.7666723" lon="10.258181"><ele>567.5</ele><time>2026-04-27T14:41:55.526Z</time></trkpt><trkpt lat="45.7665864" lon="10.2580368"><ele>565.25</ele><time>2026-04-27T14:41:56.586Z</time></trkpt><trkpt lat="45.76649" lon="10.2579003"><ele>563.0</ele><time>2026-04-27T14:41:57.586Z</time></trkpt><trkpt lat="45.7663978" lon="10.2577622"><ele>563.0</ele><time>2026-04-27T14:41:58.586Z</time></trkpt><trkpt lat="45.7663001" lon="10.2576323"><ele>563.0</ele><time>2026-04-27T14:41:59.586Z</time></trkpt><trkpt lat="45.7661791" lon="10.2575271"><ele>563.0</ele><time>2026-04-27T14:42:00.586Z</time></trkpt><trkpt lat="45.7660748" lon="10.2574076"><ele>563.0</ele><time>2026-04-27T14:42:01.578Z</time></trkpt><trkpt lat="45.7659684" lon="10.2572867"><ele>561.0</ele><time>2026-04-27T14:42:02.586Z</time></trkpt><trkpt lat="45.7658628" lon="10.2571653"><ele>559.0</ele><time>2026-04-27T14:42:03.586Z</time></trkpt><trkpt lat="45.7657602" lon="10.2570422"><ele>557.0</ele><time>2026-04-27T14:42:04.587Z</time></trkpt><trkpt lat="45.7656657" lon="10.2569098"><ele>555.0</ele><time>2026-04-27T14:42:05.519Z</time></trkpt><trkpt lat="45.7654804" lon="10.2566332"><ele>555.0</ele><time>2026-04-27T14:42:07.586Z</time></trkpt><trkpt lat="45.7653917" lon="10.2564839"><ele>555.0</ele><time>2026-04-27T14:42:08.586Z</time></trkpt><trkpt lat="45.7653271" lon="10.2563306"><ele>555.0</ele><time>2026-04-27T14:42:09.586Z</time></trkpt><trkpt lat="45.7652622" lon="10.2561713"><ele>555.0</ele><time>2026-04-27T14:42:10.586Z</time></trkpt><trkpt lat="45.7651971" lon="10.2560096"><ele>550.75</ele><time>2026-04-27T14:42:11.587Z</time></trkpt><trkpt lat="45.7651347" lon="10.2558413"><ele>546.5</ele><time>2026-04-27T14:42:12.586Z</time></trkpt><trkpt lat="45.7650761" lon="10.2556683"><ele>542.25</ele><time>2026-04-27T14:42:13.586Z</time></trkpt><trkpt lat="45.7650214" lon="10.2554893"><ele>538.0</ele><time>2026-04-27T14:42:14.586Z</time></trkpt><trkpt lat="45.7649762" lon="10.255303"><ele>538.0</ele><time>2026-04-27T14:42:15.586Z</time></trkpt><trkpt lat="45.7649266" lon="10.2551197"><ele>538.0</ele><time>2026-04-27T14:42:16.586Z</time></trkpt><trkpt lat="45.7648935" lon="10.2549222"><ele>538.0</ele><time>2026-04-27T14:42:17.586Z</time></trkpt><trkpt lat="45.7648689" lon="10.2547456"><ele>538.0</ele><time>2026-04-27T14:42:18.586Z</time></trkpt><trkpt lat="45.7648304" lon="10.2545605"><ele>540.0</ele><time>2026-04-27T14:42:19.586Z</time></trkpt><trkpt lat="45.7647833" lon="10.2543752"><ele>542.0</ele><time>2026-04-27T14:42:20.586Z</time></trkpt><trkpt lat="45.764734" lon="10.2541916"><ele>544.0</ele><time>2026-04-27T14:42:21.587Z</time></trkpt><trkpt lat="45.7646822" lon="10.254007"><ele>546.0</ele><time>2026-04-27T14:42:22.586Z</time></trkpt><trkpt lat="45.7646328" lon="10.2538511"><ele>547.25</ele><time>2026-04-27T14:42:23.586Z</time></trkpt><trkpt lat="45.7645785" lon="10.2536825"><ele>548.5</ele><time>2026-04-27T14:42:24.586Z</time></trkpt><trkpt lat="45.7645073" lon="10.2535402"><ele>549.75</ele><time>2026-04-27T14:42:25.586Z</time></trkpt><trkpt lat="45.7644438" lon="10.2533908"><ele>551.0</ele><time>2026-04-27T14:42:26.537Z</time></trkpt><trkpt lat="45.7643812" lon="10.2532408"><ele>543.75</ele><time>2026-04-27T14:42:27.529Z</time></trkpt><trkpt lat="45.764314" lon="10.2530948"><ele>536.5</ele><time>2026-04-27T14:42:28.586Z</time></trkpt><trkpt lat="45.7642489" lon="10.2529496"><ele>529.25</ele><time>2026-04-27T14:42:29.586Z</time></trkpt><trkpt lat="45.7641834" lon="10.2528053"><ele>522.0</ele><time>2026-04-27T14:42:30.587Z</time></trkpt><trkpt lat="45.7641186" lon="10.2526609"><ele>522.0</ele><time>2026-04-27T14:42:31.586Z</time></trkpt><trkpt lat="45.7640496" lon="10.2525094"><ele>522.0</ele><time>2026-04-27T14:42:32.586Z</time></trkpt><trkpt lat="45.7639841" lon="10.2523647"><ele>522.0</ele><time>2026-04-27T14:42:33.586Z</time></trkpt><trkpt lat="45.7639207" lon="10.2522267"><ele>522.0</ele><time>2026-04-27T14:42:34.586Z</time></trkpt><trkpt lat="45.7638653" lon="10.2520815"><ele>524.0</ele><time>2026-04-27T14:42:35.587Z</time></trkpt><trkpt lat="45.7637965" lon="10.251938"><ele>526.0</ele><time>2026-04-27T14:42:36.586Z</time></trkpt><trkpt lat="45.763729" lon="10.2517979"><ele>528.0</ele><time>2026-04-27T14:42:37.586Z</time></trkpt><trkpt lat="45.7636616" lon="10.2516572"><ele>530.0</ele><time>2026-04-27T14:42:38.586Z</time></trkpt><trkpt lat="45.7636007" lon="10.251523"><ele>525.5</ele><time>2026-04-27T14:42:39.587Z</time></trkpt><trkpt lat="45.7635125" lon="10.2514129"><ele>521.0</ele><time>2026-04-27T14:42:40.587Z</time></trkpt><trkpt lat="45.7634248" lon="10.2512992"><ele>516.5</ele><time>2026-04-27T14:42:41.586Z</time></trkpt><trkpt lat="45.7633324" lon="10.2511902"><ele>512.0</ele><time>2026-04-27T14:42:42.586Z</time></trkpt><trkpt lat="45.7632361" lon="10.2510901"><ele>512.0</ele><time>2026-04-27T14:42:43.586Z</time></trkpt><trkpt lat="45.7631377" lon="10.2509914"><ele>512.0</ele><time>2026-04-27T14:42:44.587Z</time></trkpt><trkpt lat="45.7630412" lon="10.2508932"><ele>512.0</ele><time>2026-04-27T14:42:45.586Z</time></trkpt><trkpt lat="45.7629438" lon="10.2508117"><ele>512.0</ele><time>2026-04-27T14:42:46.586Z</time></trkpt><trkpt lat="45.7628437" lon="10.2507234"><ele>512.0</ele><time>2026-04-27T14:42:47.586Z</time></trkpt><trkpt lat="45.7627371" lon="10.2506384"><ele>512.0</ele><time>2026-04-27T14:42:48.586Z</time></trkpt><trkpt lat="45.7626391" lon="10.2505417"><ele>512.0</ele><time>2026-04-27T14:42:49.586Z</time></trkpt><trkpt lat="45.7625477" lon="10.2504325"><ele>512.0</ele><time>2026-04-27T14:42:50.586Z</time></trkpt><trkpt lat="45.7624667" lon="10.2503093"><ele>511.25</ele><time>2026-04-27T14:42:51.586Z</time></trkpt><trkpt lat="45.7623957" lon="10.2501737"><ele>510.5</ele><time>2026-04-27T14:42:52.586Z</time></trkpt><trkpt lat="45.7623222" lon="10.2500385"><ele>509.75</ele><time>2026-04-27T14:42:53.586Z</time></trkpt><trkpt lat="45.7622506" lon="10.2499014"><ele>509.0</ele><time>2026-04-27T14:42:54.586Z</time></trkpt><trkpt lat="45.762179" lon="10.2497651"><ele>509.0</ele><time>2026-04-27T14:42:55.586Z</time></trkpt><trkpt lat="45.7621044" lon="10.2496256"><ele>509.0</ele><time>2026-04-27T14:42:56.586Z</time></trkpt><trkpt lat="45.7620241" lon="10.2494937"><ele>509.0</ele><time>2026-04-27T14:42:57.586Z</time></trkpt><trkpt lat="45.7619491" lon="10.2493584"><ele>509.0</ele><time>2026-04-27T14:42:58.586Z</time></trkpt><trkpt lat="45.7618747" lon="10.2492249"><ele>509.25</ele><time>2026-04-27T14:42:59.587Z</time></trkpt><trkpt lat="45.7617998" lon="10.249093"><ele>509.5</ele><time>2026-04-27T14:43:00.526Z</time></trkpt><trkpt lat="45.7617231" lon="10.2489537"><ele>509.75</ele><time>2026-04-27T14:43:01.52Z</time></trkpt><trkpt lat="45.7616468" lon="10.2488162"><ele>510.0</ele><time>2026-04-27T14:43:02.507Z</time></trkpt><trkpt lat="45.7615517" lon="10.2487828"><ele>510.0</ele><time>2026-04-27T14:43:03.587Z</time></trkpt><trkpt lat="45.7614778" lon="10.2486548"><ele>510.0</ele><time>2026-04-27T14:43:04.586Z</time></trkpt><trkpt lat="45.7613884" lon="10.2485534"><ele>510.0</ele><time>2026-04-27T14:43:05.586Z</time></trkpt><trkpt lat="45.7612957" lon="10.2484657"><ele>510.0</ele><time>2026-04-27T14:43:06.587Z</time></trkpt><trkpt lat="45.7612054" lon="10.2483863"><ele>510.0</ele><time>2026-04-27T14:43:07.586Z</time></trkpt><trkpt lat="45.7611205" lon="10.2483232"><ele>510.0</ele><time>2026-04-27T14:43:08.583Z</time></trkpt><trkpt lat="45.7610427" lon="10.2482585"><ele>510.0</ele><time>2026-04-27T14:43:09.586Z</time></trkpt><trkpt lat="45.7609602" lon="10.2481985"><ele>510.0</ele><time>2026-04-27T14:43:10.586Z</time></trkpt><trkpt lat="45.7608808" lon="10.2481386"><ele>510.0</ele><time>2026-04-27T14:43:11.586Z</time></trkpt><trkpt lat="45.7608019" lon="10.2480842"><ele>510.0</ele><time>2026-04-27T14:43:12.586Z</time></trkpt><trkpt lat="45.7607154" lon="10.2480419"><ele>510.4</ele><time>2026-04-27T14:43:13.586Z</time></trkpt><trkpt lat="45.7606269" lon="10.2479861"><ele>510.8</ele><time>2026-04-27T14:43:14.586Z</time></trkpt><trkpt lat="45.7605415" lon="10.2479308"><ele>511.20000000000005</ele><time>2026-04-27T14:43:15.587Z</time></trkpt><trkpt lat="45.7604546" lon="10.2478761"><ele>511.6</ele><time>2026-04-27T14:43:16.586Z</time></trkpt><trkpt lat="45.7603722" lon="10.2478201"><ele>512.0</ele><time>2026-04-27T14:43:17.586Z</time></trkpt><trkpt lat="45.7602923" lon="10.247739"><ele>512.0</ele><time>2026-04-27T14:43:18.587Z</time></trkpt><trkpt lat="45.760218" lon="10.2476494"><ele>512.0</ele><time>2026-04-27T14:43:19.521Z</time></trkpt><trkpt lat="45.7601489" lon="10.2475469"><ele>512.0</ele><time>2026-04-27T14:43:20.586Z</time></trkpt><trkpt lat="45.7600392" lon="10.2473039"><ele>512.0</ele><time>2026-04-27T14:43:22.587Z</time></trkpt><trkpt lat="45.7600018" lon="10.2471703"><ele>511.0</ele><time>2026-04-27T14:43:23.586Z</time></trkpt><trkpt lat="45.7599771" lon="10.2470309"><ele>510.00000000000006</ele><time>2026-04-27T14:43:24.587Z</time></trkpt><trkpt lat="45.7599509" lon="10.24689"><ele>509.00000000000006</ele><time>2026-04-27T14:43:25.586Z</time></trkpt><trkpt lat="45.7599322" lon="10.2467374"><ele>508.0</ele><time>2026-04-27T14:43:26.586Z</time></trkpt><trkpt lat="45.7599164" lon="10.2465931"><ele>507.0</ele><time>2026-04-27T14:43:27.586Z</time></trkpt><trkpt lat="45.759906" lon="10.2464528"><ele>507.0</ele><time>2026-04-27T14:43:28.586Z</time></trkpt><trkpt lat="45.7598915" lon="10.2463087"><ele>507.00000000000006</ele><time>2026-04-27T14:43:29.583Z</time></trkpt><trkpt lat="45.7598806" lon="10.2461673"><ele>507.00000000000006</ele><time>2026-04-27T14:43:30.586Z</time></trkpt><trkpt lat="45.7598664" lon="10.2460202"><ele>507.0</ele><time>2026-04-27T14:43:31.52Z</time></trkpt><trkpt lat="45.7598476" lon="10.2458747"><ele>507.0</ele><time>2026-04-27T14:43:32.586Z</time></trkpt><trkpt lat="45.7598308" lon="10.2457248"><ele>510.40000000000003</ele><time>2026-04-27T14:43:33.586Z</time></trkpt><trkpt lat="45.7598133" lon="10.2455783"><ele>513.8000000000001</ele><time>2026-04-27T14:43:34.587Z</time></trkpt><trkpt lat="45.7597832" lon="10.2454424"><ele>517.2</ele><time>2026-04-27T14:43:35.529Z</time></trkpt><trkpt lat="45.7597553" lon="10.2453031"><ele>520.6</ele><time>2026-04-27T14:43:36.518Z</time></trkpt><trkpt lat="45.7596638" lon="10.2451914"><ele>524.0</ele><time>2026-04-27T14:43:37.586Z</time></trkpt><trkpt lat="45.7596012" lon="10.2450708"><ele>524.0</ele><time>2026-04-27T14:43:38.587Z</time></trkpt><trkpt lat="45.759527" lon="10.2449528"><ele>524.0</ele><time>2026-04-27T14:43:39.586Z</time></trkpt><trkpt lat="45.7594462" lon="10.244843"><ele>524.0</ele><time>2026-04-27T14:43:40.525Z</time></trkpt><trkpt lat="45.7593602" lon="10.244747"><ele>524.0</ele><time>2026-04-27T14:43:41.586Z</time></trkpt><trkpt lat="45.7592775" lon="10.244646"><ele>524.0</ele><time>2026-04-27T14:43:42.586Z</time></trkpt><trkpt lat="45.7591792" lon="10.2445675"><ele>525.0</ele><time>2026-04-27T14:43:43.586Z</time></trkpt><trkpt lat="45.759066" lon="10.2445442"><ele>526.0</ele><time>2026-04-27T14:43:44.587Z</time></trkpt><trkpt lat="45.7589614" lon="10.2445217"><ele>527.0</ele><time>2026-04-27T14:43:45.586Z</time></trkpt><trkpt lat="45.7588557" lon="10.2445079"><ele>528.0</ele><time>2026-04-27T14:43:46.586Z</time></trkpt><trkpt lat="45.7587452" lon="10.2445078"><ele>529.0</ele><time>2026-04-27T14:43:47.586Z</time></trkpt><trkpt lat="45.7586395" lon="10.2445045"><ele>522.75</ele><time>2026-04-27T14:43:48.587Z</time></trkpt><trkpt lat="45.7585308" lon="10.2444788"><ele>516.5</ele><time>2026-04-27T14:43:49.586Z</time></trkpt><trkpt lat="45.7584201" lon="10.2444591"><ele>510.25</ele><time>2026-04-27T14:43:50.584Z</time></trkpt><trkpt lat="45.7583149" lon="10.2443877"><ele>504.0</ele><time>2026-04-27T14:43:51.587Z</time></trkpt><trkpt lat="45.7582087" lon="10.2443327"><ele>504.0</ele><time>2026-04-27T14:43:52.587Z</time></trkpt><trkpt lat="45.7581132" lon="10.2441974"><ele>504.0</ele><time>2026-04-27T14:43:53.586Z</time></trkpt><trkpt lat="45.7580107" lon="10.2440992"><ele>504.0</ele><time>2026-04-27T14:43:54.586Z</time></trkpt><trkpt lat="45.7579091" lon="10.243999"><ele>504.0</ele><time>2026-04-27T14:43:55.586Z</time></trkpt><trkpt lat="45.7578072" lon="10.2438931"><ele>505.0</ele><time>2026-04-27T14:43:56.586Z</time></trkpt><trkpt lat="45.7576999" lon="10.2437935"><ele>506.0</ele><time>2026-04-27T14:43:57.586Z</time></trkpt><trkpt lat="45.7575932" lon="10.2436931"><ele>507.0</ele><time>2026-04-27T14:43:58.586Z</time></trkpt><trkpt lat="45.7574889" lon="10.2435837"><ele>508.0</ele><time>2026-04-27T14:43:59.586Z</time></trkpt><trkpt lat="45.7573809" lon="10.2434789"><ele>508.0</ele><time>2026-04-27T14:44:00.586Z</time></trkpt><trkpt lat="45.7572488" lon="10.2433856"><ele>508.0</ele><time>2026-04-27T14:44:01.587Z</time></trkpt><trkpt lat="45.757133" lon="10.2432803"><ele>508.0</ele><time>2026-04-27T14:44:02.586Z</time></trkpt><trkpt lat="45.7570122" lon="10.2431858"><ele>508.0</ele><time>2026-04-27T14:44:03.586Z</time></trkpt><trkpt lat="45.7568832" lon="10.2431139"><ele>510.0</ele><time>2026-04-27T14:44:04.586Z</time></trkpt><trkpt lat="45.7567515" lon="10.2430557"><ele>512.0</ele><time>2026-04-27T14:44:05.586Z</time></trkpt><trkpt lat="45.7566265" lon="10.243014"><ele>514.0</ele><time>2026-04-27T14:44:06.587Z</time></trkpt><trkpt lat="45.7565014" lon="10.2429772"><ele>516.0</ele><time>2026-04-27T14:44:07.586Z</time></trkpt><trkpt lat="45.7563752" lon="10.2429398"><ele>509.0</ele><time>2026-04-27T14:44:08.514Z</time></trkpt><trkpt lat="45.7560146" lon="10.242858"><ele>502.0</ele><time>2026-04-27T14:44:11.479Z</time></trkpt><trkpt lat="45.7559021" lon="10.2427959"><ele>502.0</ele><time>2026-04-27T14:44:12.556Z</time></trkpt><trkpt lat="45.7557982" lon="10.2427189"><ele>502.0</ele><time>2026-04-27T14:44:13.563Z</time></trkpt><trkpt lat="45.7556888" lon="10.2426422"><ele>502.0</ele><time>2026-04-27T14:44:14.527Z</time></trkpt><trkpt lat="45.7555831" lon="10.2425626"><ele>502.0</ele><time>2026-04-27T14:44:15.542Z</time></trkpt><trkpt lat="45.7554767" lon="10.2424967"><ele>502.0</ele><time>2026-04-27T14:44:16.582Z</time></trkpt><trkpt lat="45.7553596" lon="10.2424713"><ele>502.0</ele><time>2026-04-27T14:44:17.582Z</time></trkpt><trkpt lat="45.7552423" lon="10.2424417"><ele>502.0</ele><time>2026-04-27T14:44:18.583Z</time></trkpt><trkpt lat="45.755125" lon="10.2424224"><ele>502.0</ele><time>2026-04-27T14:44:19.583Z</time></trkpt><trkpt lat="45.7550036" lon="10.2424199"><ele>499.0</ele><time>2026-04-27T14:44:20.582Z</time></trkpt><trkpt lat="45.7548812" lon="10.2424276"><ele>496.0</ele><time>2026-04-27T14:44:21.582Z</time></trkpt><trkpt lat="45.754758" lon="10.2424441"><ele>493.0</ele><time>2026-04-27T14:44:22.582Z</time></trkpt><trkpt lat="45.7546372" lon="10.2424634"><ele>490.0</ele><time>2026-04-27T14:44:23.582Z</time></trkpt><trkpt lat="45.754515" lon="10.2424819"><ele>490.0</ele><time>2026-04-27T14:44:24.582Z</time></trkpt><trkpt lat="45.7543923" lon="10.2425053"><ele>490.0</ele><time>2026-04-27T14:44:25.582Z</time></trkpt><trkpt lat="45.7542742" lon="10.2425245"><ele>490.0</ele><time>2026-04-27T14:44:26.582Z</time></trkpt><trkpt lat="45.7541562" lon="10.242548"><ele>490.0</ele><time>2026-04-27T14:44:27.582Z</time></trkpt><trkpt lat="45.7540352" lon="10.2425676"><ele>489.0</ele><time>2026-04-27T14:44:28.582Z</time></trkpt><trkpt lat="45.7539168" lon="10.2425819"><ele>488.0</ele><time>2026-04-27T14:44:29.582Z</time></trkpt><trkpt lat="45.753801" lon="10.2426075"><ele>487.0</ele><time>2026-04-27T14:44:30.582Z</time></trkpt><trkpt lat="45.7536848" lon="10.2426301"><ele>486.0</ele><time>2026-04-27T14:44:31.582Z</time></trkpt><trkpt lat="45.7535689" lon="10.2426464"><ele>485.5</ele><time>2026-04-27T14:44:32.582Z</time></trkpt><trkpt lat="45.7534524" lon="10.2426647"><ele>485.0</ele><time>2026-04-27T14:44:33.582Z</time></trkpt><trkpt lat="45.7533294" lon="10.242644"><ele>484.5</ele><time>2026-04-27T14:44:34.582Z</time></trkpt><trkpt lat="45.7532109" lon="10.2426385"><ele>484.0</ele><time>2026-04-27T14:44:35.582Z</time></trkpt><trkpt lat="45.7530906" lon="10.2425699"><ele>484.0</ele><time>2026-04-27T14:44:36.582Z</time></trkpt><trkpt lat="45.7529731" lon="10.2425208"><ele>484.0</ele><time>2026-04-27T14:44:37.582Z</time></trkpt><trkpt lat="45.7528608" lon="10.2424644"><ele>484.0</ele><time>2026-04-27T14:44:38.529Z</time></trkpt><trkpt lat="45.7527444" lon="10.2424005"><ele>484.0</ele><time>2026-04-27T14:44:39.544Z</time></trkpt><trkpt lat="45.7526257" lon="10.2423431"><ele>484.5</ele><time>2026-04-27T14:44:40.582Z</time></trkpt><trkpt lat="45.7525029" lon="10.2422827"><ele>485.0</ele><time>2026-04-27T14:44:41.582Z</time></trkpt><trkpt lat="45.7523854" lon="10.2422202"><ele>485.5</ele><time>2026-04-27T14:44:42.582Z</time></trkpt><trkpt lat="45.7522662" lon="10.2421604"><ele>486.0</ele><time>2026-04-27T14:44:43.528Z</time></trkpt><trkpt lat="45.7521444" lon="10.2420807"><ele>486.0</ele><time>2026-04-27T14:44:44.54Z</time></trkpt><trkpt lat="45.7520265" lon="10.2420076"><ele>486.0</ele><time>2026-04-27T14:44:45.521Z</time></trkpt><trkpt lat="45.7519049" lon="10.2419599"><ele>486.0</ele><time>2026-04-27T14:44:46.518Z</time></trkpt><trkpt lat="45.7517838" lon="10.2418937"><ele>486.0</ele><time>2026-04-27T14:44:47.521Z</time></trkpt><trkpt lat="45.7516614" lon="10.2418268"><ele>484.75</ele><time>2026-04-27T14:44:48.531Z</time></trkpt><trkpt lat="45.7515402" lon="10.2417583"><ele>483.5</ele><time>2026-04-27T14:44:49.524Z</time></trkpt><trkpt lat="45.7514185" lon="10.2416755"><ele>482.25</ele><time>2026-04-27T14:44:50.528Z</time></trkpt><trkpt lat="45.7513109" lon="10.2415766"><ele>481.0</ele><time>2026-04-27T14:44:51.582Z</time></trkpt><trkpt lat="45.7512024" lon="10.241476"><ele>480.5</ele><time>2026-04-27T14:44:52.582Z</time></trkpt><trkpt lat="45.7510937" lon="10.241374"><ele>480.0</ele><time>2026-04-27T14:44:53.582Z</time></trkpt><trkpt lat="45.7509775" lon="10.2412708"><ele>479.5</ele><time>2026-04-27T14:44:54.582Z</time></trkpt><trkpt lat="45.7508439" lon="10.2412455"><ele>479.0</ele><time>2026-04-27T14:44:55.583Z</time></trkpt><trkpt lat="45.7507138" lon="10.2412216"><ele>479.0</ele><time>2026-04-27T14:44:56.579Z</time></trkpt><trkpt lat="45.7505855" lon="10.2412248"><ele>479.0</ele><time>2026-04-27T14:44:57.582Z</time></trkpt><trkpt lat="45.7504668" lon="10.2412423"><ele>479.0</ele><time>2026-04-27T14:44:58.582Z</time></trkpt><trkpt lat="45.7503505" lon="10.2412589"><ele>479.0</ele><time>2026-04-27T14:44:59.582Z</time></trkpt><trkpt lat="45.7502342" lon="10.2412773"><ele>477.75</ele><time>2026-04-27T14:45:00.582Z</time></trkpt><trkpt lat="45.7501191" lon="10.2412888"><ele>476.5</ele><time>2026-04-27T14:45:01.582Z</time></trkpt><trkpt lat="45.7500041" lon="10.2413026"><ele>475.25</ele><time>2026-04-27T14:45:02.582Z</time></trkpt><trkpt lat="45.7498887" lon="10.2412813"><ele>474.0</ele><time>2026-04-27T14:45:03.582Z</time></trkpt><trkpt lat="45.7497737" lon="10.2412739"><ele>474.0</ele><time>2026-04-27T14:45:04.582Z</time></trkpt><trkpt lat="45.7496617" lon="10.2412149"><ele>474.0</ele><time>2026-04-27T14:45:05.582Z</time></trkpt><trkpt lat="45.749543" lon="10.2411933"><ele>474.0</ele><time>2026-04-27T14:45:06.583Z</time></trkpt><trkpt lat="45.7494308" lon="10.2411863"><ele>474.0</ele><time>2026-04-27T14:45:07.582Z</time></trkpt><trkpt lat="45.7493191" lon="10.2411642"><ele>474.25</ele><time>2026-04-27T14:45:08.569Z</time></trkpt><trkpt lat="45.7492083" lon="10.2411307"><ele>474.5</ele><time>2026-04-27T14:45:09.583Z</time></trkpt><trkpt lat="45.7490959" lon="10.2411056"><ele>474.75</ele><time>2026-04-27T14:45:10.582Z</time></trkpt><trkpt lat="45.7489834" lon="10.2410825"><ele>475.0</ele><time>2026-04-27T14:45:11.582Z</time></trkpt><trkpt lat="45.7488717" lon="10.2410596"><ele>475.0</ele><time>2026-04-27T14:45:12.582Z</time></trkpt><trkpt lat="45.7487588" lon="10.2410415"><ele>475.0</ele><time>2026-04-27T14:45:13.582Z</time></trkpt><trkpt lat="45.7486698" lon="10.2409882"><ele>475.0</ele><time>2026-04-27T14:45:14.582Z</time></trkpt><trkpt lat="45.7485754" lon="10.2409273"><ele>475.0</ele><time>2026-04-27T14:45:15.583Z</time></trkpt><trkpt lat="45.7484757" lon="10.2408723"><ele>475.0</ele><time>2026-04-27T14:45:16.542Z</time></trkpt><trkpt lat="45.7483845" lon="10.2408192"><ele>474.6</ele><time>2026-04-27T14:45:17.53Z</time></trkpt><trkpt lat="45.7482949" lon="10.240763"><ele>474.2</ele><time>2026-04-27T14:45:18.529Z</time></trkpt><trkpt lat="45.7482055" lon="10.2407101"><ele>473.79999999999995</ele><time>2026-04-27T14:45:19.582Z</time></trkpt><trkpt lat="45.7481179" lon="10.2406585"><ele>473.4</ele><time>2026-04-27T14:45:20.582Z</time></trkpt><trkpt lat="45.7480277" lon="10.2406066"><ele>473.0</ele><time>2026-04-27T14:45:21.583Z</time></trkpt><trkpt lat="45.747955" lon="10.2405324"><ele>474.0</ele><time>2026-04-27T14:45:22.582Z</time></trkpt><trkpt lat="45.7478578" lon="10.240477"><ele>474.99999999999994</ele><time>2026-04-27T14:45:23.582Z</time></trkpt><trkpt lat="45.74776" lon="10.2404147"><ele>475.99999999999994</ele><time>2026-04-27T14:45:24.583Z</time></trkpt><trkpt lat="45.7476613" lon="10.240357"><ele>477.0</ele><time>2026-04-27T14:45:25.583Z</time></trkpt><trkpt lat="45.7475723" lon="10.2402945"><ele>478.0</ele><time>2026-04-27T14:45:26.582Z</time></trkpt><trkpt lat="45.7474902" lon="10.2402475"><ele>478.00000000000006</ele><time>2026-04-27T14:45:27.582Z</time></trkpt><trkpt lat="45.7474142" lon="10.2401875"><ele>478.0</ele><time>2026-04-27T14:45:28.582Z</time></trkpt><trkpt lat="45.7473387" lon="10.2401328"><ele>478.0</ele><time>2026-04-27T14:45:29.582Z</time></trkpt><trkpt lat="45.7472662" lon="10.2400822"><ele>478.0</ele><time>2026-04-27T14:45:30.582Z</time></trkpt><trkpt lat="45.7471953" lon="10.2400353"><ele>478.00000000000006</ele><time>2026-04-27T14:45:31.582Z</time></trkpt><trkpt lat="45.7471148" lon="10.2400312"><ele>478.0</ele><time>2026-04-27T14:45:32.582Z</time></trkpt><trkpt lat="45.7470349" lon="10.2400172"><ele>478.0</ele><time>2026-04-27T14:45:33.582Z</time></trkpt><trkpt lat="45.7469569" lon="10.2400032"><ele>477.99999999999994</ele><time>2026-04-27T14:45:34.582Z</time></trkpt><trkpt lat="45.746857" lon="10.2400264"><ele>477.99999999999994</ele><time>2026-04-27T14:45:35.582Z</time></trkpt><trkpt lat="45.7467632" lon="10.2400368"><ele>478.0</ele><time>2026-04-27T14:45:36.582Z</time></trkpt><trkpt lat="45.7466661" lon="10.2400437"><ele>478.0</ele><time>2026-04-27T14:45:37.582Z</time></trkpt><trkpt lat="45.7465722" lon="10.2400577"><ele>477.59999999999997</ele><time>2026-04-27T14:45:38.572Z</time></trkpt><trkpt lat="45.7465069" lon="10.2400925"><ele>477.19999999999993</ele><time>2026-04-27T14:45:39.575Z</time></trkpt><trkpt lat="45.7464067" lon="10.2401119"><ele>476.8</ele><time>2026-04-27T14:45:40.582Z</time></trkpt><trkpt lat="45.7463077" lon="10.2401315"><ele>476.4</ele><time>2026-04-27T14:45:41.582Z</time></trkpt><trkpt lat="45.7462071" lon="10.2401604"><ele>476.0</ele><time>2026-04-27T14:45:42.582Z</time></trkpt><trkpt lat="45.7461099" lon="10.2401884"><ele>475.8</ele><time>2026-04-27T14:45:43.583Z</time></trkpt><trkpt lat="45.7460189" lon="10.2402313"><ele>475.6</ele><time>2026-04-27T14:45:44.582Z</time></trkpt><trkpt lat="45.7459331" lon="10.2402721"><ele>475.4</ele><time>2026-04-27T14:45:45.582Z</time></trkpt><trkpt lat="45.7458449" lon="10.2403167"><ele>475.2</ele><time>2026-04-27T14:45:46.582Z</time></trkpt><trkpt lat="45.7457617" lon="10.2403708"><ele>475.0</ele><time>2026-04-27T14:45:47.583Z</time></trkpt><trkpt lat="45.7456887" lon="10.2404471"><ele>475.0</ele><time>2026-04-27T14:45:48.582Z</time></trkpt><trkpt lat="45.745601" lon="10.2404824"><ele>475.0</ele><time>2026-04-27T14:45:49.582Z</time></trkpt><trkpt lat="45.7455192" lon="10.240507"><ele>475.0</ele><time>2026-04-27T14:45:50.582Z</time></trkpt><trkpt lat="45.7454322" lon="10.2405174"><ele>475.0</ele><time>2026-04-27T14:45:51.582Z</time></trkpt><trkpt lat="45.7453346" lon="10.2405003"><ele>475.0</ele><time>2026-04-27T14:45:52.53Z</time></trkpt><trkpt lat="45.7452347" lon="10.2404505"><ele>473.5</ele><time>2026-04-27T14:45:53.528Z</time></trkpt><trkpt lat="45.7451445" lon="10.2403646"><ele>472.0</ele><time>2026-04-27T14:45:54.582Z</time></trkpt><trkpt lat="45.7450491" lon="10.2402889"><ele>470.5</ele><time>2026-04-27T14:45:55.582Z</time></trkpt><trkpt lat="45.7449718" lon="10.2401498"><ele>469.0</ele><time>2026-04-27T14:45:56.582Z</time></trkpt><trkpt lat="45.7449253" lon="10.2399625"><ele>469.0</ele><time>2026-04-27T14:45:57.582Z</time></trkpt><trkpt lat="45.7448612" lon="10.2398051"><ele>469.0</ele><time>2026-04-27T14:45:58.582Z</time></trkpt><trkpt lat="45.7447928" lon="10.2396452"><ele>469.0</ele><time>2026-04-27T14:45:59.582Z</time></trkpt><trkpt lat="45.7447346" lon="10.2394834"><ele>469.0</ele><time>2026-04-27T14:46:00.582Z</time></trkpt><trkpt lat="45.7446747" lon="10.2393286"><ele>472.5</ele><time>2026-04-27T14:46:01.582Z</time></trkpt><trkpt lat="45.7446152" lon="10.2391804"><ele>476.0</ele><time>2026-04-27T14:46:02.583Z</time></trkpt><trkpt lat="45.7445565" lon="10.2390302"><ele>479.5</ele><time>2026-04-27T14:46:03.582Z</time></trkpt><trkpt lat="45.7444967" lon="10.2388821"><ele>483.0</ele><time>2026-04-27T14:46:04.582Z</time></trkpt><trkpt lat="45.7444368" lon="10.2387437"><ele>479.25</ele><time>2026-04-27T14:46:05.582Z</time></trkpt><trkpt lat="45.7443775" lon="10.2386024"><ele>475.5</ele><time>2026-04-27T14:46:06.582Z</time></trkpt><trkpt lat="45.7443244" lon="10.2384573"><ele>471.75</ele><time>2026-04-27T14:46:07.582Z</time></trkpt><trkpt lat="45.7442489" lon="10.2383251"><ele>468.0</ele><time>2026-04-27T14:46:08.582Z</time></trkpt><trkpt lat="45.7441633" lon="10.2382064"><ele>474.5</ele><time>2026-04-27T14:46:09.582Z</time></trkpt><trkpt lat="45.7440625" lon="10.2381013"><ele>481.0</ele><time>2026-04-27T14:46:10.582Z</time></trkpt><trkpt lat="45.7439556" lon="10.2380135"><ele>487.5</ele><time>2026-04-27T14:46:11.582Z</time></trkpt><trkpt lat="45.7438509" lon="10.2379196"><ele>494.0</ele><time>2026-04-27T14:46:12.582Z</time></trkpt><trkpt lat="45.743735" lon="10.2378465"><ele>494.0</ele><time>2026-04-27T14:46:13.582Z</time></trkpt><trkpt lat="45.7436127" lon="10.2378199"><ele>494.0</ele><time>2026-04-27T14:46:14.582Z</time></trkpt><trkpt lat="45.7434873" lon="10.2377998"><ele>494.0</ele><time>2026-04-27T14:46:15.582Z</time></trkpt><trkpt lat="45.7433586" lon="10.2378089"><ele>494.0</ele><time>2026-04-27T14:46:16.582Z</time></trkpt><trkpt lat="45.7432329" lon="10.2378436"><ele>490.75</ele><time>2026-04-27T14:46:17.582Z</time></trkpt><trkpt lat="45.7431096" lon="10.2379007"><ele>487.5</ele><time>2026-04-27T14:46:18.582Z</time></trkpt><trkpt lat="45.7429876" lon="10.2379592"><ele>484.25</ele><time>2026-04-27T14:46:19.583Z</time></trkpt><trkpt lat="45.7428679" lon="10.2380158"><ele>481.0</ele><time>2026-04-27T14:46:20.582Z</time></trkpt><trkpt lat="45.7427472" lon="10.2380753"><ele>481.25</ele><time>2026-04-27T14:46:21.516Z</time></trkpt><trkpt lat="45.7426228" lon="10.2381308"><ele>481.5</ele><time>2026-04-27T14:46:22.582Z</time></trkpt><trkpt lat="45.7425143" lon="10.2381886"><ele>481.75</ele><time>2026-04-27T14:46:23.582Z</time></trkpt><trkpt lat="45.7424022" lon="10.2382497"><ele>482.0</ele><time>2026-04-27T14:46:24.582Z</time></trkpt><trkpt lat="45.7422899" lon="10.2383063"><ele>477.5</ele><time>2026-04-27T14:46:25.582Z</time></trkpt><trkpt lat="45.742176" lon="10.2383597"><ele>473.0</ele><time>2026-04-27T14:46:26.528Z</time></trkpt><trkpt lat="45.7420622" lon="10.2384151"><ele>468.5</ele><time>2026-04-27T14:46:27.509Z</time></trkpt><trkpt lat="45.7419524" lon="10.2384433"><ele>464.0</ele><time>2026-04-27T14:46:28.583Z</time></trkpt><trkpt lat="45.7418291" lon="10.2384234"><ele>462.75</ele><time>2026-04-27T14:46:29.583Z</time></trkpt><trkpt lat="45.7417131" lon="10.2384165"><ele>461.5</ele><time>2026-04-27T14:46:30.583Z</time></trkpt><trkpt lat="45.7415949" lon="10.2383898"><ele>460.25</ele><time>2026-04-27T14:46:31.582Z</time></trkpt><trkpt lat="45.7414783" lon="10.2383554"><ele>459.0</ele><time>2026-04-27T14:46:32.527Z</time></trkpt><trkpt lat="45.7413602" lon="10.238299"><ele>459.0</ele><time>2026-04-27T14:46:33.582Z</time></trkpt><trkpt lat="45.7412455" lon="10.2382439"><ele>459.0</ele><time>2026-04-27T14:46:34.582Z</time></trkpt><trkpt lat="45.7411298" lon="10.2381677"><ele>459.0</ele><time>2026-04-27T14:46:35.583Z</time></trkpt><trkpt lat="45.741014" lon="10.2380957"><ele>459.0</ele><time>2026-04-27T14:46:36.582Z</time></trkpt><trkpt lat="45.7408925" lon="10.2380156"><ele>459.5</ele><time>2026-04-27T14:46:37.582Z</time></trkpt><trkpt lat="45.7407688" lon="10.2379274"><ele>460.0</ele><time>2026-04-27T14:46:38.582Z</time></trkpt><trkpt lat="45.7406434" lon="10.2378394"><ele>460.5</ele><time>2026-04-27T14:46:39.582Z</time></trkpt><trkpt lat="45.7405161" lon="10.2377545"><ele>461.0</ele><time>2026-04-27T14:46:40.582Z</time></trkpt><trkpt lat="45.7403894" lon="10.2376629"><ele>461.0</ele><time>2026-04-27T14:46:41.582Z</time></trkpt><trkpt lat="45.7402628" lon="10.2375702"><ele>461.0</ele><time>2026-04-27T14:46:42.577Z</time></trkpt><trkpt lat="45.7401409" lon="10.2374863"><ele>461.0</ele><time>2026-04-27T14:46:43.582Z</time></trkpt><trkpt lat="45.740018" lon="10.2374009"><ele>461.0</ele><time>2026-04-27T14:46:44.509Z</time></trkpt><trkpt lat="45.7399028" lon="10.2373212"><ele>461.25</ele><time>2026-04-27T14:46:45.537Z</time></trkpt><trkpt lat="45.7397898" lon="10.2372464"><ele>461.5</ele><time>2026-04-27T14:46:46.537Z</time></trkpt><trkpt lat="45.7396737" lon="10.2371692"><ele>461.75</ele><time>2026-04-27T14:46:47.537Z</time></trkpt><trkpt lat="45.7395551" lon="10.2370952"><ele>462.0</ele><time>2026-04-27T14:46:48.521Z</time></trkpt><trkpt lat="45.7394369" lon="10.2370195"><ele>460.0</ele><time>2026-04-27T14:46:49.54Z</time></trkpt><trkpt lat="45.7393207" lon="10.2369455"><ele>458.0</ele><time>2026-04-27T14:46:50.528Z</time></trkpt><trkpt lat="45.7392074" lon="10.2368787"><ele>456.0</ele><time>2026-04-27T14:46:51.535Z</time></trkpt><trkpt lat="45.739092" lon="10.2368081"><ele>454.0</ele><time>2026-04-27T14:46:52.512Z</time></trkpt><trkpt lat="45.7389699" lon="10.2367547"><ele>454.0</ele><time>2026-04-27T14:46:53.523Z</time></trkpt><trkpt lat="45.7388473" lon="10.2367002"><ele>454.0</ele><time>2026-04-27T14:46:54.522Z</time></trkpt><trkpt lat="45.7387306" lon="10.2366415"><ele>454.0</ele><time>2026-04-27T14:46:55.515Z</time></trkpt><trkpt lat="45.7386071" lon="10.23659"><ele>454.0</ele><time>2026-04-27T14:46:56.525Z</time></trkpt><trkpt lat="45.7384931" lon="10.236533"><ele>454.75</ele><time>2026-04-27T14:46:57.523Z</time></trkpt><trkpt lat="45.7383789" lon="10.2364829"><ele>455.5</ele><time>2026-04-27T14:46:58.532Z</time></trkpt><trkpt lat="45.7382621" lon="10.2364381"><ele>456.25</ele><time>2026-04-27T14:46:59.517Z</time></trkpt><trkpt lat="45.738144" lon="10.2363909"><ele>457.0</ele><time>2026-04-27T14:47:00.532Z</time></trkpt><trkpt lat="45.7380258" lon="10.2363391"><ele>457.0</ele><time>2026-04-27T14:47:01.539Z</time></trkpt><trkpt lat="45.7379093" lon="10.236287"><ele>457.0</ele><time>2026-04-27T14:47:02.513Z</time></trkpt><trkpt lat="45.7377976" lon="10.2362214"><ele>457.0</ele><time>2026-04-27T14:47:03.527Z</time></trkpt><trkpt lat="45.7376898" lon="10.2361567"><ele>457.0</ele><time>2026-04-27T14:47:04.53Z</time></trkpt><trkpt lat="45.7375857" lon="10.2360786"><ele>453.5</ele><time>2026-04-27T14:47:05.535Z</time></trkpt><trkpt lat="45.7374851" lon="10.2359883"><ele>450.0</ele><time>2026-04-27T14:47:06.528Z</time></trkpt><trkpt lat="45.7373855" lon="10.2358967"><ele>446.5</ele><time>2026-04-27T14:47:07.514Z</time></trkpt><trkpt lat="45.7372872" lon="10.23579"><ele>443.0</ele><time>2026-04-27T14:47:08.539Z</time></trkpt><trkpt lat="45.7372019" lon="10.2356769"><ele>445.75</ele><time>2026-04-27T14:47:09.511Z</time></trkpt><trkpt lat="45.7371172" lon="10.235552"><ele>448.5</ele><time>2026-04-27T14:47:10.53Z</time></trkpt><trkpt lat="45.737041" lon="10.2354189"><ele>451.25</ele><time>2026-04-27T14:47:11.529Z</time></trkpt><trkpt lat="45.7369696" lon="10.2352814"><ele>454.0</ele><time>2026-04-27T14:47:12.53Z</time></trkpt><trkpt lat="45.7369051" lon="10.2351322"><ele>452.0</ele><time>2026-04-27T14:47:13.53Z</time></trkpt><trkpt lat="45.7368496" lon="10.2349732"><ele>450.0</ele><time>2026-04-27T14:47:14.527Z</time></trkpt><trkpt lat="45.7367978" lon="10.234814"><ele>448.0</ele><time>2026-04-27T14:47:15.523Z</time></trkpt><trkpt lat="45.7367447" lon="10.2346541"><ele>446.0</ele><time>2026-04-27T14:47:16.582Z</time></trkpt><trkpt lat="45.7366953" lon="10.2345038"><ele>446.0</ele><time>2026-04-27T14:47:17.582Z</time></trkpt><trkpt lat="45.7366463" lon="10.2343427"><ele>446.0</ele><time>2026-04-27T14:47:18.582Z</time></trkpt><trkpt lat="45.736592" lon="10.2341814"><ele>446.0</ele><time>2026-04-27T14:47:19.582Z</time></trkpt><trkpt lat="45.7365312" lon="10.2340272"><ele>446.0</ele><time>2026-04-27T14:47:20.582Z</time></trkpt><trkpt lat="45.7364592" lon="10.2338795"><ele>452.0</ele><time>2026-04-27T14:47:21.582Z</time></trkpt><trkpt lat="45.7363729" lon="10.2337429"><ele>458.0</ele><time>2026-04-27T14:47:22.582Z</time></trkpt><trkpt lat="45.7362751" lon="10.2336178"><ele>464.0</ele><time>2026-04-27T14:47:23.582Z</time></trkpt><trkpt lat="45.7361726" lon="10.2335066"><ele>470.0</ele><time>2026-04-27T14:47:24.582Z</time></trkpt><trkpt lat="45.7360692" lon="10.2333977"><ele>474.75</ele><time>2026-04-27T14:47:25.58Z</time></trkpt><trkpt lat="45.7359564" lon="10.2333033"><ele>479.5</ele><time>2026-04-27T14:47:26.583Z</time></trkpt><trkpt lat="45.7358436" lon="10.233211"><ele>484.25</ele><time>2026-04-27T14:47:27.582Z</time></trkpt><trkpt lat="45.7357314" lon="10.2331267"><ele>489.0</ele><time>2026-04-27T14:47:28.582Z</time></trkpt><trkpt lat="45.7356142" lon="10.2330496"><ele>489.0</ele><time>2026-04-27T14:47:29.582Z</time></trkpt><trkpt lat="45.7354907" lon="10.2329904"><ele>489.0</ele><time>2026-04-27T14:47:30.582Z</time></trkpt><trkpt lat="45.7353598" lon="10.2329577"><ele>489.0</ele><time>2026-04-27T14:47:31.582Z</time></trkpt><trkpt lat="45.7352224" lon="10.2329381"><ele>489.0</ele><time>2026-04-27T14:47:32.583Z</time></trkpt><trkpt lat="45.7350854" lon="10.2329215"><ele>488.75</ele><time>2026-04-27T14:47:33.582Z</time></trkpt><trkpt lat="45.7349468" lon="10.2329177"><ele>488.5</ele><time>2026-04-27T14:47:34.531Z</time></trkpt><trkpt lat="45.7348034" lon="10.2329144"><ele>488.25</ele><time>2026-04-27T14:47:35.526Z</time></trkpt><trkpt lat="45.7346574" lon="10.2329294"><ele>488.0</ele><time>2026-04-27T14:47:36.582Z</time></trkpt><trkpt lat="45.7345147" lon="10.2330026"><ele>490.5</ele><time>2026-04-27T14:47:37.583Z</time></trkpt><trkpt lat="45.7343839" lon="10.233085"><ele>493.0</ele><time>2026-04-27T14:47:38.582Z</time></trkpt><trkpt lat="45.7342616" lon="10.2331957"><ele>495.5</ele><time>2026-04-27T14:47:39.583Z</time></trkpt><trkpt lat="45.7341514" lon="10.2333378"><ele>498.0</ele><time>2026-04-27T14:47:40.583Z</time></trkpt><trkpt lat="45.73406" lon="10.2335059"><ele>484.5</ele><time>2026-04-27T14:47:41.583Z</time></trkpt><trkpt lat="45.733989" lon="10.2336894"><ele>471.0</ele><time>2026-04-27T14:47:42.582Z</time></trkpt><trkpt lat="45.7339249" lon="10.2338863"><ele>457.5</ele><time>2026-04-27T14:47:43.582Z</time></trkpt><trkpt lat="45.7338593" lon="10.2340808"><ele>444.0</ele><time>2026-04-27T14:47:44.582Z</time></trkpt><trkpt lat="45.7337789" lon="10.2342676"><ele>441.33333333333337</ele><time>2026-04-27T14:47:45.582Z</time></trkpt><trkpt lat="45.7337027" lon="10.2344531"><ele>438.6666666666667</ele><time>2026-04-27T14:47:46.582Z</time></trkpt><trkpt lat="45.7335529" lon="10.23458"><ele>436.0</ele><time>2026-04-27T14:47:47.583Z</time></trkpt><trkpt lat="45.7334294" lon="10.2347134"><ele>438.6666666666667</ele><time>2026-04-27T14:47:48.583Z</time></trkpt><trkpt lat="45.7333101" lon="10.2348479"><ele>441.33333333333337</ele><time>2026-04-27T14:47:49.582Z</time></trkpt><trkpt lat="45.7331901" lon="10.2349799"><ele>444.0</ele><time>2026-04-27T14:47:50.582Z</time></trkpt><trkpt lat="45.7330699" lon="10.2351141"><ele>444.0</ele><time>2026-04-27T14:47:51.582Z</time></trkpt><trkpt lat="45.7329522" lon="10.2352499"><ele>444.0</ele><time>2026-04-27T14:47:52.529Z</time></trkpt><trkpt lat="45.7328269" lon="10.2353829"><ele>444.0</ele><time>2026-04-27T14:47:53.532Z</time></trkpt><trkpt lat="45.7326986" lon="10.2354818"><ele>445.0</ele><time>2026-04-27T14:47:54.582Z</time></trkpt><trkpt lat="45.7325549" lon="10.2355587"><ele>446.0</ele><time>2026-04-27T14:47:55.582Z</time></trkpt><trkpt lat="45.7324088" lon="10.2355956"><ele>447.0</ele><time>2026-04-27T14:47:56.582Z</time></trkpt><trkpt lat="45.7322617" lon="10.2355965"><ele>448.0</ele><time>2026-04-27T14:47:57.582Z</time></trkpt><trkpt lat="45.7321184" lon="10.2355666"><ele>448.0</ele><time>2026-04-27T14:47:58.582Z</time></trkpt><trkpt lat="45.7319834" lon="10.2354916"><ele>448.0</ele><time>2026-04-27T14:47:59.582Z</time></trkpt><trkpt lat="45.7318434" lon="10.2354255"><ele>448.0</ele><time>2026-04-27T14:48:00.582Z</time></trkpt><trkpt lat="45.7317258" lon="10.2352892"><ele>448.0</ele><time>2026-04-27T14:48:01.582Z</time></trkpt><trkpt lat="45.7316452" lon="10.2350855"><ele>445.0</ele><time>2026-04-27T14:48:02.582Z</time></trkpt><trkpt lat="45.7315369" lon="10.234935"><ele>442.0</ele><time>2026-04-27T14:48:03.582Z</time></trkpt><trkpt lat="45.7314094" lon="10.2348197"><ele>439.0</ele><time>2026-04-27T14:48:04.582Z</time></trkpt><trkpt lat="45.7312727" lon="10.2347392"><ele>436.0</ele><time>2026-04-27T14:48:05.582Z</time></trkpt><trkpt lat="45.7311273" lon="10.2347029"><ele>447.5</ele><time>2026-04-27T14:48:06.582Z</time></trkpt><trkpt lat="45.7309797" lon="10.234704"><ele>459.0</ele><time>2026-04-27T14:48:07.571Z</time></trkpt><trkpt lat="45.7308303" lon="10.2347101"><ele>470.5</ele><time>2026-04-27T14:48:08.527Z</time></trkpt><trkpt lat="45.7306818" lon="10.2347174"><ele>482.0</ele><time>2026-04-27T14:48:09.516Z</time></trkpt><trkpt lat="45.7305495" lon="10.2348037"><ele>471.0</ele><time>2026-04-27T14:48:10.528Z</time></trkpt><trkpt lat="45.7304076" lon="10.2349061"><ele>460.0</ele><time>2026-04-27T14:48:11.581Z</time></trkpt><trkpt lat="45.7302775" lon="10.2349753"><ele>449.0</ele><time>2026-04-27T14:48:12.582Z</time></trkpt><trkpt lat="45.7301526" lon="10.2350864"><ele>438.0</ele><time>2026-04-27T14:48:13.582Z</time></trkpt><trkpt lat="45.7300364" lon="10.2351997"><ele>436.75</ele><time>2026-04-27T14:48:14.582Z</time></trkpt><trkpt lat="45.7299222" lon="10.2353151"><ele>435.5</ele><time>2026-04-27T14:48:15.582Z</time></trkpt><trkpt lat="45.7298078" lon="10.235432"><ele>434.25</ele><time>2026-04-27T14:48:16.582Z</time></trkpt><trkpt lat="45.7297028" lon="10.2355541"><ele>433.0</ele><time>2026-04-27T14:48:17.583Z</time></trkpt><trkpt lat="45.729593" lon="10.2356687"><ele>431.75</ele><time>2026-04-27T14:48:18.582Z</time></trkpt><trkpt lat="45.7294786" lon="10.2357683"><ele>430.5</ele><time>2026-04-27T14:48:19.582Z</time></trkpt><trkpt lat="45.7293513" lon="10.2357744"><ele>429.25</ele><time>2026-04-27T14:48:20.582Z</time></trkpt><trkpt lat="45.7292224" lon="10.2357868"><ele>428.0</ele><time>2026-04-27T14:48:21.583Z</time></trkpt><trkpt lat="45.7290924" lon="10.2357696"><ele>427.25</ele><time>2026-04-27T14:48:22.582Z</time></trkpt><trkpt lat="45.7289635" lon="10.2357207"><ele>426.5</ele><time>2026-04-27T14:48:23.582Z</time></trkpt><trkpt lat="45.7288461" lon="10.2356292"><ele>425.75</ele><time>2026-04-27T14:48:24.582Z</time></trkpt><trkpt lat="45.7287417" lon="10.2355106"><ele>425.0</ele><time>2026-04-27T14:48:25.583Z</time></trkpt><trkpt lat="45.7286375" lon="10.2353844"><ele>424.0</ele><time>2026-04-27T14:48:26.583Z</time></trkpt><trkpt lat="45.7285338" lon="10.2352539"><ele>423.0</ele><time>2026-04-27T14:48:27.582Z</time></trkpt><trkpt lat="45.7284895" lon="10.2350668"><ele>422.0</ele><time>2026-04-27T14:48:28.582Z</time></trkpt><trkpt lat="45.7284403" lon="10.2348941"><ele>421.0</ele><time>2026-04-27T14:48:29.582Z</time></trkpt><trkpt lat="45.7283844" lon="10.2347242"><ele>423.0</ele><time>2026-04-27T14:48:30.582Z</time></trkpt><trkpt lat="45.7283263" lon="10.2345656"><ele>425.0</ele><time>2026-04-27T14:48:31.531Z</time></trkpt><trkpt lat="45.7282648" lon="10.2344068"><ele>427.0</ele><time>2026-04-27T14:48:32.582Z</time></trkpt><trkpt lat="45.7282038" lon="10.2342502"><ele>429.0</ele><time>2026-04-27T14:48:33.582Z</time></trkpt><trkpt lat="45.7281395" lon="10.2340982"><ele>429.0</ele><time>2026-04-27T14:48:34.524Z</time></trkpt><trkpt lat="45.7280686" lon="10.2339807"><ele>429.0</ele><time>2026-04-27T14:48:35.582Z</time></trkpt><trkpt lat="45.7279958" lon="10.2338534"><ele>429.0</ele><time>2026-04-27T14:48:36.583Z</time></trkpt><trkpt lat="45.7279255" lon="10.2337267"><ele>429.0</ele><time>2026-04-27T14:48:37.582Z</time></trkpt><trkpt lat="45.727857" lon="10.2336013"><ele>429.0</ele><time>2026-04-27T14:48:38.582Z</time></trkpt><trkpt lat="45.7277848" lon="10.2334787"><ele>427.2</ele><time>2026-04-27T14:48:39.582Z</time></trkpt><trkpt lat="45.7277145" lon="10.233355"><ele>425.4</ele><time>2026-04-27T14:48:40.582Z</time></trkpt><trkpt lat="45.727645" lon="10.2332407"><ele>423.6</ele><time>2026-04-27T14:48:41.529Z</time></trkpt><trkpt lat="45.7275575" lon="10.2331357"><ele>421.8</ele><time>2026-04-27T14:48:42.529Z</time></trkpt><trkpt lat="45.7274734" lon="10.2330318"><ele>420.0</ele><time>2026-04-27T14:48:43.582Z</time></trkpt><trkpt lat="45.7273852" lon="10.2329369"><ele>426.0</ele><time>2026-04-27T14:48:44.582Z</time></trkpt><trkpt lat="45.7272902" lon="10.2328531"><ele>432.0</ele><time>2026-04-27T14:48:45.582Z</time></trkpt><trkpt lat="45.7271888" lon="10.2327852"><ele>438.0</ele><time>2026-04-27T14:48:46.582Z</time></trkpt><trkpt lat="45.7270828" lon="10.2327292"><ele>444.0</ele><time>2026-04-27T14:48:47.582Z</time></trkpt><trkpt lat="45.7269732" lon="10.2326893"><ele>438.75</ele><time>2026-04-27T14:48:48.582Z</time></trkpt><trkpt lat="45.7268636" lon="10.2326466"><ele>433.5</ele><time>2026-04-27T14:48:49.582Z</time></trkpt><trkpt lat="45.7267416" lon="10.2326338"><ele>428.25</ele><time>2026-04-27T14:48:50.582Z</time></trkpt><trkpt lat="45.7266016" lon="10.2326668"><ele>423.0</ele><time>2026-04-27T14:48:51.582Z</time></trkpt><trkpt lat="45.7264731" lon="10.232679"><ele>423.0</ele><time>2026-04-27T14:48:52.582Z</time></trkpt><trkpt lat="45.7263398" lon="10.2326927"><ele>423.0</ele><time>2026-04-27T14:48:53.582Z</time></trkpt><trkpt lat="45.7262038" lon="10.2327106"><ele>423.0</ele><time>2026-04-27T14:48:54.582Z</time></trkpt><trkpt lat="45.7260651" lon="10.2327256"><ele>423.0</ele><time>2026-04-27T14:48:55.582Z</time></trkpt><trkpt lat="45.7259265" lon="10.2327397"><ele>422.5</ele><time>2026-04-27T14:48:56.582Z</time></trkpt><trkpt lat="45.7257811" lon="10.2327546"><ele>422.0</ele><time>2026-04-27T14:48:57.582Z</time></trkpt><trkpt lat="45.7256438" lon="10.2326702"><ele>421.5</ele><time>2026-04-27T14:48:58.582Z</time></trkpt><trkpt lat="45.7255162" lon="10.2325786"><ele>421.0</ele><time>2026-04-27T14:48:59.582Z</time></trkpt><trkpt lat="45.7253979" lon="10.2324596"><ele>421.0</ele><time>2026-04-27T14:49:00.582Z</time></trkpt><trkpt lat="45.7252892" lon="10.2323226"><ele>421.0</ele><time>2026-04-27T14:49:01.582Z</time></trkpt><trkpt lat="45.7251779" lon="10.2321929"><ele>421.0</ele><time>2026-04-27T14:49:02.582Z</time></trkpt><trkpt lat="45.7250783" lon="10.2320716"><ele>421.0</ele><time>2026-04-27T14:49:03.582Z</time></trkpt><trkpt lat="45.724981" lon="10.2319582"><ele>421.25</ele><time>2026-04-27T14:49:04.582Z</time></trkpt><trkpt lat="45.7248825" lon="10.2318405"><ele>421.5</ele><time>2026-04-27T14:49:05.582Z</time></trkpt><trkpt lat="45.7247975" lon="10.2317237"><ele>421.75</ele><time>2026-04-27T14:49:06.582Z</time></trkpt><trkpt lat="45.7247013" lon="10.2316105"><ele>422.0</ele><time>2026-04-27T14:49:07.582Z</time></trkpt><trkpt lat="45.724612" lon="10.2314974"><ele>416.0</ele><time>2026-04-27T14:49:08.582Z</time></trkpt><trkpt lat="45.7245248" lon="10.2313857"><ele>410.0</ele><time>2026-04-27T14:49:09.582Z</time></trkpt><trkpt lat="45.7242506" lon="10.2310333"><ele>410.0</ele><time>2026-04-27T14:49:12.572Z</time></trkpt><trkpt lat="45.7241564" lon="10.2309157"><ele>410.0</ele><time>2026-04-27T14:49:13.533Z</time></trkpt><trkpt lat="45.7240636" lon="10.2307986"><ele>410.0</ele><time>2026-04-27T14:49:14.58Z</time></trkpt><trkpt lat="45.7239742" lon="10.2306717"><ele>410.0</ele><time>2026-04-27T14:49:15.509Z</time></trkpt><trkpt lat="45.7238834" lon="10.2305476"><ele>412.5</ele><time>2026-04-27T14:49:16.484Z</time></trkpt><trkpt lat="45.7238045" lon="10.2303987"><ele>415.0</ele><time>2026-04-27T14:49:17.567Z</time></trkpt><trkpt lat="45.7237332" lon="10.2302458"><ele>417.5</ele><time>2026-04-27T14:49:18.566Z</time></trkpt><trkpt lat="45.7236628" lon="10.2300939"><ele>420.0</ele><time>2026-04-27T14:49:19.566Z</time></trkpt><trkpt lat="45.7236094" lon="10.2299441"><ele>419.4</ele><time>2026-04-27T14:49:20.566Z</time></trkpt><trkpt lat="45.7235618" lon="10.2297956"><ele>418.8</ele><time>2026-04-27T14:49:21.566Z</time></trkpt><trkpt lat="45.7235151" lon="10.2296615"><ele>418.20000000000005</ele><time>2026-04-27T14:49:22.525Z</time></trkpt><trkpt lat="45.7234654" lon="10.229523"><ele>417.6</ele><time>2026-04-27T14:49:23.566Z</time></trkpt><trkpt lat="45.7234157" lon="10.2293875"><ele>417.0</ele><time>2026-04-27T14:49:24.566Z</time></trkpt><trkpt lat="45.7233806" lon="10.2292619"><ele>417.0</ele><time>2026-04-27T14:49:25.566Z</time></trkpt><trkpt lat="45.7233062" lon="10.2291264"><ele>417.0</ele><time>2026-04-27T14:49:26.566Z</time></trkpt><trkpt lat="45.7232352" lon="10.2290246"><ele>417.0</ele><time>2026-04-27T14:49:27.566Z</time></trkpt><trkpt lat="45.7231526" lon="10.2289453"><ele>417.0</ele><time>2026-04-27T14:49:28.566Z</time></trkpt><trkpt lat="45.7230739" lon="10.2288916"><ele>417.0</ele><time>2026-04-27T14:49:29.566Z</time></trkpt><trkpt lat="45.7229916" lon="10.2288596"><ele>416.0</ele><time>2026-04-27T14:49:30.566Z</time></trkpt><trkpt lat="45.7229113" lon="10.2288446"><ele>415.0</ele><time>2026-04-27T14:49:31.566Z</time></trkpt><trkpt lat="45.7228223" lon="10.2288469"><ele>414.0</ele><time>2026-04-27T14:49:32.566Z</time></trkpt><trkpt lat="45.7227348" lon="10.2288469"><ele>413.0</ele><time>2026-04-27T14:49:33.51Z</time></trkpt><trkpt lat="45.7226306" lon="10.2288831"><ele>412.0</ele><time>2026-04-27T14:49:34.566Z</time></trkpt><trkpt lat="45.7225441" lon="10.2290327"><ele>412.0</ele><time>2026-04-27T14:49:35.566Z</time></trkpt><trkpt lat="45.7224608" lon="10.2291552"><ele>412.0</ele><time>2026-04-27T14:49:36.566Z</time></trkpt><trkpt lat="45.7223781" lon="10.2292893"><ele>412.0</ele><time>2026-04-27T14:49:37.566Z</time></trkpt><trkpt lat="45.7222969" lon="10.2294342"><ele>412.0</ele><time>2026-04-27T14:49:38.566Z</time></trkpt><trkpt lat="45.7222172" lon="10.2295725"><ele>412.0</ele><time>2026-04-27T14:49:39.566Z</time></trkpt><trkpt lat="45.7221392" lon="10.2297099"><ele>412.0</ele><time>2026-04-27T14:49:40.567Z</time></trkpt><trkpt lat="45.7220691" lon="10.2298372"><ele>412.0</ele><time>2026-04-27T14:49:41.567Z</time></trkpt><trkpt lat="45.7219997" lon="10.2299594"><ele>412.0</ele><time>2026-04-27T14:49:42.567Z</time></trkpt><trkpt lat="45.7219255" lon="10.2300683"><ele>410.6</ele><time>2026-04-27T14:49:43.567Z</time></trkpt><trkpt lat="45.7218468" lon="10.230167"><ele>409.20000000000005</ele><time>2026-04-27T14:49:44.528Z</time></trkpt><trkpt lat="45.7217648" lon="10.2302603"><ele>407.8</ele><time>2026-04-27T14:49:45.527Z</time></trkpt><trkpt lat="45.7216696" lon="10.2303074"><ele>406.4</ele><time>2026-04-27T14:49:46.534Z</time></trkpt><trkpt lat="45.7215771" lon="10.2303714"><ele>405.0</ele><time>2026-04-27T14:49:47.566Z</time></trkpt><trkpt lat="45.7214647" lon="10.2304089"><ele>405.0</ele><time>2026-04-27T14:49:48.528Z</time></trkpt><trkpt lat="45.7213596" lon="10.2304475"><ele>405.0</ele><time>2026-04-27T14:49:49.529Z</time></trkpt><trkpt lat="45.7212519" lon="10.2304767"><ele>405.0</ele><time>2026-04-27T14:49:50.529Z</time></trkpt><trkpt lat="45.7211403" lon="10.230503"><ele>405.0</ele><time>2026-04-27T14:49:51.566Z</time></trkpt><trkpt lat="45.7210292" lon="10.230521"><ele>405.0</ele><time>2026-04-27T14:49:52.566Z</time></trkpt><trkpt lat="45.7209142" lon="10.2305132"><ele>404.75</ele><time>2026-04-27T14:49:53.566Z</time></trkpt><trkpt lat="45.7208031" lon="10.2304899"><ele>404.5</ele><time>2026-04-27T14:49:54.566Z</time></trkpt><trkpt lat="45.7206909" lon="10.2304733"><ele>404.25</ele><time>2026-04-27T14:49:55.566Z</time></trkpt><trkpt lat="45.720582" lon="10.2304339"><ele>404.0</ele><time>2026-04-27T14:49:56.567Z</time></trkpt><trkpt lat="45.7204835" lon="10.2303543"><ele>404.0</ele><time>2026-04-27T14:49:57.566Z</time></trkpt><trkpt lat="45.7203857" lon="10.2302811"><ele>404.0</ele><time>2026-04-27T14:49:58.566Z</time></trkpt><trkpt lat="45.7202918" lon="10.2301867"><ele>404.0</ele><time>2026-04-27T14:49:59.566Z</time></trkpt><trkpt lat="45.7201997" lon="10.2300721"><ele>404.0</ele><time>2026-04-27T14:50:00.566Z</time></trkpt><trkpt lat="45.7201163" lon="10.229943"><ele>403.75</ele><time>2026-04-27T14:50:01.566Z</time></trkpt><trkpt lat="45.7200327" lon="10.2298169"><ele>403.5</ele><time>2026-04-27T14:50:02.566Z</time></trkpt><trkpt lat="45.7199488" lon="10.2296799"><ele>403.25</ele><time>2026-04-27T14:50:03.567Z</time></trkpt><trkpt lat="45.7198663" lon="10.2295462"><ele>403.0</ele><time>2026-04-27T14:50:04.567Z</time></trkpt><trkpt lat="45.7197854" lon="10.2294111"><ele>403.0</ele><time>2026-04-27T14:50:05.566Z</time></trkpt><trkpt lat="45.7197009" lon="10.2292732"><ele>403.0</ele><time>2026-04-27T14:50:06.566Z</time></trkpt><trkpt lat="45.7196158" lon="10.2291347"><ele>403.0</ele><time>2026-04-27T14:50:07.567Z</time></trkpt><trkpt lat="45.7195287" lon="10.228995"><ele>403.0</ele><time>2026-04-27T14:50:08.566Z</time></trkpt><trkpt lat="45.7194419" lon="10.2288511"><ele>401.25</ele><time>2026-04-27T14:50:09.566Z</time></trkpt><trkpt lat="45.7193521" lon="10.2287078"><ele>399.5</ele><time>2026-04-27T14:50:10.566Z</time></trkpt><trkpt lat="45.7192603" lon="10.2285623"><ele>397.75</ele><time>2026-04-27T14:50:11.566Z</time></trkpt><trkpt lat="45.7191669" lon="10.2284145"><ele>396.0</ele><time>2026-04-27T14:50:12.528Z</time></trkpt><trkpt lat="45.7190746" lon="10.2282669"><ele>398.0</ele><time>2026-04-27T14:50:13.567Z</time></trkpt><trkpt lat="45.718976" lon="10.2281189"><ele>400.0</ele><time>2026-04-27T14:50:14.566Z</time></trkpt><trkpt lat="45.7188797" lon="10.2279685"><ele>402.0</ele><time>2026-04-27T14:50:15.566Z</time></trkpt><trkpt lat="45.7187797" lon="10.2278094"><ele>404.0</ele><time>2026-04-27T14:50:16.566Z</time></trkpt><trkpt lat="45.7186778" lon="10.2276567"><ele>404.0</ele><time>2026-04-27T14:50:17.566Z</time></trkpt><trkpt lat="45.718577" lon="10.2275052"><ele>404.0</ele><time>2026-04-27T14:50:18.567Z</time></trkpt><trkpt lat="45.7184755" lon="10.227353"><ele>404.0</ele><time>2026-04-27T14:50:19.566Z</time></trkpt><trkpt lat="45.7183817" lon="10.2272099"><ele>404.0</ele><time>2026-04-27T14:50:20.566Z</time></trkpt><trkpt lat="45.7182809" lon="10.2270636"><ele>402.5</ele><time>2026-04-27T14:50:21.566Z</time></trkpt><trkpt lat="45.7181952" lon="10.2269319"><ele>401.0</ele><time>2026-04-27T14:50:22.566Z</time></trkpt><trkpt lat="45.7180964" lon="10.2267914"><ele>399.5</ele><time>2026-04-27T14:50:23.566Z</time></trkpt><trkpt lat="45.7180068" lon="10.2266571"><ele>398.0</ele><time>2026-04-27T14:50:24.53Z</time></trkpt><trkpt lat="45.7179124" lon="10.2265239"><ele>397.0</ele><time>2026-04-27T14:50:25.529Z</time></trkpt><trkpt lat="45.7178223" lon="10.2263891"><ele>396.0</ele><time>2026-04-27T14:50:26.566Z</time></trkpt><trkpt lat="45.7177256" lon="10.2262587"><ele>395.0</ele><time>2026-04-27T14:50:27.566Z</time></trkpt><trkpt lat="45.7176301" lon="10.2261175"><ele>394.0</ele><time>2026-04-27T14:50:28.566Z</time></trkpt><trkpt lat="45.7175461" lon="10.2259644"><ele>394.0</ele><time>2026-04-27T14:50:29.566Z</time></trkpt><trkpt lat="45.7174581" lon="10.2258135"><ele>394.0</ele><time>2026-04-27T14:50:30.566Z</time></trkpt><trkpt lat="45.7173898" lon="10.2256351"><ele>394.0</ele><time>2026-04-27T14:50:31.566Z</time></trkpt><trkpt lat="45.7173013" lon="10.2254633"><ele>394.0</ele><time>2026-04-27T14:50:32.566Z</time></trkpt><trkpt lat="45.717217" lon="10.2252952"><ele>392.5</ele><time>2026-04-27T14:50:33.566Z</time></trkpt><trkpt lat="45.7171246" lon="10.2251348"><ele>391.0</ele><time>2026-04-27T14:50:34.566Z</time></trkpt><trkpt lat="45.71703" lon="10.2249704"><ele>389.5</ele><time>2026-04-27T14:50:35.567Z</time></trkpt><trkpt lat="45.7169297" lon="10.2248168"><ele>388.0</ele><time>2026-04-27T14:50:36.566Z</time></trkpt><trkpt lat="45.7168258" lon="10.2246687"><ele>388.0</ele><time>2026-04-27T14:50:37.566Z</time></trkpt><trkpt lat="45.7167274" lon="10.2245131"><ele>388.0</ele><time>2026-04-27T14:50:38.566Z</time></trkpt><trkpt lat="45.7166261" lon="10.2243573"><ele>388.0</ele><time>2026-04-27T14:50:39.566Z</time></trkpt><trkpt lat="45.7165477" lon="10.224195"><ele>388.0</ele><time>2026-04-27T14:50:40.566Z</time></trkpt><trkpt lat="45.7164567" lon="10.2240375"><ele>390.0</ele><time>2026-04-27T14:50:41.566Z</time></trkpt><trkpt lat="45.7163882" lon="10.2238659"><ele>392.0</ele><time>2026-04-27T14:50:42.566Z</time></trkpt><trkpt lat="45.716329" lon="10.2236949"><ele>394.0</ele><time>2026-04-27T14:50:43.566Z</time></trkpt><trkpt lat="45.7162695" lon="10.2235177"><ele>396.0</ele><time>2026-04-27T14:50:44.566Z</time></trkpt><trkpt lat="45.716211" lon="10.2233407"><ele>396.0</ele><time>2026-04-27T14:50:45.566Z</time></trkpt><trkpt lat="45.7161496" lon="10.223163"><ele>396.0</ele><time>2026-04-27T14:50:46.566Z</time></trkpt><trkpt lat="45.7160857" lon="10.22299"><ele>396.0</ele><time>2026-04-27T14:50:47.566Z</time></trkpt><trkpt lat="45.7160199" lon="10.2228171"><ele>396.0</ele><time>2026-04-27T14:50:48.508Z</time></trkpt><trkpt lat="45.7159425" lon="10.2226572"><ele>394.0</ele><time>2026-04-27T14:50:49.566Z</time></trkpt><trkpt lat="45.7158334" lon="10.2225237"><ele>392.0</ele><time>2026-04-27T14:50:50.567Z</time></trkpt><trkpt lat="45.7157257" lon="10.2223969"><ele>390.0</ele><time>2026-04-27T14:50:51.566Z</time></trkpt><trkpt lat="45.7156159" lon="10.2222688"><ele>388.0</ele><time>2026-04-27T14:50:52.566Z</time></trkpt><trkpt lat="45.7155118" lon="10.2221458"><ele>388.33333333333337</ele><time>2026-04-27T14:50:53.566Z</time></trkpt><trkpt lat="45.7152995" lon="10.2218989"><ele>388.66666666666663</ele><time>2026-04-27T14:50:55.566Z</time></trkpt><trkpt lat="45.7152012" lon="10.2217909"><ele>389.0</ele><time>2026-04-27T14:50:56.566Z</time></trkpt><trkpt lat="45.7150941" lon="10.2216861"><ele>389.0</ele><time>2026-04-27T14:50:57.566Z</time></trkpt><trkpt lat="45.714979" lon="10.2216055"><ele>389.0</ele><time>2026-04-27T14:50:58.531Z</time></trkpt><trkpt lat="45.7148596" lon="10.2215352"><ele>389.0</ele><time>2026-04-27T14:50:59.516Z</time></trkpt><trkpt lat="45.7147395" lon="10.2214779"><ele>389.0</ele><time>2026-04-27T14:51:00.566Z</time></trkpt><trkpt lat="45.7146137" lon="10.2214316"><ele>391.5</ele><time>2026-04-27T14:51:01.566Z</time></trkpt><trkpt lat="45.7144842" lon="10.2213966"><ele>394.0</ele><time>2026-04-27T14:51:02.567Z</time></trkpt><trkpt lat="45.7143569" lon="10.2213589"><ele>396.5</ele><time>2026-04-27T14:51:03.566Z</time></trkpt><trkpt lat="45.7142342" lon="10.2213098"><ele>399.0</ele><time>2026-04-27T14:51:04.522Z</time></trkpt><trkpt lat="45.7141051" lon="10.2212552"><ele>399.0</ele><time>2026-04-27T14:51:05.566Z</time></trkpt><trkpt lat="45.7139738" lon="10.2212216"><ele>399.0</ele><time>2026-04-27T14:51:06.566Z</time></trkpt><trkpt lat="45.7138487" lon="10.2211959"><ele>399.0</ele><time>2026-04-27T14:51:07.528Z</time></trkpt><trkpt lat="45.7137306" lon="10.2211625"><ele>399.0</ele><time>2026-04-27T14:51:08.566Z</time></trkpt><trkpt lat="45.7136064" lon="10.2211308"><ele>396.0</ele><time>2026-04-27T14:51:09.567Z</time></trkpt><trkpt lat="45.7134854" lon="10.2210849"><ele>393.0</ele><time>2026-04-27T14:51:10.566Z</time></trkpt><trkpt lat="45.7133681" lon="10.221022"><ele>390.0</ele><time>2026-04-27T14:51:11.566Z</time></trkpt><trkpt lat="45.7132482" lon="10.2209586"><ele>387.0</ele><time>2026-04-27T14:51:12.531Z</time></trkpt><trkpt lat="45.7131348" lon="10.2208634"><ele>387.0</ele><time>2026-04-27T14:51:13.566Z</time></trkpt><trkpt lat="45.7130187" lon="10.2207776"><ele>387.0</ele><time>2026-04-27T14:51:14.566Z</time></trkpt><trkpt lat="45.7129025" lon="10.2206805"><ele>387.0</ele><time>2026-04-27T14:51:15.566Z</time></trkpt><trkpt lat="45.7127865" lon="10.2205839"><ele>387.0</ele><time>2026-04-27T14:51:16.566Z</time></trkpt><trkpt lat="45.7126709" lon="10.2204942"><ele>387.75</ele><time>2026-04-27T14:51:17.566Z</time></trkpt><trkpt lat="45.7125615" lon="10.2204016"><ele>388.5</ele><time>2026-04-27T14:51:18.566Z</time></trkpt><trkpt lat="45.7124495" lon="10.2203126"><ele>389.25</ele><time>2026-04-27T14:51:19.566Z</time></trkpt><trkpt lat="45.7123418" lon="10.2202243"><ele>390.0</ele><time>2026-04-27T14:51:20.567Z</time></trkpt><trkpt lat="45.7122318" lon="10.2201366"><ele>390.0</ele><time>2026-04-27T14:51:21.566Z</time></trkpt><trkpt lat="45.7121203" lon="10.2200505"><ele>390.0</ele><time>2026-04-27T14:51:22.567Z</time></trkpt><trkpt lat="45.7120091" lon="10.219964"><ele>390.0</ele><time>2026-04-27T14:51:23.566Z</time></trkpt><trkpt lat="45.7119006" lon="10.2198838"><ele>390.0</ele><time>2026-04-27T14:51:24.566Z</time></trkpt><trkpt lat="45.7117852" lon="10.2198093"><ele>390.75</ele><time>2026-04-27T14:51:25.567Z</time></trkpt><trkpt lat="45.7116662" lon="10.2197407"><ele>391.5</ele><time>2026-04-27T14:51:26.566Z</time></trkpt><trkpt lat="45.7115442" lon="10.219693"><ele>392.25</ele><time>2026-04-27T14:51:27.566Z</time></trkpt><trkpt lat="45.711422" lon="10.2196417"><ele>393.0</ele><time>2026-04-27T14:51:28.566Z</time></trkpt><trkpt lat="45.7112865" lon="10.219623"><ele>393.0</ele><time>2026-04-27T14:51:29.566Z</time></trkpt><trkpt lat="45.7111587" lon="10.2195968"><ele>393.0</ele><time>2026-04-27T14:51:30.566Z</time></trkpt><trkpt lat="45.7110311" lon="10.219576"><ele>393.0</ele><time>2026-04-27T14:51:31.566Z</time></trkpt><trkpt lat="45.7109065" lon="10.2195476"><ele>393.0</ele><time>2026-04-27T14:51:32.53Z</time></trkpt><trkpt lat="45.7107825" lon="10.2195163"><ele>390.75</ele><time>2026-04-27T14:51:33.528Z</time></trkpt><trkpt lat="45.7106604" lon="10.2194707"><ele>388.5</ele><time>2026-04-27T14:51:34.566Z</time></trkpt><trkpt lat="45.7105416" lon="10.2194044"><ele>386.25</ele><time>2026-04-27T14:51:35.566Z</time></trkpt><trkpt lat="45.7104278" lon="10.2193261"><ele>384.0</ele><time>2026-04-27T14:51:36.566Z</time></trkpt><trkpt lat="45.7103133" lon="10.219248"><ele>382.75</ele><time>2026-04-27T14:51:37.566Z</time></trkpt><trkpt lat="45.7102309" lon="10.2190834"><ele>381.5</ele><time>2026-04-27T14:51:38.566Z</time></trkpt><trkpt lat="45.7101405" lon="10.2189777"><ele>380.25</ele><time>2026-04-27T14:51:39.566Z</time></trkpt><trkpt lat="45.710057" lon="10.2188433"><ele>379.0</ele><time>2026-04-27T14:51:40.566Z</time></trkpt><trkpt lat="45.7099716" lon="10.2187125"><ele>379.0</ele><time>2026-04-27T14:51:41.566Z</time></trkpt><trkpt lat="45.7098924" lon="10.2185756"><ele>379.0</ele><time>2026-04-27T14:51:42.567Z</time></trkpt><trkpt lat="45.7098141" lon="10.2184475"><ele>379.0</ele><time>2026-04-27T14:51:43.566Z</time></trkpt><trkpt lat="45.7097324" lon="10.2183122"><ele>379.0</ele><time>2026-04-27T14:51:44.566Z</time></trkpt><trkpt lat="45.7096456" lon="10.2181765"><ele>377.75</ele><time>2026-04-27T14:51:45.566Z</time></trkpt><trkpt lat="45.7095603" lon="10.218041"><ele>376.5</ele><time>2026-04-27T14:51:46.566Z</time></trkpt><trkpt lat="45.7094688" lon="10.2178768"><ele>375.25</ele><time>2026-04-27T14:51:47.566Z</time></trkpt><trkpt lat="45.7093808" lon="10.2177244"><ele>374.0</ele><time>2026-04-27T14:51:48.566Z</time></trkpt><trkpt lat="45.7092931" lon="10.2175773"><ele>374.0</ele><time>2026-04-27T14:51:49.566Z</time></trkpt><trkpt lat="45.7092065" lon="10.2174378"><ele>374.0</ele><time>2026-04-27T14:51:50.567Z</time></trkpt><trkpt lat="45.7091234" lon="10.2173124"><ele>374.0</ele><time>2026-04-27T14:51:51.566Z</time></trkpt><trkpt lat="45.7090366" lon="10.2171876"><ele>374.0</ele><time>2026-04-27T14:51:52.566Z</time></trkpt><trkpt lat="45.708949" lon="10.2170791"><ele>374.5</ele><time>2026-04-27T14:51:53.525Z</time></trkpt><trkpt lat="45.7088618" lon="10.2169668"><ele>375.0</ele><time>2026-04-27T14:51:54.509Z</time></trkpt><trkpt lat="45.7087693" lon="10.2168881"><ele>375.5</ele><time>2026-04-27T14:51:55.528Z</time></trkpt><trkpt lat="45.7086547" lon="10.2168419"><ele>376.0</ele><time>2026-04-27T14:51:56.566Z</time></trkpt><trkpt lat="45.7085502" lon="10.2167849"><ele>376.0</ele><time>2026-04-27T14:51:57.521Z</time></trkpt><trkpt lat="45.7083591" lon="10.2166744"><ele>376.0</ele><time>2026-04-27T14:51:59.567Z</time></trkpt><trkpt lat="45.7082625" lon="10.2166182"><ele>376.0</ele><time>2026-04-27T14:52:00.567Z</time></trkpt><trkpt lat="45.7081631" lon="10.2165629"><ele>376.0</ele><time>2026-04-27T14:52:01.566Z</time></trkpt><trkpt lat="45.7080726" lon="10.216458"><ele>378.25</ele><time>2026-04-27T14:52:02.566Z</time></trkpt><trkpt lat="45.7079878" lon="10.2163414"><ele>380.5</ele><time>2026-04-27T14:52:03.566Z</time></trkpt><trkpt lat="45.7079051" lon="10.2162204"><ele>382.75</ele><time>2026-04-27T14:52:04.521Z</time></trkpt><trkpt lat="45.7078255" lon="10.2160988"><ele>385.0</ele><time>2026-04-27T14:52:05.566Z</time></trkpt><trkpt lat="45.7077454" lon="10.2159814"><ele>384.0</ele><time>2026-04-27T14:52:06.531Z</time></trkpt><trkpt lat="45.7076692" lon="10.2158699"><ele>383.0</ele><time>2026-04-27T14:52:07.533Z</time></trkpt><trkpt lat="45.7075936" lon="10.2157593"><ele>382.0</ele><time>2026-04-27T14:52:08.566Z</time></trkpt><trkpt lat="45.707521" lon="10.2156458"><ele>381.0</ele><time>2026-04-27T14:52:09.567Z</time></trkpt><trkpt lat="45.7074485" lon="10.2155342"><ele>380.0</ele><time>2026-04-27T14:52:10.566Z</time></trkpt><trkpt lat="45.7073746" lon="10.2154247"><ele>380.0</ele><time>2026-04-27T14:52:11.566Z</time></trkpt><trkpt lat="45.7072984" lon="10.2153018"><ele>380.0</ele><time>2026-04-27T14:52:12.566Z</time></trkpt><trkpt lat="45.7072173" lon="10.2151759"><ele>380.0</ele><time>2026-04-27T14:52:13.567Z</time></trkpt><trkpt lat="45.7071346" lon="10.2150467"><ele>380.0</ele><time>2026-04-27T14:52:14.566Z</time></trkpt><trkpt lat="45.7070518" lon="10.2149183"><ele>378.0</ele><time>2026-04-27T14:52:15.566Z</time></trkpt><trkpt lat="45.7069687" lon="10.2148043"><ele>376.0</ele><time>2026-04-27T14:52:16.567Z</time></trkpt><trkpt lat="45.7068882" lon="10.2146901"><ele>374.0</ele><time>2026-04-27T14:52:17.566Z</time></trkpt><trkpt lat="45.7068066" lon="10.2145767"><ele>372.0</ele><time>2026-04-27T14:52:18.567Z</time></trkpt><trkpt lat="45.7067109" lon="10.2144754"><ele>372.0</ele><time>2026-04-27T14:52:19.566Z</time></trkpt><trkpt lat="45.7066284" lon="10.2143723"><ele>372.0</ele><time>2026-04-27T14:52:20.566Z</time></trkpt><trkpt lat="45.7065449" lon="10.2142733"><ele>372.0</ele><time>2026-04-27T14:52:21.566Z</time></trkpt><trkpt lat="45.7064614" lon="10.2141762"><ele>372.0</ele><time>2026-04-27T14:52:22.567Z</time></trkpt><trkpt lat="45.7063797" lon="10.2140824"><ele>372.0</ele><time>2026-04-27T14:52:23.566Z</time></trkpt><trkpt lat="45.7062917" lon="10.2139785"><ele>371.40000000000003</ele><time>2026-04-27T14:52:24.532Z</time></trkpt><trkpt lat="45.7062105" lon="10.213896"><ele>370.8</ele><time>2026-04-27T14:52:25.566Z</time></trkpt><trkpt lat="45.7061292" lon="10.2138004"><ele>370.2</ele><time>2026-04-27T14:52:26.566Z</time></trkpt><trkpt lat="45.7060435" lon="10.2137032"><ele>369.6</ele><time>2026-04-27T14:52:27.566Z</time></trkpt><trkpt lat="45.7059579" lon="10.2136049"><ele>369.0</ele><time>2026-04-27T14:52:28.566Z</time></trkpt><trkpt lat="45.7058721" lon="10.2135098"><ele>369.0</ele><time>2026-04-27T14:52:29.566Z</time></trkpt><trkpt lat="45.7057831" lon="10.2134079"><ele>369.0</ele><time>2026-04-27T14:52:30.566Z</time></trkpt><trkpt lat="45.7056921" lon="10.2133102"><ele>369.0</ele><time>2026-04-27T14:52:31.567Z</time></trkpt><trkpt lat="45.7056013" lon="10.2132094"><ele>369.0</ele><time>2026-04-27T14:52:32.567Z</time></trkpt><trkpt lat="45.7055088" lon="10.2131067"><ele>369.5</ele><time>2026-04-27T14:52:33.566Z</time></trkpt><trkpt lat="45.7054137" lon="10.2130043"><ele>370.0</ele><time>2026-04-27T14:52:34.515Z</time></trkpt><trkpt lat="45.7053206" lon="10.212897"><ele>370.5</ele><time>2026-04-27T14:52:35.566Z</time></trkpt><trkpt lat="45.7052255" lon="10.2127875"><ele>371.0</ele><time>2026-04-27T14:52:36.566Z</time></trkpt><trkpt lat="45.7051302" lon="10.2126763"><ele>370.5</ele><time>2026-04-27T14:52:37.566Z</time></trkpt><trkpt lat="45.7050309" lon="10.212567"><ele>370.0</ele><time>2026-04-27T14:52:38.566Z</time></trkpt><trkpt lat="45.7049305" lon="10.2124556"><ele>369.5</ele><time>2026-04-27T14:52:39.566Z</time></trkpt><trkpt lat="45.704832" lon="10.2123413"><ele>369.0</ele><time>2026-04-27T14:52:40.53Z</time></trkpt><trkpt lat="45.7047341" lon="10.2122249"><ele>369.0</ele><time>2026-04-27T14:52:41.533Z</time></trkpt><trkpt lat="45.7046346" lon="10.21211"><ele>369.0</ele><time>2026-04-27T14:52:42.566Z</time></trkpt><trkpt lat="45.7045312" lon="10.2119967"><ele>369.0</ele><time>2026-04-27T14:52:43.567Z</time></trkpt><trkpt lat="45.7044303" lon="10.2118772"><ele>369.0</ele><time>2026-04-27T14:52:44.567Z</time></trkpt><trkpt lat="45.7042234" lon="10.2116343"><ele>368.0</ele><time>2026-04-27T14:52:46.566Z</time></trkpt><trkpt lat="45.7041224" lon="10.2115057"><ele>367.0</ele><time>2026-04-27T14:52:47.566Z</time></trkpt><trkpt lat="45.7040108" lon="10.211388"><ele>366.0</ele><time>2026-04-27T14:52:48.566Z</time></trkpt><trkpt lat="45.7038997" lon="10.2112633"><ele>365.0</ele><time>2026-04-27T14:52:49.566Z</time></trkpt><trkpt lat="45.7037868" lon="10.2111378"><ele>365.0</ele><time>2026-04-27T14:52:50.566Z</time></trkpt><trkpt lat="45.7036749" lon="10.2110111"><ele>365.0</ele><time>2026-04-27T14:52:51.566Z</time></trkpt><trkpt lat="45.7035589" lon="10.2108858"><ele>365.0</ele><time>2026-04-27T14:52:52.567Z</time></trkpt><trkpt lat="45.7034459" lon="10.2107593"><ele>365.0</ele><time>2026-04-27T14:52:53.566Z</time></trkpt><trkpt lat="45.7033291" lon="10.210633"><ele>364.0</ele><time>2026-04-27T14:52:54.566Z</time></trkpt><trkpt lat="45.703211" lon="10.2105004"><ele>363.0</ele><time>2026-04-27T14:52:55.566Z</time></trkpt><trkpt lat="45.7030986" lon="10.2103703"><ele>362.0</ele><time>2026-04-27T14:52:56.566Z</time></trkpt><trkpt lat="45.7029881" lon="10.2102391"><ele>361.0</ele><time>2026-04-27T14:52:57.566Z</time></trkpt><trkpt lat="45.7028768" lon="10.2101204"><ele>361.0</ele><time>2026-04-27T14:52:58.566Z</time></trkpt><trkpt lat="45.7027666" lon="10.2099952"><ele>361.0</ele><time>2026-04-27T14:52:59.515Z</time></trkpt><trkpt lat="45.7026601" lon="10.2098779"><ele>361.0</ele><time>2026-04-27T14:53:00.566Z</time></trkpt><trkpt lat="45.7025533" lon="10.2097603"><ele>361.0</ele><time>2026-04-27T14:53:01.566Z</time></trkpt><trkpt lat="45.7024535" lon="10.2096476"><ele>361.0</ele><time>2026-04-27T14:53:02.566Z</time></trkpt><trkpt lat="45.7023524" lon="10.2095308"><ele>361.0</ele><time>2026-04-27T14:53:03.566Z</time></trkpt><trkpt lat="45.7022547" lon="10.2094055"><ele>361.0</ele><time>2026-04-27T14:53:04.566Z</time></trkpt><trkpt lat="45.702152" lon="10.2092829"><ele>361.0</ele><time>2026-04-27T14:53:05.566Z</time></trkpt><trkpt lat="45.7020721" lon="10.2091683"><ele>361.0</ele><time>2026-04-27T14:53:06.566Z</time></trkpt><trkpt lat="45.7019771" lon="10.2090493"><ele>361.0</ele><time>2026-04-27T14:53:07.567Z</time></trkpt><trkpt lat="45.701895" lon="10.2089331"><ele>361.0</ele><time>2026-04-27T14:53:08.566Z</time></trkpt><trkpt lat="45.7018063" lon="10.2088049"><ele>361.0</ele><time>2026-04-27T14:53:09.531Z</time></trkpt><trkpt lat="45.7017218" lon="10.2086663"><ele>361.0</ele><time>2026-04-27T14:53:10.566Z</time></trkpt><trkpt lat="45.7016468" lon="10.2085181"><ele>361.0</ele><time>2026-04-27T14:53:11.566Z</time></trkpt><trkpt lat="45.7015667" lon="10.2083652"><ele>361.0</ele><time>2026-04-27T14:53:12.566Z</time></trkpt><trkpt lat="45.7014817" lon="10.2082086"><ele>361.0</ele><time>2026-04-27T14:53:13.53Z</time></trkpt><trkpt lat="45.701402" lon="10.2080436"><ele>361.25</ele><time>2026-04-27T14:53:14.533Z</time></trkpt><trkpt lat="45.7013287" lon="10.2078728"><ele>361.5</ele><time>2026-04-27T14:53:15.566Z</time></trkpt><trkpt lat="45.7012607" lon="10.2076954"><ele>361.75</ele><time>2026-04-27T14:53:16.566Z</time></trkpt><trkpt lat="45.7011862" lon="10.207514"><ele>362.0</ele><time>2026-04-27T14:53:17.566Z</time></trkpt><trkpt lat="45.701114" lon="10.2073334"><ele>359.6666666666667</ele><time>2026-04-27T14:53:18.566Z</time></trkpt><trkpt lat="45.7010529" lon="10.207128"><ele>357.3333333333333</ele><time>2026-04-27T14:53:19.566Z</time></trkpt><trkpt lat="45.7009857" lon="10.2069348"><ele>355.0</ele><time>2026-04-27T14:53:20.566Z</time></trkpt><trkpt lat="45.7009242" lon="10.2067332"><ele>355.0</ele><time>2026-04-27T14:53:21.566Z</time></trkpt><trkpt lat="45.7008589" lon="10.206538"><ele>355.0</ele><time>2026-04-27T14:53:22.567Z</time></trkpt><trkpt lat="45.700797" lon="10.2063406"><ele>355.0</ele><time>2026-04-27T14:53:23.566Z</time></trkpt><trkpt lat="45.7007356" lon="10.20616"><ele>355.0</ele><time>2026-04-27T14:53:24.567Z</time></trkpt><trkpt lat="45.7006782" lon="10.2059772"><ele>354.75</ele><time>2026-04-27T14:53:25.566Z</time></trkpt><trkpt lat="45.700622" lon="10.2058"><ele>354.5</ele><time>2026-04-27T14:53:26.566Z</time></trkpt><trkpt lat="45.7005676" lon="10.2056272"><ele>354.25</ele><time>2026-04-27T14:53:27.566Z</time></trkpt><trkpt lat="45.7005129" lon="10.2054576"><ele>354.0</ele><time>2026-04-27T14:53:28.566Z</time></trkpt><trkpt lat="45.70046" lon="10.2052872"><ele>354.0</ele><time>2026-04-27T14:53:29.567Z</time></trkpt><trkpt lat="45.7003972" lon="10.2051275"><ele>354.0</ele><time>2026-04-27T14:53:30.566Z</time></trkpt><trkpt lat="45.7003479" lon="10.2049672"><ele>354.0</ele><time>2026-04-27T14:53:31.567Z</time></trkpt><trkpt lat="45.7002927" lon="10.2048091"><ele>354.0</ele><time>2026-04-27T14:53:32.566Z</time></trkpt><trkpt lat="45.7002497" lon="10.2046549"><ele>353.25</ele><time>2026-04-27T14:53:33.566Z</time></trkpt><trkpt lat="45.7001977" lon="10.2045053"><ele>352.5</ele><time>2026-04-27T14:53:34.566Z</time></trkpt><trkpt lat="45.7001558" lon="10.2043636"><ele>351.75</ele><time>2026-04-27T14:53:35.566Z</time></trkpt><trkpt lat="45.7001095" lon="10.2042129"><ele>351.0</ele><time>2026-04-27T14:53:36.567Z</time></trkpt><trkpt lat="45.7000617" lon="10.2040686"><ele>350.8</ele><time>2026-04-27T14:53:37.566Z</time></trkpt><trkpt lat="45.7000145" lon="10.2039341"><ele>350.6</ele><time>2026-04-27T14:53:38.566Z</time></trkpt><trkpt lat="45.6999679" lon="10.2037878"><ele>350.4</ele><time>2026-04-27T14:53:39.567Z</time></trkpt><trkpt lat="45.6999235" lon="10.2036389"><ele>350.2</ele><time>2026-04-27T14:53:40.566Z</time></trkpt><trkpt lat="45.6998711" lon="10.203486"><ele>350.0</ele><time>2026-04-27T14:53:41.567Z</time></trkpt><trkpt lat="45.6998256" lon="10.2033341"><ele>349.75</ele><time>2026-04-27T14:53:42.566Z</time></trkpt><trkpt lat="45.699758" lon="10.2031636"><ele>349.5</ele><time>2026-04-27T14:53:43.566Z</time></trkpt><trkpt lat="45.6997048" lon="10.2029947"><ele>349.25</ele><time>2026-04-27T14:53:44.566Z</time></trkpt><trkpt lat="45.6996477" lon="10.2028108"><ele>349.0</ele><time>2026-04-27T14:53:45.566Z</time></trkpt><trkpt lat="45.6996009" lon="10.2026244"><ele>349.0</ele><time>2026-04-27T14:53:46.566Z</time></trkpt><trkpt lat="45.6995607" lon="10.2024304"><ele>349.0</ele><time>2026-04-27T14:53:47.535Z</time></trkpt><trkpt lat="45.6995306" lon="10.2022357"><ele>349.0</ele><time>2026-04-27T14:53:48.523Z</time></trkpt><trkpt lat="45.6995062" lon="10.2020381"><ele>349.0</ele><time>2026-04-27T14:53:49.566Z</time></trkpt><trkpt lat="45.6994921" lon="10.2018413"><ele>348.75</ele><time>2026-04-27T14:53:50.566Z</time></trkpt><trkpt lat="45.6994909" lon="10.2016369"><ele>348.5</ele><time>2026-04-27T14:53:51.566Z</time></trkpt><trkpt lat="45.6994907" lon="10.2014342"><ele>348.25</ele><time>2026-04-27T14:53:52.566Z</time></trkpt><trkpt lat="45.6995094" lon="10.2012328"><ele>348.0</ele><time>2026-04-27T14:53:53.567Z</time></trkpt><trkpt lat="45.6995274" lon="10.201037"><ele>348.5</ele><time>2026-04-27T14:53:54.523Z</time></trkpt><trkpt lat="45.699551" lon="10.2008378"><ele>349.0</ele><time>2026-04-27T14:53:55.566Z</time></trkpt><trkpt lat="45.6995705" lon="10.200654"><ele>349.5</ele><time>2026-04-27T14:53:56.566Z</time></trkpt><trkpt lat="45.6995882" lon="10.2004719"><ele>350.0</ele><time>2026-04-27T14:53:57.567Z</time></trkpt><trkpt lat="45.6996165" lon="10.2002957"><ele>350.0</ele><time>2026-04-27T14:53:58.566Z</time></trkpt><trkpt lat="45.6996303" lon="10.2001262"><ele>350.0</ele><time>2026-04-27T14:53:59.566Z</time></trkpt><trkpt lat="45.6996577" lon="10.1999651"><ele>350.0</ele><time>2026-04-27T14:54:00.567Z</time></trkpt><trkpt lat="45.6996875" lon="10.1998049"><ele>350.0</ele><time>2026-04-27T14:54:01.567Z</time></trkpt><trkpt lat="45.6997064" lon="10.1996362"><ele>349.25</ele><time>2026-04-27T14:54:02.566Z</time></trkpt><trkpt lat="45.6997347" lon="10.1994671"><ele>348.5</ele><time>2026-04-27T14:54:03.566Z</time></trkpt><trkpt lat="45.6997565" lon="10.1992917"><ele>347.75</ele><time>2026-04-27T14:54:04.566Z</time></trkpt><trkpt lat="45.6997781" lon="10.199115"><ele>347.0</ele><time>2026-04-27T14:54:05.566Z</time></trkpt><trkpt lat="45.6997869" lon="10.1989282"><ele>346.6666666666667</ele><time>2026-04-27T14:54:06.566Z</time></trkpt><trkpt lat="45.699796" lon="10.1987461"><ele>346.3333333333333</ele><time>2026-04-27T14:54:07.566Z</time></trkpt><trkpt lat="45.699803" lon="10.1985604"><ele>346.0</ele><time>2026-04-27T14:54:08.567Z</time></trkpt><trkpt lat="45.6993456" lon="10.1958235"><ele>343.5</ele><time>2026-04-27T14:54:23.482Z</time></trkpt><trkpt lat="45.6993196" lon="10.1956444"><ele>341.0</ele><time>2026-04-27T14:54:24.482Z</time></trkpt><trkpt lat="45.6992622" lon="10.1949569"><ele>340.5</ele><time>2026-04-27T14:54:28.583Z</time></trkpt><trkpt lat="45.6992589" lon="10.1947827"><ele>340.0</ele><time>2026-04-27T14:54:29.576Z</time></trkpt><trkpt lat="45.6992572" lon="10.1946116"><ele>339.5</ele><time>2026-04-27T14:54:30.605Z</time></trkpt><trkpt lat="45.6992577" lon="10.1944387"><ele>339.0</ele><time>2026-04-27T14:54:31.573Z</time></trkpt><trkpt lat="45.6992591" lon="10.1942661"><ele>339.0</ele><time>2026-04-27T14:54:32.614Z</time></trkpt><trkpt lat="45.6992601" lon="10.1940948"><ele>339.0</ele><time>2026-04-27T14:54:33.588Z</time></trkpt><trkpt lat="45.6992607" lon="10.1939232"><ele>339.0</ele><time>2026-04-27T14:54:34.588Z</time></trkpt><trkpt lat="45.6992583" lon="10.1937486"><ele>339.0</ele><time>2026-04-27T14:54:35.588Z</time></trkpt><trkpt lat="45.6992584" lon="10.1935766"><ele>338.79999999999995</ele><time>2026-04-27T14:54:36.588Z</time></trkpt><trkpt lat="45.6992598" lon="10.1934147"><ele>338.59999999999997</ele><time>2026-04-27T14:54:37.589Z</time></trkpt><trkpt lat="45.6992581" lon="10.1932488"><ele>338.4</ele><time>2026-04-27T14:54:38.588Z</time></trkpt><trkpt lat="45.6992604" lon="10.1930957"><ele>338.2</ele><time>2026-04-27T14:54:39.588Z</time></trkpt><trkpt lat="45.6992612" lon="10.1929401"><ele>338.0</ele><time>2026-04-27T14:54:40.588Z</time></trkpt><trkpt lat="45.6992597" lon="10.1927955"><ele>338.0</ele><time>2026-04-27T14:54:41.589Z</time></trkpt><trkpt lat="45.6992619" lon="10.1926573"><ele>338.0</ele><time>2026-04-27T14:54:42.588Z</time></trkpt><trkpt lat="45.6992546" lon="10.1925232"><ele>338.0</ele><time>2026-04-27T14:54:43.588Z</time></trkpt><trkpt lat="45.6992461" lon="10.1923949"><ele>338.0</ele><time>2026-04-27T14:54:44.588Z</time></trkpt><trkpt lat="45.699245" lon="10.1922967"><ele>338.0</ele><time>2026-04-27T14:54:45.581Z</time></trkpt><trkpt lat="45.6992508" lon="10.19215"><ele>338.0</ele><time>2026-04-27T14:54:47.589Z</time></trkpt><trkpt lat="45.6992736" lon="10.1920261"><ele>338.0</ele><time>2026-04-27T14:54:49.588Z</time></trkpt><trkpt lat="45.6993331" lon="10.1919004"><ele>338.0</ele><time>2026-04-27T14:54:51.52Z</time></trkpt><trkpt lat="45.6993647" lon="10.1917193"><ele>338.0</ele><time>2026-04-27T14:54:53.529Z</time></trkpt><trkpt lat="45.6993423" lon="10.1916136"><ele>338.0</ele><time>2026-04-27T14:54:54.524Z</time></trkpt><trkpt lat="45.6993088" lon="10.1915179"><ele>338.0</ele><time>2026-04-27T14:54:55.523Z</time></trkpt><trkpt lat="45.6992797" lon="10.191417"><ele>338.0</ele><time>2026-04-27T14:54:56.518Z</time></trkpt><trkpt lat="45.6992662" lon="10.191299"><ele>338.0</ele><time>2026-04-27T14:54:57.586Z</time></trkpt><trkpt lat="45.6992672" lon="10.1911733"><ele>338.0</ele><time>2026-04-27T14:54:58.526Z</time></trkpt><trkpt lat="45.6992644" lon="10.1910528"><ele>338.0</ele><time>2026-04-27T14:54:59.588Z</time></trkpt><trkpt lat="45.6992625" lon="10.190918"><ele>338.0</ele><time>2026-04-27T14:55:00.588Z</time></trkpt><trkpt lat="45.6992697" lon="10.1907627"><ele>337.79999999999995</ele><time>2026-04-27T14:55:01.588Z</time></trkpt><trkpt lat="45.6992702" lon="10.1906165"><ele>337.6</ele><time>2026-04-27T14:55:02.588Z</time></trkpt><trkpt lat="45.6992738" lon="10.1904648"><ele>337.4</ele><time>2026-04-27T14:55:03.588Z</time></trkpt><trkpt lat="45.6992724" lon="10.190305"><ele>337.20000000000005</ele><time>2026-04-27T14:55:04.588Z</time></trkpt><trkpt lat="45.6992713" lon="10.1901438"><ele>337.0</ele><time>2026-04-27T14:55:05.588Z</time></trkpt><trkpt lat="45.6992762" lon="10.1899882"><ele>337.20000000000005</ele><time>2026-04-27T14:55:06.588Z</time></trkpt><trkpt lat="45.6992682" lon="10.1898345"><ele>337.4</ele><time>2026-04-27T14:55:07.585Z</time></trkpt><trkpt lat="45.6992599" lon="10.1896802"><ele>337.6</ele><time>2026-04-27T14:55:08.588Z</time></trkpt><trkpt lat="45.6992386" lon="10.1895368"><ele>337.79999999999995</ele><time>2026-04-27T14:55:09.588Z</time></trkpt><trkpt lat="45.6992167" lon="10.1893967"><ele>338.0</ele><time>2026-04-27T14:55:10.588Z</time></trkpt><trkpt lat="45.6991942" lon="10.189265"><ele>338.0</ele><time>2026-04-27T14:55:11.522Z</time></trkpt><trkpt lat="45.6991675" lon="10.1891447"><ele>338.0</ele><time>2026-04-27T14:55:12.527Z</time></trkpt><trkpt lat="45.6991371" lon="10.1890171"><ele>338.0</ele><time>2026-04-27T14:55:13.533Z</time></trkpt><trkpt lat="45.699107" lon="10.188937"><ele>338.0</ele><time>2026-04-27T14:55:14.588Z</time></trkpt><trkpt lat="45.6990667" lon="10.188843"><ele>338.0</ele><time>2026-04-27T14:55:15.517Z</time></trkpt><trkpt lat="45.6990321" lon="10.1887548"><ele>338.0</ele><time>2026-04-27T14:55:16.588Z</time></trkpt><trkpt lat="45.6989816" lon="10.1886934"><ele>338.0</ele><time>2026-04-27T14:55:17.588Z</time></trkpt><trkpt lat="45.6989514" lon="10.1886048"><ele>338.0</ele><time>2026-04-27T14:55:18.588Z</time></trkpt><trkpt lat="45.6989141" lon="10.1885225"><ele>338.0</ele><time>2026-04-27T14:55:19.588Z</time></trkpt><trkpt lat="45.6988773" lon="10.1884477"><ele>338.0</ele><time>2026-04-27T14:55:20.588Z</time></trkpt><trkpt lat="45.6988369" lon="10.1883776"><ele>338.0</ele><time>2026-04-27T14:55:21.588Z</time></trkpt><trkpt lat="45.6987626" lon="10.1882607"><ele>338.0</ele><time>2026-04-27T14:55:23.588Z</time></trkpt><trkpt lat="45.6986949" lon="10.1881612"><ele>338.0</ele><time>2026-04-27T14:55:25.543Z</time></trkpt><trkpt lat="45.6986509" lon="10.1880917"><ele>338.0</ele><time>2026-04-27T14:55:27.589Z</time></trkpt><trkpt lat="45.6985951" lon="10.1879828"><ele>338.0</ele><time>2026-04-27T14:55:38.588Z</time></trkpt><trkpt lat="45.6985196" lon="10.1878767"><ele>338.0</ele><time>2026-04-27T14:55:40.588Z</time></trkpt><trkpt lat="45.6984557" lon="10.1878117"><ele>338.0</ele><time>2026-04-27T14:55:41.588Z</time></trkpt><trkpt lat="45.6983926" lon="10.1877325"><ele>338.0</ele><time>2026-04-27T14:55:42.588Z</time></trkpt><trkpt lat="45.6983189" lon="10.1876538"><ele>338.0</ele><time>2026-04-27T14:55:43.588Z</time></trkpt><trkpt lat="45.6982428" lon="10.1875656"><ele>338.0</ele><time>2026-04-27T14:55:44.588Z</time></trkpt><trkpt lat="45.6981701" lon="10.187467"><ele>338.0</ele><time>2026-04-27T14:55:45.588Z</time></trkpt><trkpt lat="45.6981033" lon="10.1873846"><ele>338.0</ele><time>2026-04-27T14:55:46.588Z</time></trkpt><trkpt lat="45.6980633" lon="10.1873073"><ele>338.0</ele><time>2026-04-27T14:55:47.516Z</time></trkpt><trkpt lat="45.6980163" lon="10.1872278"><ele>338.0</ele><time>2026-04-27T14:55:48.518Z</time></trkpt><trkpt lat="45.6979893" lon="10.1871153"><ele>339.33333333333337</ele><time>2026-04-27T14:55:50.588Z</time></trkpt><trkpt lat="45.6979341" lon="10.187067"><ele>340.6666666666667</ele><time>2026-04-27T14:55:53.589Z</time></trkpt><trkpt lat="45.6977207" lon="10.1872979"><ele>342.0</ele><time>2026-04-27T14:59:57.579Z</time></trkpt><trkpt lat="45.6978604" lon="10.187308"><ele>342.25</ele><time>2026-04-27T15:00:21.538Z</time></trkpt><trkpt lat="45.6978185" lon="10.1872406"><ele>342.5</ele><time>2026-04-27T15:00:43.538Z</time></trkpt><trkpt lat="45.697878" lon="10.1871445"><ele>342.75</ele><time>2026-04-27T15:00:51.537Z</time></trkpt><trkpt lat="45.6979413" lon="10.1870798"><ele>343.0</ele><time>2026-04-27T15:03:35.537Z</time></trkpt><trkpt lat="45.6978223" lon="10.1877996"><ele>343.0</ele><time>2026-04-27T15:12:00.578Z</time></trkpt><trkpt lat="45.697811" lon="10.1876017"><ele>343.0</ele><time>2026-04-27T15:12:01.58Z</time></trkpt><trkpt lat="45.697777" lon="10.1874953"><ele>343.0</ele><time>2026-04-27T15:12:03.484Z</time></trkpt><trkpt lat="45.6978151" lon="10.1874057"><ele>343.0</ele><time>2026-04-27T15:13:24.592Z</time></trkpt><trkpt lat="45.6977988" lon="10.18731"><ele>343.0</ele><time>2026-04-27T15:13:27.489Z</time></trkpt><trkpt lat="45.69781" lon="10.1871937"><ele>343.0</ele><time>2026-04-27T15:13:31.489Z</time></trkpt><trkpt lat="45.6978548" lon="10.1871212"><ele>343.0</ele><time>2026-04-27T15:13:37.489Z</time></trkpt><trkpt lat="45.6979285" lon="10.1871047"><ele>343.0</ele><time>2026-04-27T15:17:40.489Z</time></trkpt><trkpt lat="45.6979804" lon="10.1871663"><ele>343.0</ele><time>2026-04-27T15:17:43.489Z</time></trkpt></trkseg><trkseg><trkpt lat="45.5648013" lon="10.1102862"><ele>192.9</ele><time>2026-04-29T11:37:02.501Z</time></trkpt></trkseg></trk></gpx>